[[{"header":{"parameterUnit":"m.s-1","parameterCategory":1,"la1":30.6,"la2":28.766,"lo1":-90.7593,"lo2":-88.6598,"dy":0.0162,"dx":0.0183,"nx":116,"ny":114,"refTime":"2023-03-22T18:00:00:Z","depth":0,"parameterNumber":2,"parameterNumberName":"U-component_of_WINDS"},"data":[0.0,0.0,0.0,0.0,0.0,0.0,0.0,0.0,0.0,0.0,0.0,0.0,0.0,0.0,0.0,0.0,0.0,0.0,0.0,0.0,0.0,0.0,0.0,0.0,0.0,0.0,0.0,0.0,0.0,0.0,0.0,0.0,0.0,0.0,0.0,0.0,0.0,0.0,0.0,0.0,0.0,0.0,0.0,0.0,0.0,0.0,0.0,0.0,0.0,0.0,0.0,0.0,0.0,0.0,0.0,0.0,0.0,0.0,0.0,0.0,0.0,0.0,0.0,0.0,0.0,0.0,0.0,0.0,0.0,0.0,0.0,0.0,0.0,0.0,0.0,0.0,0.0,0.0,0.0,0.0,0.0,0.0,0.0,0.0,0.0,0.0,0.0,0.0,0.0,0.0,0.0,0.0,0.0,0.0,0.0,0.0,0.0,0.0,0.0,0.0,0.0,0.0,0.0,0.0,0.0,0.0,0.0,0.0,0.0,0.0,0.0,0.0,0.0,0.0,0.0,0.0,0.0,0.0,0.0,0.0,0.0,0.0,0.0,0.0,0.0,0.0,0.0,0.0,0.0,0.0,0.0,0.0,0.0,0.0,0.0,0.0,0.0,0.0,0.0,0.0,0.0,0.0,0.0,0.0,0.0,0.0,0.0,0.0,0.0,0.0,0.0,0.0,0.0,0.0,0.0,0.0,0.0,0.0,0.0,0.0,0.0,0.0,0.0,0.0,0.0,0.0,0.0,0.0,0.0,0.0,0.0,0.0,0.0,0.0,0.0,0.0,0.0,0.0,0.0,0.0,0.0,0.0,0.0,0.0,0.0,0.0,0.0,0.0,0.0,0.0,0.0,0.0,0.0,0.0,0.0,0.0,0.0,0.0,0.0,0.0,0.0,0.0,0.0,0.0,0.0,0.0,0.0,0.0,0.0,0.0,0.0,0.0,0.0,0.0,0.0,0.0,0.0,0.0,0.0,0.0,0.0,0.0,0.0,0.0,0.0,0.0,0.0,0.0,0.0,0.0,0.0,0.0,0.0,0.0,0.0,0.0,0.0,0.0,0.0,0.0,0.0,0.0,0.0,0.0,0.0,0.0,0.0,0.0,0.0,0.0,0.0,0.0,0.0,0.0,0.0,0.0,0.0,0.0,0.0,0.0,0.0,0.0,0.0,0.0,0.0,0.0,0.0,0.0,0.0,0.0,0.0,0.0,0.0,0.0,0.0,0.0,0.0,0.0,0.0,0.0,0.0,0.0,0.0,0.0,0.0,0.0,0.0,0.0,0.0,0.0,0.0,0.0,0.0,0.0,0.0,0.0,0.0,0.0,0.0,0.0,0.0,0.0,0.0,0.0,0.0,0.0,0.0,0.0,0.0,0.0,0.0,0.0,0.0,0.0,0.0,0.0,0.0,0.0,0.0,0.0,0.0,0.0,0.0,0.0,0.0,0.0,0.0,0.0,0.0,0.0,0.0,0.0,0.0,0.0,0.0,0.0,0.0,0.0,0.0,0.0,0.0,0.0,0.0,0.0,0.0,0.0,0.0,0.0,0.0,0.0,0.0,0.0,0.0,0.0,0.0,0.0,0.0,0.0,0.0,0.0,0.0,0.0,0.0,0.0,0.0,0.0,0.0,0.0,0.0,0.0,0.0,0.0,0.0,0.0,0.0,0.0,0.0,0.0,0.0,0.0,0.0,0.0,0.0,0.0,0.0,0.0,0.0,0.0,0.0,0.0,0.0,0.0,0.0,0.0,0.0,0.0,0.0,0.0,0.0,0.0,0.0,0.0,0.0,0.0,0.0,0.0,0.0,0.0,0.0,0.0,0.0,0.0,0.0,0.0,0.0,0.0,0.0,0.0,0.0,0.0,0.0,0.0,0.0,0.0,0.0,0.0,0.0,0.0,0.0,0.0,0.0,0.0,0.0,0.0,0.0,0.0,0.0,0.0,0.0,0.0,0.0,0.0,0.0,0.0,0.0,0.0,0.0,0.0,0.0,0.0,0.0,0.0,0.0,0.0,0.0,0.0,0.0,0.0,0.0,0.0,0.0,0.0,0.0,0.0,0.0,0.0,0.0,0.0,0.0,0.0,0.0,0.0,0.0,0.0,0.0,0.0,0.0,0.0,0.0,0.0,0.0,0.0,0.0,0.0,0.0,0.0,0.0,0.0,0.0,0.0,0.0,0.0,0.0,0.0,0.0,0.0,0.0,0.0,0.0,0.0,0.0,0.0,0.0,0.0,0.0,0.0,0.0,0.0,0.0,0.0,0.0,0.0,0.0,0.0,0.0,0.0,0.0,0.0,0.0,0.0,0.0,0.0,0.0,0.0,0.0,0.0,0.0,0.0,0.0,0.0,0.0,0.0,0.0,0.0,0.0,0.0,0.0,0.0,0.0,0.0,0.0,0.0,0.0,0.0,0.0,0.0,0.0,0.0,0.0,0.0,0.0,0.0,0.0,0.0,0.0,0.0,0.0,0.0,0.0,0.0,0.0,0.0,0.0,0.0,0.0,0.0,0.0,0.0,0.0,0.0,0.0,0.0,0.0,0.0,0.0,0.0,0.0,0.0,0.0,0.0,0.0,0.0,0.0,0.0,0.0,0.0,0.0,0.0,0.0,0.0,0.0,0.0,0.0,0.0,0.0,0.0,0.0,0.0,0.0,0.0,0.0,0.0,0.0,0.0,0.0,0.0,0.0,0.0,0.0,0.0,0.0,0.0,0.0,0.0,0.0,0.0,0.0,0.0,0.0,0.0,0.0,0.0,0.0,0.0,0.0,0.0,0.0,0.0,0.0,0.0,0.0,0.0,0.0,0.0,0.0,0.0,0.0,0.0,0.0,0.0,0.0,0.0,0.0,0.0,0.0,0.0,0.0,0.0,0.0,0.0,0.0,0.0,0.0,0.0,0.0,0.0,0.0,0.0,0.0,0.0,0.0,0.0,0.0,0.0,0.0,0.0,0.0,0.0,0.0,0.0,0.0,0.0,0.0,0.0,0.0,0.0,0.0,0.0,0.0,0.0,0.0,0.0,0.0,0.0,0.0,0.0,0.0,0.0,0.0,0.0,0.0,0.0,0.0,0.0,0.0,0.0,0.0,0.0,0.0,0.0,0.0,0.0,0.0,0.0,0.0,0.0,0.0,0.0,0.0,0.0,0.0,0.0,0.0,0.0,0.0,0.0,0.0,0.0,0.0,0.0,0.0,0.0,0.0,0.0,0.0,0.0,0.0,0.0,0.0,0.0,0.0,0.0,0.0,0.0,0.0,0.0,0.0,0.0,0.0,0.0,0.0,0.0,0.0,0.0,0.0,0.0,0.0,0.0,0.0,0.0,0.0,0.0,0.0,0.0,0.0,0.0,0.0,0.0,0.0,0.0,0.0,0.0,0.0,0.0,0.0,0.0,0.0,0.0,0.0,0.0,0.0,0.0,0.0,0.0,0.0,0.0,0.0,0.0,0.0,0.0,0.0,0.0,0.0,0.0,0.0,0.0,0.0,0.0,0.0,0.0,0.0,0.0,0.0,0.0,0.0,0.0,0.0,0.0,0.0,0.0,0.0,0.0,0.0,0.0,0.0,0.0,0.0,0.0,0.0,0.0,0.0,0.0,0.0,0.0,0.0,0.0,0.0,0.0,0.0,0.0,0.0,0.0,0.0,0.0,0.0,0.0,0.0,0.0,0.0,0.0,0.0,0.0,0.0,0.0,0.0,0.0,0.0,0.0,0.0,0.0,0.0,0.0,0.0,0.0,0.0,0.0,0.0,0.0,0.0,0.0,0.0,0.0,0.0,0.0,0.0,0.0,0.0,0.0,0.0,0.0,0.0,0.0,0.0,0.0,0.0,0.0,0.0,0.0,0.0,0.0,0.0,0.0,0.0,0.0,0.0,0.0,0.0,0.0,0.0,0.0,0.0,0.0,0.0,0.0,0.0,0.0,0.0,0.0,0.0,0.0,0.0,0.0,0.0,0.0,0.0,0.0,0.0,0.0,0.0,0.0,0.0,0.0,0.0,0.0,0.0,0.0,0.0,0.0,0.0,0.0,0.0,0.0,0.0,0.0,0.0,0.0,0.0,0.0,0.0,0.0,0.0,0.0,0.0,0.0,0.0,0.0,0.0,0.0,0.0,0.0,0.0,0.0,0.0,0.0,0.0,0.0,0.0,0.0,0.0,0.0,0.0,0.0,0.0,0.0,0.0,0.0,0.0,0.0,0.0,0.0,0.0,0.0,0.0,0.0,0.0,0.0,0.0,0.0,0.0,0.0,0.0,0.0,0.0,0.0,0.0,0.0,0.0,0.0,0.0,0.0,0.0,0.0,0.0,0.0,0.0,0.0,0.0,0.0,0.0,0.0,0.0,0.0,0.0,0.0,0.0,0.0,0.0,0.0,0.0,0.0,0.0,0.0,0.0,0.0,0.0,0.0,0.0,0.0,0.0,0.0,0.0,0.0,0.0,0.0,0.0,0.0,0.0,0.0,0.0,0.0,0.0,0.0,0.0,0.0,0.0,0.0,0.0,0.0,0.0,0.0,0.0,0.0,0.0,0.0,0.0,0.0,0.0,0.0,0.0,0.0,0.0,0.0,0.0,0.0,0.0,0.0,0.0,0.0,0.0,0.0,0.0,0.0,0.0,0.0,0.0,0.0,0.0,0.0,0.0,0.0,0.0,0.0,0.0,0.0,0.0,0.0,0.0,0.0,0.0,0.0,0.0,0.0,0.0,0.0,0.0,0.0,0.0,0.0,0.0,0.0,0.0,0.0,0.0,0.0,0.0,0.0,0.0,0.0,0.0,0.0,0.0,0.0,0.0,0.0,0.0,0.0,0.0,0.0,0.0,0.0,0.0,0.0,0.0,0.0,0.0,0.0,0.0,0.0,0.0,0.0,0.0,0.0,0.0,0.0,0.0,0.0,0.0,0.0,0.0,0.0,0.0,0.0,0.0,0.0,0.0,0.0,0.0,0.0,0.0,0.0,0.0,0.0,0.0,0.0,0.0,0.0,0.0,0.0,0.0,0.0,0.0,0.0,0.0,0.0,0.0,0.0,0.0,0.0,0.0,0.0,0.0,0.0,0.0,0.0,0.0,0.0,0.0,0.0,0.0,0.0,0.0,0.0,0.0,0.0,0.0,0.0,0.0,0.0,0.0,0.0,0.0,0.0,0.0,0.0,0.0,0.0,0.0,0.0,0.0,0.0,0.0,0.0,0.0,0.0,0.0,0.0,0.0,0.0,0.0,0.0,0.0,0.0,0.0,0.0,0.0,0.0,0.0,0.0,0.0,0.0,0.0,0.0,0.0,0.0,0.0,0.0,0.0,0.0,0.0,0.0,0.0,0.0,0.0,0.0,0.0,0.0,0.0,0.0,0.0,0.0,0.0,0.0,0.0,0.0,0.0,0.0,0.0,0.0,0.0,0.0,0.0,0.0,0.0,0.0,0.0,0.0,0.0,0.0,0.0,0.0,0.0,0.0,0.0,0.0,0.0,0.0,0.0,0.0,0.0,0.0,0.0,0.0,0.0,0.0,0.0,0.0,0.0,0.0,0.0,0.0,0.0,0.0,0.0,0.0,0.0,0.0,0.0,0.0,0.0,0.0,0.0,0.0,0.0,0.0,0.0,0.0,0.0,0.0,0.0,0.0,0.0,0.0,0.0,0.0,0.0,0.0,0.0,0.0,0.0,0.0,0.0,0.0,0.0,0.0,0.0,0.0,0.0,0.0,0.0,0.0,0.0,0.0,0.0,0.0,0.0,0.0,0.0,0.0,0.0,0.0,0.0,0.0,0.0,0.0,0.0,0.0,0.0,0.0,0.0,0.0,0.0,0.0,0.0,0.0,0.0,0.0,0.0,0.0,0.0,0.0,0.0,0.0,0.0,0.0,0.0,0.0,0.0,0.0,0.0,0.0,0.0,0.0,0.0,0.0,0.0,0.0,0.0,0.0,0.0,0.0,0.0,0.0,0.0,0.0,0.0,0.0,0.0,0.0,0.0,0.0,0.0,0.0,0.0,0.0,0.0,0.0,0.0,0.0,0.0,0.0,0.0,0.0,0.0,0.0,0.0,0.0,0.0,0.0,0.0,0.0,0.0,0.0,0.0,0.0,0.0,0.0,0.0,0.0,0.0,0.0,-3.9093,0.0,0.0,0.0,0.0,0.0,0.0,0.0,0.0,0.0,0.0,0.0,0.0,0.0,0.0,0.0,0.0,0.0,0.0,0.0,0.0,0.0,0.0,0.0,0.0,0.0,0.0,0.0,0.0,0.0,0.0,0.0,0.0,0.0,0.0,0.0,0.0,0.0,0.0,0.0,-3.7306,-3.6357,-3.5718,-3.6835,-3.6915,-3.6158,0.0,0.0,0.0,0.0,0.0,0.0,0.0,0.0,0.0,0.0,0.0,0.0,0.0,0.0,0.0,0.0,0.0,0.0,0.0,0.0,0.0,0.0,0.0,0.0,0.0,0.0,0.0,0.0,0.0,0.0,0.0,0.0,0.0,0.0,0.0,0.0,0.0,0.0,0.0,0.0,0.0,0.0,0.0,0.0,0.0,0.0,0.0,0.0,0.0,0.0,0.0,0.0,0.0,0.0,0.0,0.0,0.0,0.0,0.0,0.0,0.0,0.0,0.0,0.0,0.0,0.0,0.0,0.0,0.0,0.0,0.0,-3.9634,0.0,0.0,0.0,0.0,0.0,0.0,0.0,0.0,0.0,0.0,0.0,0.0,0.0,0.0,0.0,0.0,0.0,0.0,0.0,0.0,0.0,0.0,0.0,0.0,0.0,0.0,0.0,0.0,0.0,0.0,0.0,0.0,0.0,0.0,0.0,0.0,0.0,0.0,-3.7301,-3.6222,-3.6434,-3.7821,-3.7705,-3.6339,-3.6422,0.0,0.0,0.0,0.0,0.0,0.0,0.0,0.0,0.0,0.0,0.0,0.0,0.0,0.0,0.0,0.0,0.0,0.0,0.0,0.0,0.0,0.0,0.0,0.0,0.0,0.0,0.0,0.0,0.0,0.0,0.0,0.0,0.0,0.0,0.0,0.0,0.0,0.0,0.0,0.0,0.0,0.0,0.0,0.0,0.0,0.0,0.0,0.0,0.0,0.0,0.0,0.0,0.0,0.0,0.0,0.0,0.0,0.0,0.0,0.0,0.0,0.0,0.0,-4.557,-4.6411,-4.7524,-4.6739,-4.6412,-4.6322,-4.3395,-4.155,-4.0597,-4.0086,0.0,0.0,0.0,0.0,0.0,0.0,0.0,0.0,0.0,0.0,0.0,0.0,0.0,0.0,0.0,0.0,0.0,0.0,0.0,0.0,0.0,0.0,-4.5898,-4.5846,-4.5841,-4.5926,0.0,0.0,0.0,0.0,0.0,0.0,0.0,-4.0179,-3.9449,-3.8781,-3.7991,-3.8279,-3.9537,-4.0358,-4.062,-4.029,-3.7838,-3.8177,-4.0358,0.0,0.0,0.0,0.0,0.0,0.0,0.0,0.0,0.0,0.0,0.0,0.0,0.0,0.0,0.0,0.0,0.0,0.0,0.0,0.0,0.0,0.0,0.0,0.0,0.0,0.0,0.0,0.0,0.0,0.0,0.0,0.0,0.0,0.0,0.0,0.0,0.0,0.0,0.0,0.0,0.0,-3.8401,-3.7698,0.0,0.0,0.0,0.0,0.0,0.0,0.0,0.0,0.0,0.0,0.0,0.0,0.0,-4.5039,-4.5039,-4.866,-4.9541,-4.7731,-4.9935,-5.0782,-5.0248,-4.9461,-4.9094,-4.904,-4.7827,0.0,-4.387,-4.2426,0.0,0.0,0.0,0.0,0.0,0.0,0.0,0.0,0.0,0.0,0.0,0.0,0.0,0.0,0.0,0.0,0.0,0.0,0.0,0.0,0.0,-4.6118,-4.6956,-4.6491,-4.8361,-4.8848,-4.7065,0.0,0.0,0.0,0.0,0.0,-4.1151,-4.0432,-3.9785,-3.9158,-4.0834,-4.1526,-4.1365,-4.2963,-4.3504,-4.3031,-4.1771,-4.0967,-4.046,-3.8396,0.0,0.0,0.0,0.0,0.0,0.0,0.0,0.0,0.0,0.0,0.0,0.0,0.0,0.0,0.0,0.0,0.0,0.0,0.0,0.0,0.0,0.0,0.0,0.0,0.0,0.0,0.0,0.0,0.0,0.0,0.0,0.0,0.0,0.0,0.0,0.0,0.0,0.0,0.0,-3.9783,-4.058,-3.885,-4.0788,-4.1575,0.0,0.0,0.0,0.0,0.0,0.0,0.0,0.0,0.0,-4.6686,-4.7855,-4.8497,-4.8556,-5.0794,-5.1621,-5.1035,-5.258,-5.3408,-5.3482,-5.3136,-5.2989,-5.2952,-5.2564,-5.1002,-4.8485,-4.4931,-4.2612,-4.1196,0.0,0.0,0.0,0.0,-4.089,-4.1393,0.0,0.0,0.0,0.0,0.0,0.0,0.0,0.0,0.0,0.0,0.0,0.0,-4.5122,-4.6903,-4.8048,-4.8082,-5.0119,-5.0475,-4.8305,0.0,0.0,0.0,0.0,-4.141,-4.1197,-4.1046,-4.0909,-4.0881,-4.3889,-4.4814,-4.3775,-4.6041,-4.6616,-4.5703,-4.5935,-4.4451,-4.1685,-3.9986,-3.8768,-3.7835,0.0,0.0,0.0,0.0,0.0,0.0,0.0,0.0,0.0,0.0,0.0,0.0,0.0,0.0,0.0,0.0,0.0,0.0,0.0,0.0,0.0,0.0,0.0,0.0,0.0,0.0,0.0,0.0,0.0,0.0,0.0,0.0,0.0,0.0,0.0,0.0,0.0,-4.1046,-4.2247,-3.954,-4.2686,-4.3889,0.0,0.0,0.0,0.0,0.0,0.0,-4.5605,-4.7414,-4.9025,-5.0334,-5.1177,-5.171,-5.2013,-5.3041,-5.3739,-5.4121,-5.495,-5.5611,-5.6198,-5.5978,-5.5904,-5.5904,-5.5684,-5.4326,-5.1977,-4.7768,-4.493,-4.316,-4.2322,-4.1905,-4.1905,-4.2596,-4.3305,-4.4138,0.0,0.0,0.0,0.0,0.0,0.0,0.0,0.0,0.0,0.0,0.0,-4.4282,-4.6447,-4.7428,-4.8748,-5.0811,-4.9255,-4.8402,-4.9093,-4.5459,-4.309,-4.2568,-4.187,-4.1253,-4.0648,-4.1975,-4.321,-4.4338,-4.6641,-4.7695,-4.7669,-4.9898,-5.0168,-4.8815,-4.9492,-4.8545,-4.6177,-4.188,-4.0426,-4.0704,-3.7759,0.0,0.0,0.0,0.0,0.0,0.0,0.0,0.0,0.0,0.0,0.0,0.0,0.0,0.0,0.0,0.0,0.0,0.0,0.0,0.0,0.0,0.0,0.0,0.0,0.0,0.0,0.0,0.0,0.0,0.0,0.0,0.0,0.0,0.0,0.0,0.0,0.0,0.0,-3.8858,-4.345,0.0,0.0,0.0,0.0,-4.4327,-4.5788,-4.7434,-4.9085,-4.9268,-5.0481,-5.2947,-5.3812,-5.4583,-5.5376,-5.6895,-5.7336,-5.6638,-5.7446,-5.785,-5.785,-5.7079,-5.6748,-5.6712,-5.5941,-5.4656,-5.2983,-5.1185,-4.8979,-4.6555,-4.5769,-4.5345,-4.5193,-4.542,-4.5678,-4.5903,0.0,0.0,0.0,0.0,0.0,0.0,0.0,0.0,0.0,-4.3308,-4.4254,-4.5568,-4.7327,-4.9458,-5.1048,-5.186,-5.2536,-5.2029,-4.9924,-4.8288,-4.6247,-4.3614,-4.2718,-4.2253,-4.2142,-4.4233,-4.552,-4.6007,-4.8709,-4.9535,-4.8646,-4.9898,-4.9965,-4.9052,-4.9763,-4.912,-4.7327,-4.4282,-4.2286,-4.0933,-3.7932,-3.6503,0.0,0.0,0.0,0.0,0.0,0.0,0.0,0.0,0.0,0.0,0.0,0.0,0.0,0.0,0.0,0.0,0.0,0.0,0.0,0.0,0.0,0.0,0.0,0.0,0.0,0.0,0.0,0.0,0.0,0.0,0.0,0.0,0.0,0.0,0.0,0.0,0.0,-4.4783,-4.8294,0.0,-4.7995,-4.8201,-4.8424,-4.8424,-5.0021,-5.1234,-5.1804,-5.3806,-5.5089,-5.55,-5.6799,-5.7373,-5.7152,-5.7703,-5.785,-5.7593,-5.785,-5.7997,-5.7997,-5.7703,-5.7299,-5.6785,-5.6492,-5.5464,-5.3922,-5.3371,-5.1369,-4.8559,-4.7696,-4.7328,-4.7326,-4.799,-4.8587,-4.9097,0.0,0.0,0.0,0.0,0.0,0.0,0.0,0.0,0.0,-4.2557,-4.4215,-4.6075,-4.8071,-5.0676,-5.2604,-5.3382,-5.3687,-5.2739,-5.0236,-4.8294,-4.6131,-4.3597,-4.2861,-4.2817,-4.3528,-4.6069,-4.7552,-4.7902,-5.0385,-5.0834,-4.939,-5.0135,-4.9932,-4.9052,-4.9763,-4.9424,-4.8173,-4.6447,-4.4248,-4.1719,-3.9192,-3.8468,-3.852,0.0,0.0,0.0,0.0,0.0,0.0,0.0,0.0,0.0,0.0,0.0,0.0,0.0,0.0,0.0,0.0,0.0,0.0,0.0,0.0,0.0,0.0,0.0,0.0,0.0,0.0,0.0,0.0,0.0,0.0,0.0,0.0,0.0,0.0,0.0,-4.9285,-4.8928,-5.2343,-5.4012,-5.2294,-5.249,-5.2679,-5.2679,-5.4283,-5.5332,-5.5611,-5.7666,-5.8584,-5.8033,-5.8781,-5.8927,-5.84,-5.8143,-5.7997,-5.7997,-5.7997,-5.7997,-5.7997,-5.7997,-5.7703,-5.7189,-5.6932,-5.6051,-5.4766,-5.4509,-5.2968,-5.0765,-5.0178,-4.9958,-5.0031,-5.0582,-5.1132,-5.16,0.0,0.0,0.0,0.0,0.0,0.0,0.0,0.0,-4.1982,-4.1305,-4.32,-4.5771,-4.8714,-5.1048,-5.3281,-5.5547,-5.2266,-5.0101,-5.0135,-4.5258,-4.2373,-4.24,-4.2247,-4.2928,-4.471,-4.744,-4.9266,-5.0135,-5.1589,-5.1555,-5.0135,-5.0845,-5.0405,-4.9052,-4.9763,-4.9661,-4.8951,-4.824,-4.6249,-4.3443,-4.1748,-4.1572,-4.1854,0.0,0.0,0.0,0.0,0.0,0.0,0.0,0.0,0.0,0.0,0.0,0.0,0.0,0.0,0.0,0.0,0.0,0.0,0.0,0.0,0.0,0.0,0.0,0.0,0.0,0.0,0.0,0.0,0.0,0.0,0.0,0.0,0.0,-4.4857,-4.8862,-5.1627,-5.0848,-5.5096,-5.6799,-5.3573,-5.5493,-5.6932,-5.6932,-5.8377,-5.9588,-6.0382,-6.0419,-6.0419,-6.0382,-5.9588,-5.9184,-5.9148,-5.84,-5.7997,-5.7997,-5.7997,-5.7997,-5.7997,-5.7997,-5.7997,-5.7923,-5.7116,-5.6308,-5.55,-5.4693,-5.3922,-5.3203,-5.3203,-5.3203,-5.3203,-5.3203,-5.3203,-5.3082,0.0,0.0,0.0,0.0,0.0,0.0,0.0,-4.0925,-4.0798,-4.117,-4.4113,-4.709,-4.9526,-5.23,-5.4634,-5.6359,-5.257,-5.0338,-5.0879,-4.6374,-4.3922,-4.4456,-4.357,-4.4504,-4.7644,-4.9056,-5.0137,-5.0913,-5.186,-5.1826,-5.0913,-5.0574,-5.0168,-4.9763,-4.9458,-4.9187,-4.8984,-4.8781,-4.824,-4.7192,-4.399,-4.251,-4.1849,0.0,0.0,0.0,0.0,0.0,0.0,0.0,0.0,0.0,0.0,0.0,0.0,0.0,0.0,0.0,0.0,0.0,0.0,0.0,0.0,0.0,0.0,0.0,0.0,0.0,0.0,0.0,0.0,0.0,0.0,0.0,0.0,-4.8719,-4.9651,-5.2553,-5.5126,-5.6621,-5.8537,-5.9612,-5.9258,-5.9331,-5.9428,-5.9428,-6.0346,-6.0786,-6.0419,-6.0933,-6.075,-5.9551,-5.9294,-5.8914,-5.8327,-5.8107,-5.7997,-5.7997,-5.7997,-5.7997,-5.7997,-5.7997,-5.7666,-5.7079,-5.6271,-5.5464,-5.4656,-5.3849,-5.3387,-5.3203,-5.3203,-5.3203,-5.3203,-5.3203,-5.2872,-5.2381,0.0,0.0,0.0,0.0,0.0,0.0,0.0,-4.0206,-4.0146,-4.0257,-4.4079,-4.7394,-4.9018,-5.2131,-5.4228,-5.4465,-5.1488,-4.9289,-4.8477,-4.587,-4.4674,-4.542,-4.5917,-4.7533,-5.0282,-5.1149,-5.1893,-5.2611,-5.2428,-5.2097,-5.1657,-5.0574,-5.0236,-5.0541,-4.9796,-4.9458,-4.9458,-4.9458,-4.9289,-4.8815,-4.6616,-4.5612,-4.5081,-4.189,-4.123,-4.1749,-4.0101,-4.0161,-4.0684,-3.8663,0.0,0.0,0.0,0.0,0.0,0.0,0.0,0.0,0.0,0.0,0.0,0.0,0.0,0.0,0.0,0.0,0.0,0.0,0.0,0.0,0.0,0.0,0.0,0.0,-4.9838,-5.2773,-5.5082,-5.6373,-5.7886,-5.9979,-6.0933,-6.1594,-6.2071,-6.1704,-6.141,-6.141,-6.1851,-6.1887,-6.1447,-6.1851,-6.152,-6.0272,-5.9905,-5.9318,-5.851,-5.818,-5.7997,-5.7997,-5.7997,-5.7997,-5.7997,-5.7997,-5.774,-5.7262,-5.6455,-5.5647,-5.484,-5.4032,-5.3518,0.0,0.0,0.0,0.0,0.0,-5.2937,-5.2554,0.0,0.0,0.0,0.0,0.0,0.0,0.0,-3.9756,-3.9876,-3.9208,-4.3436,-4.6786,-4.7462,-5.0744,-5.2367,-5.105,-4.939,-4.7225,-4.4513,-4.4518,-4.5107,-4.6149,-4.8882,-5.1124,-5.274,-5.3427,-5.4066,-5.4726,-5.3259,-5.2565,-5.2531,-5.1044,-5.071,-5.1286,-5.0541,-5.0168,-5.0101,-5.0101,-4.9661,-4.9018,-4.9018,-4.9357,-4.939,-4.525,-4.4884,-4.6136,-4.3328,-4.2051,-4.162,-4.0617,0.0,0.0,0.0,0.0,0.0,0.0,0.0,0.0,0.0,0.0,0.0,0.0,0.0,0.0,0.0,0.0,0.0,0.0,0.0,0.0,0.0,0.0,0.0,0.0,-5.3696,-5.6969,-6.0089,-6.0015,-6.0162,-6.1557,-6.2365,-6.278,-6.278,-6.278,-6.278,-6.278,-6.278,-6.278,-6.278,0.0,0.0,0.0,0.0,-5.9795,-5.9074,-5.8364,-5.7997,-5.7997,-5.7997,-5.7997,-5.7997,-5.7997,-5.7997,-5.796,-5.7152,-5.6381,-5.5647,-5.4876,-5.4069,-5.3335,-5.3261,-5.3203,-5.3203,-5.3203,-5.3203,-5.3203,0.0,0.0,0.0,0.0,0.0,0.0,0.0,-4.0011,-4.0045,-3.991,-4.2888,-4.5089,-4.5196,-4.7496,-4.912,-4.9424,-4.6413,-4.4012,-4.2794,-4.444,-4.659,-4.9159,-5.0986,-5.2941,-5.504,-5.5182,-5.5354,-5.5495,-5.4618,-5.4181,-5.4115,-5.2592,-5.1961,-5.2063,-5.1319,-5.0676,-5.0101,-5.0101,-4.9661,-4.9018,-4.9018,-4.8748,-4.8173,-4.6688,-4.6012,-4.5742,-4.453,-4.5172,-4.6152,-4.3535,-4.3882,-4.496,-4.2498,0.0,0.0,0.0,0.0,0.0,0.0,0.0,0.0,0.0,0.0,0.0,0.0,0.0,0.0,0.0,0.0,0.0,0.0,0.0,0.0,-5.1998,-5.5346,-5.8437,-6.1006,-6.1814,-6.2193,-6.2548,-6.2732,-6.278,-6.278,-6.278,-6.278,-6.278,-6.278,-6.278,-6.278,-6.1594,-6.0786,-6.0639,-5.9208,-5.84,-5.8217,-5.807,-5.7997,-5.7997,0.0,0.0,-5.7997,-5.7997,-5.7997,-5.796,-5.7152,-5.6712,-5.6528,-5.5684,-5.4876,-5.4106,-5.3445,-5.3203,-5.3203,-5.3203,-5.3203,-5.3203,0.0,0.0,0.0,0.0,0.0,0.0,0.0,-3.9876,-3.9977,-3.9605,-4.2151,-4.4012,-4.4012,-4.5365,-4.6244,-4.621,-4.347,-4.2219,-4.3396,-4.5172,-4.77,-5.1083,-5.3054,-5.4947,-5.6831,-5.6479,-5.6313,-5.6313,-5.5179,-5.4606,-5.4572,-5.303,-5.2503,-5.2875,-5.2097,-5.1543,-5.1203,-5.1206,-5.0793,-5.0108,-5.0088,-4.9661,-4.8917,-4.8173,-4.7665,-4.7293,-4.6921,-4.7293,-4.7601,-4.5713,-4.5843,-4.6476,-4.4513,-4.2905,-4.1633,0.0,0.0,0.0,0.0,0.0,0.0,0.0,0.0,0.0,0.0,0.0,0.0,0.0,0.0,-4.4875,0.0,0.0,-5.2202,-5.5031,-5.7937,-6.0346,-6.1961,-6.2548,-6.278,-6.278,-6.278,-6.278,-6.278,-6.278,-6.278,-6.278,-6.278,-6.278,-6.278,-6.1667,-6.0823,-6.0419,-5.9245,-5.8621,-5.8621,-5.8217,-5.8217,-5.8621,-5.818,-5.7997,-5.7997,-5.7997,-5.7997,-5.796,-5.7593,-5.7189,-5.6748,-5.5941,-5.5133,-5.4363,-5.3959,-5.3555,-5.3203,-5.3203,-5.3203,-5.3203,0.0,0.0,0.0,0.0,0.0,0.0,0.0,0.0,0.0,-3.9156,-4.1204,-4.2699,-4.2557,-4.3098,-4.3234,-4.2625,-4.117,-4.1602,-4.4615,-4.6416,-4.9021,-5.2653,-5.4968,-5.6746,-5.796,-5.7425,-5.7116,-5.7116,-5.5731,-5.5059,-5.5029,-5.361,-5.3234,-5.3683,-5.3166,-5.2798,-5.2537,-5.2698,-5.2303,-5.1662,-5.163,-5.1213,-5.0461,-4.9881,-4.9294,-4.8781,-4.8612,-4.7902,-4.6959,-4.6515,-4.636,-4.6225,-4.5617,-4.4823,-4.3832,-4.2517,-4.1905,0.0,0.0,0.0,0.0,0.0,0.0,0.0,0.0,0.0,-4.2577,-4.4364,-4.6045,-4.7746,-4.9764,-5.2679,-5.5544,-5.7886,-6.0126,-6.1924,-6.2915,-6.2915,-6.278,-6.278,-6.278,-6.278,-6.278,-6.278,-6.278,-6.278,-6.278,-6.278,-6.278,-6.2034,-6.13,-6.0639,-5.9869,-5.9404,-5.9404,-5.8804,-5.8731,-5.9184,-5.8547,-5.8143,-5.7997,-5.7997,-5.7997,-5.7997,-5.7997,-5.7629,-5.6969,-5.6308,-5.5574,-5.484,-5.4693,-5.4142,-5.3408,-5.324,-5.3203,-5.3203,0.0,0.0,0.0,0.0,0.0,0.0,0.0,0.0,0.0,-3.9253,-3.9935,-4.0223,-3.9546,-3.958,-3.958,-3.9478,-4.046,-4.2354,-4.5399,-4.8225,-5.1189,-5.4248,-5.6514,-5.7817,-5.7997,-5.7927,-5.7904,-5.7904,-5.7065,-5.6642,-5.6616,-5.5737,-5.5014,-5.4513,-5.5073,-5.4583,-5.342,-5.4068,-5.3921,-5.3227,-5.3215,-5.2772,-5.204,-5.1934,-5.0326,-4.797,-4.7293,-4.5703,-4.3984,-4.4621,-4.4783,-4.4852,-4.5927,-4.5717,-4.4836,-4.3406,0.0,-3.9966,-3.833,-3.8777,-4.0019,-4.1323,-4.1686,-4.2905,0.0,0.0,-4.7779,-4.9605,-5.1238,-5.2449,-5.2726,-5.4818,-5.7093,-5.8781,-6.0493,-6.2144,-6.3723,-6.3282,-6.278,-6.278,-6.278,-6.278,-6.278,-6.278,-6.278,-6.278,-6.278,-6.278,-6.278,-6.2034,-6.1557,-6.1484,-6.0676,-6.0272,-6.0272,-6.0199,-5.9832,-5.9184,-5.9111,-5.8694,-5.7997,-5.7997,-5.7997,-5.7997,-5.7997,-5.796,-5.785,-5.7776,-5.7262,-5.6455,-5.5721,-5.495,-5.4179,-5.3482,-5.3203,-5.3203,0.0,0.0,0.0,0.0,0.0,0.0,0.0,0.0,0.0,0.0,0.0,-3.9343,-3.9039,-3.8633,-3.8362,-3.8362,-3.9309,-4.1576,-4.5466,-4.7677,-5.0576,-5.4434,-5.6366,-5.7546,-5.7997,-5.7997,-5.7997,-5.7997,-5.7277,-5.6912,-5.6887,-5.6059,-5.5552,-5.5262,-5.5581,-5.5355,-5.4792,-5.5107,-5.5079,-5.4783,-5.4811,-5.4052,-5.2821,-5.1909,-4.9644,-4.701,-4.679,-4.5352,0.0,0.0,-4.4104,-4.4757,-4.5876,-4.5307,-4.41,-4.3319,-4.1887,0.0,-4.0398,-4.0271,0.0,0.0,-4.3798,-4.5513,-4.8173,-4.9139,-5.0012,-5.1825,-5.3482,-5.473,-5.5207,-5.7262,-5.9134,0.0,-6.1667,-6.3099,-6.3319,-6.3025,-6.2658,-6.2144,-6.1704,-6.1594,-6.2071,-6.2548,-6.278,-6.278,-6.278,-6.278,-6.278,-6.2034,-6.1594,-6.1594,-6.0823,-6.0639,-6.108,-6.0639,-6.0236,-5.9905,-5.9404,-5.8804,-5.7997,-5.7997,-5.7997,-5.7997,-5.7997,-5.7997,-5.7997,-5.7997,-5.7262,-5.6051,-5.5721,-5.4803,-5.3665,-5.3314,-5.3203,-5.3203,0.0,0.0,0.0,0.0,0.0,0.0,0.0,0.0,0.0,0.0,0.0,0.0,0.0,-3.7584,-3.7347,-3.7584,-3.8464,-4.0705,-4.4735,-4.7018,-4.9996,-5.4038,-5.5934,-5.7231,-5.7997,-5.7997,-5.7997,-5.7997,-5.7449,-5.7191,-5.7166,-5.6606,-5.6223,-5.6031,-5.625,-5.6204,-5.6057,-5.6249,-5.6227,-5.6018,-5.5979,-5.4802,-5.287,-5.1486,-4.8865,-4.5873,-4.5404,-4.3766,0.0,0.0,-4.1858,-4.2683,-4.3754,-4.3492,-4.2671,-4.2177,-4.087,-3.9833,-4.0825,0.0,0.0,-4.3524,-4.601,-4.826,-4.9345,-5.079,-5.2364,-5.3901,-5.5133,-5.6161,-5.6969,-5.8547,-5.9979,-6.0639,-6.2438,-6.3686,-6.3503,-6.3099,-6.2511,-6.1704,-6.0896,-6.0529,-6.0896,-6.1887,-6.2585,-6.278,-6.278,-6.278,-6.278,-6.2254,-6.1924,-6.1924,-6.1374,-6.1337,-6.1924,-6.1374,-6.097,-6.0713,-5.9942,-5.9134,-5.8327,-5.8107,-5.7997,-5.7997,-5.7997,-5.7997,-5.7997,-5.7997,-5.7299,-5.6235,-5.6014,-5.5207,-5.4121,-5.3702,-5.3408,-5.3203,0.0,0.0,0.0,0.0,0.0,0.0,0.0,0.0,0.0,0.0,0.0,0.0,0.0,0.0,-3.5971,-3.6761,-3.8159,-4.0226,-4.3084,-4.6878,-5.0245,-5.3135,-5.5541,-5.7166,-5.7997,-5.7997,-5.7997,-5.7997,-5.7973,-5.7973,-5.7973,-5.795,-5.7546,-5.6912,-5.7594,-5.7522,-5.6902,-5.7618,-5.7474,-5.6777,-5.6754,-5.4847,-5.1972,-5.1108,-4.8246,-4.4399,-4.2378,0.0,0.0,0.0,-3.6871,-3.711,-3.8563,-3.9914,0.0,-3.9659,-3.8059,0.0,0.0,0.0,-4.2486,-4.5021,-4.819,-5.1096,-5.269,-5.4289,-5.5684,-5.6528,-5.6748,-5.7005,-5.7813,-5.8033,-5.8841,-6.119,-6.2291,-6.3429,-6.5007,-6.3807,-6.2511,-6.1704,-6.0896,-6.0126,0.0,-6.0713,-6.1961,-6.2743,-6.278,-6.278,-6.278,-6.278,-6.2768,-6.2768,-6.2743,-6.2743,-6.2768,-6.2743,-6.2365,-6.1557,-6.075,-5.9942,-5.9148,-5.8364,-5.7997,-5.7997,-5.7997,-5.7997,-5.7997,-5.7997,-5.796,-5.785,-5.7079,-5.6748,-5.6492,-5.495,-5.3885,-5.3203,0.0,0.0,0.0,0.0,0.0,0.0,0.0,0.0,0.0,0.0,0.0,0.0,0.0,0.0,0.0,0.0,0.0,0.0,-4.2881,-4.5292,-4.7617,-4.9932,-5.2842,-5.4546,-5.4803,-5.5868,-5.6381,-5.6381,-5.6381,-5.6381,-5.6381,-5.6381,-5.6269,-5.6048,-5.6291,-5.6562,-5.6815,-5.6511,-5.6235,-5.5904,-5.484,-5.3115,-5.0949,-4.8412,-4.5627,-4.2627,0.0,0.0,0.0,0.0,0.0,0.0,-3.7393,0.0,0.0,-3.7067,0.0,0.0,0.0,0.0,-4.4491,-4.8153,-5.0762,-5.2968,-5.5097,-5.6014,-5.6455,-5.6748,-5.5456,-5.4349,-5.4642,-5.5119,-5.6108,-5.805,-6.0848,-6.3,-6.3576,-6.4127,-6.3576,-6.1117,-6.0566,0.0,0.0,0.0,0.0,-6.1924,-6.1998,-6.2254,-6.2743,-6.278,-6.278,-6.278,-6.278,-6.278,-6.278,-6.278,-6.2401,-6.1557,-6.0236,-5.9208,-5.84,-5.8107,-5.7997,-5.7997,-5.7997,-5.7997,-5.7997,-5.7997,-5.7703,-5.7189,-5.6932,-5.6455,-5.5941,-5.539,-5.4693,-5.3922,0.0,0.0,0.0,0.0,0.0,0.0,0.0,0.0,0.0,0.0,0.0,0.0,0.0,0.0,0.0,0.0,0.0,0.0,0.0,-4.2984,-4.504,-4.709,-4.9862,-5.1674,-5.2244,-5.3271,-5.3717,-5.3466,-5.3739,-5.3739,-5.3466,-5.3739,-5.3885,-5.3885,-5.3885,-5.4326,-5.5023,-5.4216,-5.3702,-5.3356,-5.1977,-5.0121,-4.7882,-4.5443,-4.3157,0.0,0.0,0.0,0.0,0.0,0.0,0.0,0.0,0.0,0.0,0.0,0.0,0.0,0.0,-4.4985,-4.7273,-5.1479,-5.3518,-5.4913,-5.6455,-5.6822,-5.6565,-5.5684,-5.3711,-5.2145,-5.2123,-5.2087,-5.2892,-5.5373,-5.8247,-6.0677,-6.2143,-6.3023,-6.3085,-6.1851,-6.119,-6.075,0.0,0.0,0.0,-6.1557,-6.2144,-6.2732,-6.3246,-6.3282,-6.3282,-6.3282,-6.2989,-6.278,-6.278,-6.278,-6.2401,-6.1594,-6.0566,-5.9501,-5.8437,-5.8437,-5.8253,-5.7997,-5.7997,-5.7997,-5.7997,-5.7997,-5.7703,-5.7226,-5.7226,-5.6895,-5.6418,-5.6124,-5.5684,-5.5097,0.0,0.0,0.0,0.0,0.0,0.0,0.0,0.0,0.0,0.0,0.0,0.0,0.0,0.0,0.0,0.0,0.0,0.0,0.0,-4.0186,-4.259,-4.4653,-4.6795,-4.8656,-5.0236,-5.0419,-5.0188,-4.9537,-5.0251,-5.0215,-4.95,-5.0215,-5.0545,-5.0545,-5.0545,-5.0986,-5.1683,-5.0875,-5.0105,-4.9353,-4.8416,-4.6122,-4.3192,-4.2387,0.0,0.0,0.0,0.0,0.0,0.0,0.0,0.0,0.0,0.0,0.0,0.0,0.0,-4.1851,-4.6046,-4.8393,-5.0611,-5.4656,-5.6198,-5.6748,-5.6748,-5.6638,-5.5904,-5.3497,-5.16,-5.033,0.0,0.0,-4.9468,-5.3346,-5.4875,-5.6992,-6.0982,-6.1018,-6.1471,0.0,0.0,0.0,0.0,0.0,0.0,-6.1777,0.0,-6.4053,-6.4163,-6.4163,-6.4163,-6.4163,-6.3356,-6.289,-6.2879,-6.2817,-6.2401,-6.1594,-6.1594,-6.0786,-5.9258,-5.9221,-5.8804,-5.807,-5.8033,-5.7997,-5.7997,-5.7997,-5.7997,-5.7997,-5.7997,-5.7997,-5.7923,-5.7152,-5.6859,-5.6602,0.0,0.0,0.0,0.0,0.0,0.0,0.0,0.0,0.0,0.0,0.0,0.0,0.0,0.0,0.0,0.0,0.0,0.0,0.0,-3.9399,-4.039,0.0,0.0,0.0,0.0,0.0,0.0,-4.8636,-4.8213,-4.792,-4.7755,-4.7352,-4.7131,-4.7131,-4.7131,-4.7609,-4.8287,-4.7498,-4.7021,-4.6728,0.0,-4.3463,-4.1525,0.0,0.0,0.0,0.0,0.0,0.0,0.0,0.0,0.0,0.0,0.0,-3.8935,0.0,0.0,-4.5991,-4.8902,-5.1344,-5.368,-5.5941,-5.6198,-5.5904,-5.5904,-5.4509,-5.269,-5.0758,-4.8533,-4.6681,0.0,0.0,0.0,-5.1886,-5.5637,0.0,-6.2058,-6.3892,0.0,-6.4163,0.0,-6.42,-6.3796,-6.3576,0.0,0.0,-6.3613,-6.3686,-6.4934,-6.5007,-6.5007,-6.5007,-6.4787,-6.4383,-6.3759,-6.3135,-6.2401,-6.1594,-6.1594,-6.108,-6.0089,-5.9478,-5.9074,-5.8854,-5.8253,-5.7997,-5.7997,-5.7997,-5.7997,-5.7997,-5.7997,-5.7997,-5.796,-5.7776,-5.7299,-5.6748,0.0,0.0,0.0,0.0,0.0,0.0,0.0,0.0,0.0,0.0,0.0,0.0,0.0,0.0,0.0,0.0,0.0,0.0,0.0,0.0,-3.8581,0.0,0.0,0.0,0.0,0.0,0.0,0.0,0.0,0.0,-4.3938,-4.3828,-4.3791,-4.3791,-4.3791,-4.4214,-4.4912,-4.4104,0.0,0.0,0.0,0.0,0.0,0.0,0.0,0.0,0.0,0.0,0.0,0.0,0.0,-3.7223,-3.8433,-4.0201,-4.2191,-4.42,0.0,-4.9198,-5.2024,-5.4099,-5.5757,-5.7005,-5.6712,-5.5757,-5.4283,-5.2632,-5.0501,-4.7382,-4.555,0.0,0.0,0.0,0.0,0.0,0.0,0.0,-6.119,-6.3207,-6.4662,0.0,-6.6072,0.0,-6.6219,-6.5888,-6.5999,0.0,-6.5375,-6.4824,-6.5778,-6.5852,-6.5852,-6.5852,-6.5485,-6.4897,-6.409,-6.3613,-6.2952,-6.2144,-6.2144,-6.1704,-6.0896,-6.0456,-5.9869,-5.9148,0.0,-5.8327,-5.7997,-5.7997,-5.7997,-5.7997,-5.7997,-5.7997,-5.7997,-5.7997,-5.7703,-5.7336,0.0,0.0,0.0,0.0,0.0,0.0,0.0,0.0,0.0,0.0,0.0,0.0,0.0,0.0,0.0,0.0,0.0,0.0,0.0,0.0,0.0,0.0,0.0,0.0,0.0,0.0,0.0,0.0,0.0,0.0,0.0,0.0,0.0,0.0,0.0,0.0,0.0,0.0,0.0,0.0,0.0,0.0,0.0,0.0,0.0,0.0,0.0,0.0,0.0,0.0,-3.8798,-3.9362,-4.1039,-4.3304,-4.5772,-4.8043,-4.9931,-5.193,-5.495,-5.6345,-5.7152,-5.7813,-5.7226,-5.5625,-5.2364,-5.0769,-4.8626,-4.3908,0.0,-4.2577,-4.1851,0.0,-4.5238,-4.7818,0.0,-5.4891,-5.9785,-6.1263,-6.3291,-6.7247,-6.7687,-6.8054,-6.8972,-6.8238,-6.8054,-6.9009,-6.7577,-6.6659,-6.6659,-6.6659,-6.6659,-6.6659,-6.5888,-6.5118,-6.442,-6.431,-6.387,-6.311,-6.3025,-6.2622,-6.1924,-6.1704,-6.086,-5.9515,-5.9404,0.0,-5.8327,-5.8217,-5.8143,-5.8143,-5.8033,-5.7997,-5.7997,-5.7997,-5.7997,-5.7997,0.0,0.0,0.0,0.0,0.0,0.0,0.0,0.0,0.0,0.0,-3.6096,-3.56,0.0,0.0,0.0,0.0,0.0,0.0,0.0,0.0,0.0,0.0,0.0,0.0,0.0,0.0,0.0,0.0,0.0,0.0,0.0,0.0,0.0,0.0,0.0,0.0,0.0,0.0,0.0,0.0,0.0,0.0,0.0,0.0,0.0,0.0,0.0,0.0,0.0,0.0,-4.0819,-4.2844,-4.4509,-4.7167,-4.9918,-5.1002,-5.2947,-5.5023,-5.6271,-5.7189,-5.7813,-5.796,-5.6381,-5.4121,-5.1433,-4.8646,0.0,0.0,0.0,-4.1051,-4.0781,-4.2741,0.0,-4.9435,0.0,0.0,0.0,0.0,-6.4677,0.0,0.0,0.0,0.0,0.0,0.0,0.0,0.0,-6.7467,-6.7467,-6.7467,-6.7467,-6.7467,-6.6696,-6.6219,-6.6072,-6.5411,-6.5044,-6.4861,-6.42,-6.3796,-6.3613,-6.2218,-6.1447,-6.1153,-6.0493,0.0,-5.9942,-5.9281,-5.8964,-5.8927,-5.8253,-5.7997,-5.7997,-5.7997,-5.7997,-5.7997,0.0,0.0,0.0,0.0,0.0,0.0,0.0,-3.6468,-3.6502,-3.728,-3.6705,-3.6231,-3.6231,-3.5836,0.0,0.0,0.0,0.0,0.0,0.0,0.0,0.0,0.0,0.0,0.0,0.0,0.0,0.0,0.0,0.0,0.0,0.0,0.0,0.0,0.0,0.0,0.0,0.0,0.0,0.0,0.0,0.0,0.0,0.0,0.0,0.0,0.0,0.0,0.0,0.0,-4.1241,-4.4399,-4.6489,-4.9114,-5.1646,-5.2894,-5.4363,-5.589,-5.7079,-5.7703,-5.7997,-5.7997,-5.5868,-5.2999,-4.998,0.0,0.0,0.0,-4.0055,-4.0599,-4.0599,0.0,0.0,0.0,0.0,0.0,0.0,0.0,0.0,0.0,0.0,0.0,0.0,0.0,0.0,0.0,0.0,-6.8311,-6.8311,-6.7907,-6.7687,-6.7687,-6.732,-6.6916,-6.6512,-6.6109,-6.5705,-6.5301,-6.4494,-6.409,-6.4053,-6.2805,-6.1998,-6.1557,-6.119,0.0,-6.0382,-5.9979,-5.9808,-5.9795,-5.9391,-5.8988,-5.8621,-5.8621,-5.8364,-5.7997,0.0,0.0,0.0,0.0,0.0,0.0,0.0,-3.7178,-3.7134,-3.8024,-3.7483,-3.7032,-3.7032,-3.6332,-3.5769,0.0,0.0,0.0,0.0,0.0,0.0,0.0,0.0,0.0,0.0,0.0,0.0,0.0,0.0,0.0,0.0,0.0,0.0,0.0,0.0,0.0,0.0,0.0,0.0,0.0,0.0,0.0,0.0,0.0,0.0,0.0,0.0,0.0,0.0,0.0,-4.0696,-4.3705,-4.6195,-4.9057,-5.1699,-5.2947,-5.4268,-5.5662,-5.7299,-5.7886,-5.7997,-5.7997,-5.5464,-5.2082,-4.8859,-4.5459,0.0,0.0,-3.9314,-4.0364,-4.0669,0.0,0.0,0.0,0.0,0.0,0.0,0.0,0.0,0.0,0.0,0.0,0.0,0.0,0.0,0.0,0.0,0.0,-6.8898,-6.8311,-6.7871,-6.7714,-6.7687,-6.7393,-6.6769,-6.6769,-6.6439,-6.5815,-6.5007,-6.453,-6.431,-6.3466,-6.2622,-6.1851,-6.1851,0.0,0.0,-6.075,-6.0676,-6.0639,-6.0456,-5.9905,-5.9184,-5.9184,-5.8694,-5.7997,0.0,0.0,0.0,0.0,0.0,0.0,0.0,-3.6829,-3.7303,-3.87,-3.8261,-3.7821,-3.7821,-3.7144,-3.64,0.0,0.0,0.0,0.0,0.0,0.0,0.0,0.0,0.0,0.0,0.0,0.0,0.0,0.0,0.0,0.0,0.0,0.0,0.0,0.0,0.0,0.0,0.0,0.0,0.0,0.0,0.0,0.0,0.0,0.0,0.0,0.0,0.0,0.0,0.0,0.0,-3.9398,-4.1984,-4.592,-4.9655,-4.9821,0.0,0.0,-5.6432,-5.7446,-5.7997,-5.7997,-5.5023,-5.1422,-4.8713,0.0,0.0,-3.8749,-3.893,-3.9816,-4.056,-4.1594,-4.336,0.0,0.0,0.0,0.0,0.0,0.0,0.0,0.0,0.0,0.0,0.0,0.0,0.0,0.0,0.0,-6.8935,-6.8825,-6.8458,-6.7724,-6.7687,-6.765,-6.7577,-6.7577,-6.754,-6.7467,-6.6659,-6.5888,-6.5154,-6.4347,-6.3503,-6.2695,-6.2695,0.0,0.0,-6.1777,-6.1484,-6.141,-6.0676,-5.9905,-5.9184,-5.9184,-5.8694,-5.7997,0.0,0.0,0.0,0.0,0.0,0.0,-3.7381,-3.71,-3.7168,-3.8193,-3.8091,-3.7922,-3.7922,-3.7652,-3.6975,0.0,0.0,0.0,0.0,0.0,0.0,0.0,0.0,0.0,0.0,0.0,0.0,0.0,0.0,0.0,0.0,0.0,0.0,0.0,0.0,0.0,0.0,0.0,0.0,0.0,0.0,0.0,0.0,0.0,0.0,0.0,0.0,0.0,0.0,0.0,0.0,0.0,-3.727,-3.9932,0.0,0.0,-5.0204,-5.3228,-5.5478,-5.7005,-5.7997,-5.7997,-5.4539,-5.0607,-4.8583,0.0,0.0,-3.924,-3.9671,-4.052,-4.1339,-4.2229,-4.345,0.0,0.0,0.0,0.0,0.0,0.0,0.0,0.0,0.0,0.0,0.0,0.0,0.0,0.0,0.0,-7.0367,-6.8972,-6.8238,-6.8421,-6.7944,-6.7687,-6.7687,-6.7687,-6.7687,-6.7677,-6.6402,-6.5852,-6.5999,-6.4677,-6.3906,-6.3576,-6.3576,0.0,0.0,-6.2475,-6.2328,-6.2291,-6.1961,-6.108,-5.9942,-5.9942,-5.9098,-5.7997,0.0,0.0,0.0,0.0,0.0,-3.6998,-3.7483,-3.7134,-3.7043,-3.7821,-3.7922,-3.799,-3.8193,-3.8024,-3.755,-3.6681,0.0,0.0,0.0,0.0,0.0,0.0,0.0,0.0,0.0,0.0,0.0,-3.8168,0.0,0.0,0.0,0.0,0.0,0.0,0.0,0.0,0.0,0.0,0.0,0.0,0.0,0.0,0.0,0.0,0.0,0.0,0.0,0.0,0.0,0.0,0.0,0.0,0.0,0.0,0.0,0.0,-4.7602,-5.1245,-5.3784,-5.6029,-5.7666,-5.7666,-5.3909,-4.9834,0.0,0.0,-4.0173,-3.924,-3.9962,-4.0955,-4.1537,-4.2592,-4.3541,0.0,0.0,0.0,0.0,0.0,0.0,0.0,0.0,0.0,0.0,0.0,0.0,0.0,0.0,0.0,-7.1651,-6.9376,-6.8311,-6.8898,-6.8128,-6.7687,-6.7687,-6.7687,-6.7687,-6.7687,-6.6549,-6.6182,-6.6439,-6.5081,-6.431,-6.409,-6.3833,0.0,0.0,-6.278,-6.278,-6.278,-6.2548,-6.1741,-6.0713,-6.0236,-5.9318,-5.8327,0.0,0.0,0.0,0.0,0.0,0.0,-3.6829,-3.6795,-3.7043,-3.7821,-3.7922,-3.8193,-3.8903,-3.8328,-3.8193,-3.8903,0.0,0.0,0.0,0.0,0.0,0.0,0.0,0.0,0.0,0.0,-3.8512,-3.8996,-4.0111,-4.0355,0.0,0.0,0.0,0.0,0.0,0.0,0.0,0.0,0.0,0.0,0.0,0.0,0.0,0.0,0.0,0.0,0.0,0.0,0.0,0.0,0.0,0.0,0.0,0.0,0.0,0.0,-4.3634,-4.8693,-5.1188,-5.4276,-5.6822,-5.6822,-5.3066,-4.8956,0.0,0.0,-3.9336,-3.8405,-3.9528,-4.0704,-4.0808,-4.212,-4.3286,-4.348,0.0,0.0,0.0,0.0,0.0,0.0,0.0,0.0,0.0,0.0,0.0,0.0,0.0,0.0,-7.2459,-7.022,-6.8898,-6.8898,-6.8128,-6.7687,-6.7687,-6.7687,-6.7687,-6.7687,-6.7677,-6.7247,-6.6476,-6.5668,-6.4861,0.0,0.0,0.0,0.0,-6.278,-6.278,-6.2707,-6.1924,-6.1594,-6.1374,-5.9795,-5.9184,-5.9074,0.0,0.0,0.0,0.0,0.0,0.0,0.0,-3.5994,-3.6062,-3.6276,-3.6806,-3.7415,-3.8159,-3.7584,-3.7652,-3.887,0.0,0.0,0.0,0.0,0.0,0.0,0.0,0.0,0.0,0.0,-3.793,-3.8124,-3.9826,-4.079,-4.0997,-4.0944,0.0,0.0,0.0,0.0,0.0,0.0,0.0,0.0,0.0,0.0,0.0,0.0,0.0,0.0,0.0,0.0,0.0,0.0,0.0,0.0,0.0,0.0,0.0,0.0,0.0,0.0,-4.7163,-4.9292,-5.0965,-5.0925,-4.8846,-4.6353,-4.4691,0.0,-4.0268,-3.9962,-4.0428,-4.1241,-4.2372,-4.3046,-4.3611,-4.4214,0.0,0.0,0.0,0.0,0.0,0.0,0.0,0.0,0.0,0.0,0.0,0.0,0.0,0.0,-7.0881,-6.9633,-6.9155,-6.9706,-6.8385,-6.7687,-6.7687,-6.7687,-6.7687,-6.7687,-6.7136,-6.6733,-6.6476,-6.5668,-6.4861,0.0,0.0,0.0,0.0,-6.278,-6.2475,-6.1961,-6.1704,-6.0933,-5.9905,-5.9368,-5.8877,-5.8327,0.0,0.0,0.0,0.0,0.0,0.0,0.0,-3.56,-3.56,-3.56,-3.6062,-3.684,-3.8159,-3.7405,-3.7506,-3.9276,0.0,0.0,0.0,0.0,0.0,0.0,0.0,0.0,-3.5812,-3.6978,-3.7935,-3.862,-4.0306,-4.138,-4.1743,-4.1704,-4.1176,-4.0266,-3.9806,0.0,0.0,0.0,0.0,0.0,0.0,0.0,-3.832,0.0,0.0,0.0,0.0,0.0,0.0,0.0,0.0,0.0,0.0,0.0,0.0,0.0,0.0,0.0,0.0,-4.6449,-4.819,-4.8187,-4.6628,0.0,0.0,0.0,-4.0199,-4.0233,-4.0846,-4.1679,-4.2736,-4.3227,-4.3646,-4.4158,0.0,0.0,0.0,0.0,0.0,0.0,0.0,0.0,0.0,0.0,0.0,0.0,0.0,0.0,-7.055,-6.9522,-6.9119,-6.9633,-6.8385,-6.7687,-6.7687,-6.7687,-6.7687,-6.7687,-6.7173,-6.6769,-6.6476,-6.5668,-6.4861,0.0,0.0,0.0,0.0,-6.278,-6.2511,-6.2034,-6.1704,-6.1006,-6.0052,-5.9404,-5.8854,-5.84,0.0,0.0,0.0,0.0,0.0,0.0,0.0,0.0,-3.56,-3.56,-3.56,-3.6411,-3.8599,-3.7574,-3.755,-3.9656,0.0,0.0,0.0,0.0,0.0,0.0,0.0,0.0,-3.579,-3.6956,-3.8365,-3.9956,-4.1235,-4.1895,-4.2072,-4.2087,-4.1069,-3.9229,-3.9337,-3.9094,-3.8601,-3.8512,-3.8444,-3.8417,-3.8303,-3.8257,0.0,0.0,0.0,0.0,0.0,0.0,0.0,0.0,0.0,0.0,0.0,0.0,0.0,0.0,0.0,0.0,0.0,0.0,0.0,0.0,0.0,0.0,0.0,0.0,0.0,-3.9579,-4.0832,-4.1995,-4.2316,-4.2973,-4.3539,-4.37,0.0,0.0,0.0,0.0,0.0,0.0,0.0,0.0,0.0,0.0,0.0,0.0,0.0,0.0,-7.0999,-6.9633,-6.8825,-6.8825,-6.8091,-6.7687,-6.7687,-6.7687,-6.7687,-6.7687,-6.7687,-6.7247,-6.6402,-6.5632,-6.4824,0.0,0.0,0.0,0.0,-6.278,-6.2743,-6.2658,-6.1887,-6.152,-6.1263,-5.9758,-5.9148,-5.9001,0.0,0.0,0.0,0.0,0.0,0.0,0.0,0.0,0.0,0.0,-3.56,-3.6062,-3.7202,-3.6468,-3.6332,0.0,0.0,0.0,0.0,0.0,0.0,0.0,0.0,0.0,-3.5644,-3.6705,-3.7705,-3.8746,-4.0354,-4.1614,-4.2537,-4.3112,-4.2326,-4.0519,-4.1497,-4.1016,-3.9426,-3.872,-3.8428,-3.8444,-3.8307,-3.829,0.0,0.0,0.0,0.0,-3.8352,-3.8234,0.0,0.0,0.0,0.0,0.0,0.0,0.0,0.0,-3.7591,0.0,-3.9892,0.0,-4.161,-4.1522,-4.2014,0.0,0.0,0.0,0.0,0.0,0.0,0.0,0.0,0.0,0.0,0.0,0.0,0.0,0.0,0.0,0.0,0.0,0.0,0.0,0.0,0.0,0.0,0.0,0.0,-6.9633,-6.8605,-6.8164,-6.7981,-6.7981,-6.7797,-6.7687,-6.7687,-6.7687,-6.7687,-6.7687,-6.7687,-6.6953,-6.5595,-6.5411,-6.4494,0.0,0.0,0.0,-6.278,-6.278,-6.2438,-6.1851,-6.1667,-6.086,-5.9722,-5.9331,-5.8804,-5.8253,0.0,0.0,0.0,0.0,0.0,0.0,0.0,0.0,0.0,0.0,0.0,0.0,0.0,0.0,0.0,0.0,0.0,0.0,0.0,0.0,0.0,0.0,0.0,-3.5689,-3.5689,-3.6341,-3.7569,-3.9384,-4.0421,-4.1797,-4.3461,-4.3663,-4.2924,-4.139,-4.1243,-4.0652,-3.9784,-3.8614,-3.8267,-3.846,-3.829,0.0,0.0,0.0,0.0,0.0,-3.83,-3.8251,0.0,-3.8224,-3.8224,-3.8118,0.0,0.0,0.0,0.0,-3.7865,-3.8372,-3.9188,-3.9692,-4.0071,-4.0418,-4.118,-4.1452,0.0,0.0,0.0,0.0,0.0,0.0,0.0,0.0,0.0,0.0,0.0,0.0,0.0,0.0,0.0,0.0,0.0,0.0,0.0,0.0,0.0,0.0,0.0,-6.8788,-6.8274,-6.7907,-6.7687,-6.7687,-6.732,-6.732,-6.7687,-6.732,-6.732,-6.7687,-6.732,-6.6512,-6.5301,-6.5301,-6.4383,0.0,0.0,0.0,-6.278,-6.278,-6.2548,-6.2144,-6.2144,-6.119,-5.9758,-5.9758,-5.9024,-5.7997,0.0,0.0,0.0,0.0,0.0,0.0,0.0,0.0,0.0,0.0,0.0,0.0,0.0,0.0,0.0,0.0,0.0,0.0,0.0,0.0,0.0,0.0,-3.5689,-3.5824,-3.596,-3.6122,-3.7568,-4.0518,-4.0868,-4.2137,-4.4138,-4.4014,-4.3302,-4.2115,-4.0286,-3.9765,-4.013,-3.8843,-3.8442,-3.8695,-3.8505,0.0,0.0,0.0,0.0,0.0,0.0,0.0,0.0,-3.8307,-3.8241,-3.8191,-3.8191,0.0,0.0,0.0,0.0,0.0,-3.9297,-4.0147,-4.0872,-4.1524,-4.1777,-4.1669,-4.0872,0.0,0.0,0.0,0.0,0.0,0.0,0.0,0.0,0.0,0.0,0.0,0.0,0.0,0.0,0.0,0.0,0.0,0.0,0.0,0.0,0.0,0.0,-6.8128,-6.8678,-6.8054,-6.7614,-6.7504,-6.6843,-6.6769,-6.732,-6.6659,-6.6659,-6.732,-6.6623,-6.5888,-6.5118,-6.5118,-6.4273,-6.278,0.0,0.0,-6.278,-6.278,-6.278,-6.2805,-6.2658,-6.1704,-6.0382,-6.0272,-5.9281,-5.7997,0.0,0.0,0.0,0.0,0.0,0.0,0.0,0.0,0.0,0.0,0.0,0.0,0.0,0.0,0.0,0.0,0.0,0.0,0.0,0.0,0.0,-3.56,-3.5622,-3.5949,-3.6649,-3.6229,-3.7182,-3.9611,-4.112,-4.2378,-4.3379,-4.4578,-4.437,-4.2931,-4.141,-4.1085,-4.1625,-4.0842,-4.0162,-3.9573,-3.9422,0.0,0.0,0.0,0.0,0.0,0.0,0.0,0.0,-3.8157,-3.8191,-3.8191,-3.8191,0.0,0.0,0.0,0.0,0.0,-3.9948,-4.0998,-4.1705,-4.1705,-4.223,-4.252,-4.1705,0.0,0.0,0.0,0.0,0.0,0.0,0.0,0.0,0.0,0.0,0.0,0.0,0.0,0.0,0.0,0.0,0.0,0.0,0.0,0.0,0.0,0.0,-6.8458,-6.7907,-6.776,-6.7393,-6.6696,-6.6549,-6.6219,-6.5668,-6.5558,-6.5558,-6.5668,-6.5558,-6.5081,-6.4273,-6.4273,-6.3723,-6.278,0.0,-6.278,-6.278,-6.278,-6.278,-6.2732,-6.2034,-6.1227,-6.0309,-5.9625,-5.8804,-5.7997,0.0,0.0,0.0,0.0,0.0,0.0,0.0,0.0,0.0,0.0,0.0,0.0,0.0,0.0,0.0,0.0,0.0,0.0,0.0,0.0,-3.5971,-3.6783,-3.6039,-3.5983,-3.6831,-3.7581,-3.9054,-4.1327,-4.3012,-4.4251,-4.5036,-4.4662,-4.3898,-4.2813,-4.1492,-4.1332,-4.2044,-4.0996,-4.0538,-4.048,0.0,0.0,0.0,0.0,0.0,0.0,0.0,0.0,0.0,0.0,-3.8224,-3.8191,-3.8241,0.0,0.0,0.0,0.0,0.0,-4.0309,-4.118,-4.1905,-4.2341,-4.3086,-4.3377,0.0,0.0,0.0,0.0,0.0,0.0,0.0,0.0,0.0,0.0,0.0,0.0,0.0,0.0,0.0,0.0,0.0,0.0,0.0,0.0,0.0,0.0,0.0,0.0,-6.7063,-6.6623,-6.6219,-6.5852,-6.5411,-6.5007,-6.464,-6.42,-6.4395,-6.5301,-6.4861,-6.4457,-6.409,-6.409,-6.3613,-6.278,0.0,-6.278,-6.2743,-6.2328,-6.2401,-6.2695,-6.1447,-6.075,-6.0272,-5.9024,-5.8327,-5.7997,0.0,0.0,0.0,0.0,0.0,0.0,0.0,0.0,0.0,0.0,0.0,0.0,0.0,0.0,0.0,0.0,0.0,0.0,0.0,0.0,-3.614,-3.729,-3.6411,-3.6514,-3.7872,-3.8777,-4.0504,-4.3143,-4.4638,-4.5681,-4.6286,-4.4416,-4.3112,-4.2292,-4.1363,-4.1479,-4.2249,-4.127,-4.1052,-4.1389,0.0,0.0,0.0,0.0,0.0,0.0,0.0,0.0,0.0,0.0,0.0,0.0,0.0,0.0,0.0,-3.8336,-3.8869,-3.9654,-4.0453,-4.1325,-4.2195,-4.2941,0.0,0.0,0.0,0.0,0.0,0.0,0.0,0.0,0.0,0.0,0.0,0.0,0.0,0.0,0.0,0.0,0.0,0.0,0.0,0.0,0.0,0.0,0.0,0.0,0.0,0.0,-6.6219,-6.5632,-6.5228,-6.5044,-6.442,-6.398,-6.3796,-6.3135,-6.3441,-6.4714,-6.409,-6.3796,-6.3796,-6.3796,-6.3429,-6.278,-6.278,-6.267,-6.2511,-6.2071,-6.2034,-6.2144,-6.108,-6.0456,-5.9979,-5.8731,-5.829,-5.829,0.0,0.0,0.0,0.0,0.0,0.0,0.0,0.0,0.0,0.0,0.0,0.0,0.0,0.0,0.0,0.0,0.0,0.0,0.0,0.0,-3.5633,-3.5769,-3.6366,-3.8014,-4.0832,-3.9084,-3.9904,-4.3579,-4.4692,-4.5291,-4.5432,-4.3957,-4.261,-4.1503,-4.1442,-4.1902,-4.2659,-4.27,-4.2523,-4.2213,-4.2196,0.0,0.0,0.0,0.0,0.0,0.0,0.0,0.0,0.0,0.0,0.0,0.0,0.0,-3.8191,-3.8207,-3.877,-3.9568,-4.0311,-4.1724,-4.2995,-4.3068,-4.3049,0.0,-4.593,-4.6438,0.0,-4.9471,0.0,0.0,0.0,0.0,0.0,0.0,0.0,0.0,0.0,0.0,0.0,0.0,0.0,0.0,0.0,0.0,0.0,0.0,0.0,0.0,-6.5448,-6.5338,-6.4971,-6.42,-6.4127,-6.3723,-6.2915,-6.2817,-6.2853,-6.2989,-6.289,-6.289,-6.289,-6.289,-6.2853,-6.278,-6.278,-6.2401,-6.1741,-6.2438,-6.1887,-6.0639,-6.1263,-6.0603,-5.9258,-5.9148,-5.9111,-5.9111,0.0,0.0,0.0,0.0,0.0,0.0,0.0,0.0,0.0,0.0,0.0,0.0,0.0,0.0,0.0,0.0,0.0,0.0,0.0,-3.56,-3.6039,-3.7009,-3.64,-3.7449,-4.0434,-4.0747,-4.2014,-4.4334,-4.4905,-4.4989,-4.4569,-4.3122,-4.2087,-4.1413,-4.1436,-4.1753,-4.2297,-4.2616,-4.2739,-4.2686,-4.2934,-4.2856,0.0,0.0,0.0,0.0,0.0,0.0,0.0,0.0,-3.8307,-3.8191,-3.8241,-3.8257,-3.8274,-3.8303,-3.9216,-4.0254,-4.0544,-4.2214,-4.3741,-4.3213,-4.3449,0.0,0.0,-4.7268,-4.8198,-5.0055,-5.1046,0.0,0.0,0.0,0.0,0.0,0.0,0.0,0.0,0.0,0.0,0.0,0.0,0.0,0.0,0.0,0.0,0.0,0.0,0.0,-6.4567,-6.4053,-6.3613,-6.3319,-6.3282,-6.3135,-6.278,-6.278,-6.278,-6.278,-6.278,-6.278,-6.278,-6.278,-6.278,-6.278,-6.278,-6.2658,-6.2328,-6.2144,-6.1998,-6.1887,-6.1667,-6.0639,-5.9258,-5.9735,-5.9942,-5.9942,0.0,0.0,0.0,0.0,0.0,0.0,0.0,0.0,0.0,0.0,0.0,0.0,0.0,0.0,0.0,0.0,0.0,0.0,-3.56,-3.56,-3.6073,-3.7144,-3.6434,-3.7053,-3.9352,-4.0968,-4.2539,-4.4007,-4.4729,-4.4479,-4.3323,-4.2343,-4.1747,-4.1511,-4.1024,-4.1436,-4.2489,-4.2353,-4.2681,-4.3319,-4.3579,-4.3905,0.0,0.0,0.0,0.0,0.0,0.0,0.0,0.0,-3.8303,-3.8191,0.0,-3.8274,-3.8274,-3.832,-3.9286,-4.0306,-4.0306,-4.1905,-4.3414,-4.2868,0.0,0.0,-4.7619,-4.8553,-4.972,-5.2586,-5.3507,0.0,0.0,0.0,0.0,0.0,0.0,0.0,0.0,0.0,0.0,0.0,0.0,0.0,0.0,0.0,0.0,0.0,0.0,0.0,0.0,-6.2768,-6.2438,-6.2438,-6.2181,-6.2181,-6.2438,-6.2181,-6.201,-6.201,-6.201,-6.2303,-6.278,-6.2548,-6.2438,-6.2401,-6.2144,-6.201,-6.1998,-6.1447,-6.1557,-6.1961,-6.1153,-6.0309,-5.9661,-6.0493,-6.0786,-6.0786,0.0,0.0,0.0,0.0,0.0,0.0,0.0,0.0,0.0,0.0,0.0,0.0,0.0,0.0,0.0,0.0,0.0,0.0,-3.56,-3.56,-3.56,-3.56,-3.6366,-3.7134,-3.7855,-3.9334,-4.079,-4.2286,-4.3939,-4.3746,-4.1778,-4.1663,-4.1663,-4.1728,-4.0209,-4.1045,-4.3487,-4.2076,-4.2498,-4.4077,-4.4077,-4.4799,-4.581,0.0,0.0,0.0,0.0,0.0,0.0,0.0,-3.8303,0.0,0.0,0.0,-3.8191,-3.8191,-3.8821,-3.9489,-3.9526,-4.0688,-4.1923,0.0,0.0,0.0,-4.983,-5.0561,-5.2169,-5.7987,0.0,0.0,0.0,0.0,0.0,0.0,0.0,0.0,0.0,0.0,0.0,0.0,0.0,0.0,0.0,0.0,0.0,0.0,0.0,0.0,0.0,-6.1594,-6.1594,-6.1594,-6.0823,-6.0786,-6.1557,-6.0786,-6.0419,-6.0419,-6.0419,-6.1227,-6.2743,-6.1961,-6.1594,-6.152,-6.075,-6.0419,-6.0419,-6.0419,-6.0419,-6.0309,-5.9515,-5.9698,-6.0493,-6.13,-6.1594,-6.1594,0.0,0.0,0.0,0.0,0.0,0.0,0.0,0.0,0.0,0.0,0.0,0.0,0.0,0.0,0.0,0.0,0.0,0.0,-3.56,-3.56,-3.56,-3.56,-3.5825,-3.6062,-3.6276,-3.7246,-3.9029,-4.1542,-4.214,-4.1835,-4.0753,-4.1323,-4.1339,-4.0935,-4.1567,-4.1759,-4.154,-4.152,-4.1987,-4.2797,-4.3129,-4.4344,-4.5736,0.0,0.0,0.0,0.0,0.0,0.0,0.0,0.0,0.0,0.0,0.0,-3.8191,-3.8191,-3.8562,-3.9103,-3.9986,-4.1008,0.0,0.0,0.0,0.0,0.0,-5.227,0.0,0.0,0.0,0.0,0.0,0.0,0.0,0.0,0.0,0.0,0.0,0.0,0.0,0.0,0.0,0.0,0.0,0.0,0.0,0.0,0.0,0.0,0.0,-6.1043,-6.075,-6.075,-6.0529,-6.0529,-6.075,-6.0529,-6.0419,-6.0419,-6.0419,-6.0639,-6.1117,-6.086,-6.075,-6.0786,-6.108,-6.0933,-6.0419,-6.0419,-6.0089,-5.9588,-5.9942,-6.0199,-6.0493,-6.13,-6.1961,-6.2438,0.0,0.0,0.0,0.0,0.0,0.0,0.0,0.0,0.0,0.0,-3.56,0.0,0.0,0.0,0.0,0.0,0.0,0.0,0.0,-3.56,-3.56,-3.56,-3.56,-3.5735,-3.6062,-3.711,-3.8285,-3.9445,-4.012,-3.9932,-3.8996,-4.0653,-4.1223,-4.0923,-4.2475,-4.2723,-4.1968,-4.2218,-4.2383,-4.2455,-4.3084,-4.4267,-4.5533,0.0,0.0,0.0,0.0,0.0,0.0,0.0,0.0,0.0,0.0,0.0,-3.7933,-3.7933,-3.7972,-3.8159,-3.8902,0.0,0.0,0.0,0.0,0.0,0.0,0.0,0.0,0.0,0.0,0.0,0.0,0.0,0.0,0.0,0.0,0.0,0.0,0.0,0.0,0.0,0.0,0.0,0.0,0.0,0.0,0.0,0.0,0.0,0.0,-6.0199,-5.9942,-5.9942,-5.9612,-5.9612,-5.9942,-5.9612,-5.9465,-5.9465,-5.9465,-5.9465,-5.9465,-5.9795,-5.9942,-5.9942,-6.0456,-6.0199,-5.9465,-5.9795,-5.9465,-5.8804,-5.9612,-5.9942,-6.0015,-6.0823,-6.1447,-6.1887,0.0,0.0,0.0,0.0,0.0,0.0,0.0,0.0,0.0,0.0,-3.56,-3.56,0.0,0.0,0.0,0.0,0.0,0.0,0.0,0.0,-3.56,-3.56,-3.5667,-3.6005,-3.6694,-3.8058,-3.8091,-3.6694,-3.8159,-3.8241,-3.7069,-3.9901,-4.1289,-4.1528,-4.2981,-4.3639,-4.3697,-4.345,-4.308,-4.2732,-4.3576,-4.444,-4.521,-4.4748,0.0,0.0,0.0,0.0,0.0,0.0,0.0,0.0,-3.8343,-3.7948,-3.756,-3.7505,-3.7248,-3.7017,-3.7158,0.0,0.0,0.0,0.0,0.0,0.0,0.0,0.0,0.0,0.0,0.0,0.0,0.0,0.0,0.0,0.0,0.0,0.0,0.0,0.0,0.0,0.0,0.0,0.0,0.0,0.0,0.0,0.0,0.0,0.0,-5.9111,-5.9074,-5.9074,-5.84,-5.8364,-5.9074,-5.8364,-5.7997,-5.7997,-5.7997,-5.7997,-5.8033,-5.8767,-5.9111,-5.9184,-5.9111,-5.8731,-5.8143,-5.8841,-5.8657,-5.807,-5.8804,-5.9148,-5.9294,-6.0015,-6.0346,-6.0493,0.0,0.0,0.0,0.0,0.0,0.0,0.0,0.0,0.0,0.0,0.0,0.0,0.0,0.0,0.0,0.0,0.0,0.0,0.0,0.0,-3.56,-3.56,-3.6049,-3.6161,-3.5836,-3.6622,-3.6656,-3.5836,-3.7381,-3.7956,-3.7743,-4.0087,-4.1508,-4.2136,-4.3158,-4.3333,-4.2877,-4.1793,-4.1707,-4.2341,-4.2527,-4.351,-4.473,-4.4013,-4.4158,0.0,0.0,0.0,0.0,0.0,0.0,0.0,-3.8505,-3.8191,-3.7967,-3.7596,-3.7227,-3.7185,0.0,-3.9231,0.0,0.0,0.0,0.0,0.0,0.0,0.0,0.0,0.0,0.0,0.0,0.0,0.0,0.0,0.0,0.0,0.0,0.0,0.0,0.0,0.0,0.0,0.0,0.0,0.0,0.0,0.0,0.0,-5.9184,-5.8621,-5.8253,-5.8253,-5.8107,-5.807,-5.8253,-5.8107,-5.7997,0.0,-5.7997,-5.7997,-5.7997,-5.818,-5.8621,-5.9148,-5.8547,-5.851,-5.8891,-5.8437,-5.8143,-5.8033,-5.818,-5.8657,-5.9221,-5.9368,-5.9869,-6.0419,0.0,0.0,0.0,0.0,0.0,0.0,0.0,0.0,0.0,0.0,0.0,0.0,0.0,0.0,0.0,0.0,0.0,0.0,0.0,0.0,-3.5994,-3.5633,-3.6264,-3.6331,-3.5633,-3.6297,-3.6297,-3.56,-3.6411,-3.7009,-3.7415,-3.9276,-4.073,-4.1813,-4.303,-4.3496,-4.3245,-4.2999,-4.2717,-4.2491,-4.3093,-4.3538,-4.3798,-4.3592,-4.3754,-4.3975,-4.2727,0.0,0.0,0.0,0.0,0.0,0.0,0.0,-3.8384,-3.815,-3.751,-3.7036,0.0,0.0,0.0,0.0,0.0,0.0,0.0,0.0,0.0,0.0,0.0,0.0,0.0,0.0,0.0,0.0,0.0,0.0,0.0,0.0,0.0,0.0,0.0,0.0,0.0,0.0,0.0,0.0,0.0,-5.8621,-5.8621,-5.8217,-5.7997,-5.7997,-5.7997,-5.7997,-5.7997,-5.7997,-5.7997,-5.7997,-5.7997,-5.7997,-5.7997,-5.7997,-5.8217,-5.8621,-5.818,-5.8253,-5.8584,-5.818,-5.7997,-5.7997,-5.7997,-5.8253,-5.8621,-5.8621,-5.8877,-5.9318,0.0,0.0,0.0,0.0,0.0,0.0,0.0,0.0,0.0,0.0,0.0,0.0,0.0,0.0,0.0,0.0,0.0,0.0,0.0,0.0,0.0,-3.5633,-3.6343,-3.6377,-3.5633,-3.6343,-3.6377,-3.56,-3.56,-3.6129,-3.7202,-3.843,-3.9851,-4.1441,-4.263,-4.3435,-4.3947,-4.4464,-4.4026,-4.3084,-4.414,-4.4014,-4.3231,-4.3558,-4.3608,-4.3387,-4.2746,-4.2489,-4.2362,-4.1556,0.0,0.0,0.0,0.0,-3.8812,-3.8899,-3.7935,-3.6891,0.0,0.0,0.0,0.0,0.0,0.0,0.0,0.0,0.0,0.0,0.0,0.0,0.0,0.0,0.0,0.0,0.0,0.0,0.0,0.0,0.0,0.0,0.0,0.0,0.0,0.0,0.0,0.0,0.0,-5.7997,-5.7997,-5.7997,-5.795,-5.7797,-5.795,-5.795,-5.7797,-5.795,-5.7997,-5.7997,-5.7997,-5.7997,-5.7997,-5.7997,-5.7997,-5.7997,-5.7997,-5.7997,-5.7997,-5.7997,-5.7997,-5.7997,-5.7997,-5.7997,-5.7997,-5.7997,-5.7997,-5.8107,0.0,0.0,0.0,0.0,0.0,0.0,0.0,0.0,0.0,0.0,0.0,0.0,0.0,0.0,0.0,0.0,0.0,0.0,0.0,0.0,0.0,-3.5633,-3.6194,-3.6262,-3.56,-3.6228,-3.6228,-3.56,-3.56,-3.6671,-3.87,-3.8903,-4.0121,-4.2117,-4.1704,-4.2404,-4.3826,-4.2611,-4.2903,-4.4174,-4.4421,-4.4446,-4.4401,-4.4509,-4.4121,-4.3497,-4.33,-4.3229,-4.3119,-4.2314,-4.1937,0.0,0.0,0.0,0.0,-3.9654,-3.838,-3.7161,0.0,0.0,0.0,0.0,0.0,0.0,0.0,0.0,0.0,0.0,0.0,0.0,0.0,0.0,0.0,0.0,0.0,0.0,0.0,0.0,0.0,0.0,0.0,0.0,0.0,0.0,0.0,0.0,-5.7997,-5.7997,-5.7997,-5.7997,-5.7703,-5.7065,-5.7679,-5.7703,-5.704,-5.7679,-5.7997,-5.7997,-5.7997,-5.7997,-5.7997,-5.7997,-5.7997,-5.7997,-5.7997,-5.7997,-5.7997,-5.7997,-5.7997,-5.7997,-5.7997,-5.7997,-5.7997,-5.7997,-5.7997,-5.8033,0.0,0.0,0.0,0.0,0.0,0.0,0.0,0.0,0.0,0.0,0.0,0.0,0.0,0.0,0.0,0.0,0.0,0.0,0.0,0.0,0.0,-3.5633,-3.5858,-3.5869,-3.56,-3.5836,-3.5869,-3.56,-3.6062,-3.7212,-3.9005,-3.9436,-4.0798,-4.2895,-4.223,-4.2845,-4.4333,-4.3597,-4.3785,-4.4624,-4.5156,-4.4942,-4.4269,-4.4529,-4.4143,-4.3465,-4.3445,-4.3375,-4.325,-4.2974,-4.2614,-4.2264,-4.2141,0.0,0.0,0.0,0.0,0.0,0.0,0.0,0.0,0.0,0.0,0.0,0.0,0.0,0.0,0.0,0.0,0.0,0.0,0.0,0.0,0.0,0.0,0.0,0.0,0.0,0.0,0.0,0.0,0.0,0.0,0.0,0.0,0.0,-5.6638,-5.6638,-5.6638,-5.6638,-5.651,-5.6227,-5.6937,-5.718,-5.6912,-5.7655,-5.7997,-5.7997,-5.7997,-5.7997,-5.7997,-5.7997,-5.7997,-5.7997,-5.7997,-5.7997,-5.7997,-5.7997,-5.7997,-5.7997,-5.7997,-5.7997,-5.7997,-5.7997,-5.7997,-5.7997,0.0,0.0,0.0,0.0,0.0,0.0,0.0,0.0,0.0,0.0,0.0,0.0,0.0,0.0,0.0,0.0,0.0,0.0,0.0,0.0,0.0,-3.5667,-3.56,-3.56,-3.56,-3.56,-3.56,-3.56,-3.64,-3.7574,-3.9005,-3.9749,-4.1271,-4.3369,-4.2732,-4.3321,-4.4763,-4.4535,-4.4804,-4.5439,-4.5847,-4.5353,-4.4426,-4.4416,-4.4017,-4.3375,-4.3178,0.0,0.0,0.0,0.0,0.0,0.0,0.0,0.0,0.0,0.0,0.0,0.0,0.0,0.0,0.0,0.0,0.0,0.0,0.0,0.0,0.0,0.0,0.0,0.0,0.0,0.0,0.0,0.0,0.0,0.0,0.0,0.0,0.0,0.0,0.0,0.0,0.0,0.0,0.0,-5.5596,-5.5596,-5.5596,-5.544,-5.5291,-5.5133,-5.5861,-5.6176,-5.6005,-5.7121,-5.7703,-5.7703,-5.7886,-5.7997,-5.7997,-5.7997,-5.7997,-5.7997,-5.7997,-5.7997,-5.7997,-5.7997,-5.7997,-5.7997,-5.7997,-5.7997,-5.7997,-5.7997,-5.7997,-5.7997,0.0,0.0,0.0,0.0,0.0,0.0,0.0,0.0,0.0,0.0,0.0,0.0,0.0,-3.9377,-3.9276,-3.9977,0.0,0.0,0.0,0.0,0.0,-3.5667,-3.56,0.0,-3.56,-3.56,-3.56,-3.56,-3.64,-3.7574,-3.9005,-3.9724,-4.1279,-4.3375,-4.2625,-4.324,-4.4769,-4.4209,-4.526,-4.728,-4.6161,0.0,0.0,0.0,0.0,0.0,0.0,0.0,0.0,0.0,0.0,0.0,0.0,0.0,0.0,0.0,0.0,0.0,0.0,0.0,0.0,0.0,0.0,0.0,0.0,0.0,0.0,0.0,0.0,0.0,0.0,0.0,0.0,0.0,0.0,0.0,0.0,0.0,0.0,0.0,0.0,0.0,0.0,0.0,0.0,0.0,-5.5596,-5.5596,-5.5596,-5.5013,-5.4306,-5.3539,-5.4291,-5.4353,-5.3583,-5.5741,-5.6859,-5.6859,-5.7629,-5.7997,-5.7997,-5.7997,-5.7997,-5.7997,-5.7997,-5.7997,-5.7997,-5.7997,-5.7997,-5.7997,-5.7997,-5.7997,-5.7997,-5.7997,-5.7997,-5.7997,0.0,0.0,0.0,0.0,0.0,0.0,0.0,0.0,0.0,0.0,0.0,0.0,0.0,-3.9876,-3.9808,-4.0079,-3.9876,0.0,0.0,0.0,0.0,-3.7121,-3.6637,-3.6366,-3.6366,-3.5836,-3.56,-3.56,-3.6874,-3.8024,-3.9039,-4.0257,-4.1719,-4.3375,-4.3132,-4.3633,-4.4665,-4.4606,0.0,0.0,0.0,0.0,0.0,0.0,0.0,0.0,0.0,0.0,0.0,0.0,0.0,0.0,0.0,0.0,0.0,0.0,0.0,0.0,0.0,0.0,0.0,0.0,0.0,0.0,0.0,0.0,0.0,0.0,0.0,0.0,0.0,0.0,0.0,0.0,0.0,0.0,0.0,0.0,0.0,0.0,0.0,0.0,0.0,0.0,0.0,0.0,0.0,-5.4069,-5.4069,-5.3403,-5.2877,-5.2617,-5.2944,-5.3463,-5.4169,-5.5385,-5.6014,-5.6051,-5.6859,-5.7226,-5.7262,-5.7776,-5.7997,-5.7997,-5.7997,-5.7997,-5.7997,-5.7997,-5.7997,-5.7997,-5.7997,-5.7997,-5.7997,-5.7997,-5.7997,-5.7997,0.0,0.0,0.0,0.0,0.0,0.0,0.0,0.0,0.0,0.0,0.0,0.0,0.0,0.0,-4.0113,-4.0113,-4.0113,-3.9808,-3.9039,-3.9005,-3.8565,-3.7584,-3.728,-3.7066,-3.6795,-3.6265,-3.5994,-3.5994,-3.728,-3.8159,-3.8667,-4.0121,-4.1508,-4.2665,-4.2929,-4.3741,0.0,0.0,0.0,-4.5512,0.0,0.0,-4.4936,0.0,0.0,0.0,0.0,0.0,0.0,0.0,0.0,0.0,0.0,0.0,0.0,0.0,0.0,0.0,0.0,0.0,0.0,0.0,0.0,0.0,0.0,0.0,0.0,0.0,0.0,0.0,0.0,0.0,0.0,0.0,0.0,0.0,0.0,0.0,0.0,0.0,0.0,0.0,0.0,0.0,0.0,0.0,0.0,0.0,-5.3203,-5.2289,-5.1693,-5.1489,-5.1732,-5.2513,-5.3761,-5.4697,-5.5207,-5.5207,-5.6014,-5.6418,-5.6418,-5.7226,-5.7593,-5.7593,-5.7886,-5.7997,-5.7997,-5.7997,-5.7997,-5.7997,-5.7997,-5.7997,-5.7997,-5.7997,-5.7997,-5.7997,0.0,0.0,0.0,0.0,0.0,0.0,0.0,0.0,0.0,-4.1441,0.0,0.0,0.0,0.0,0.0,-4.0146,-4.0146,-3.9842,-3.9073,-3.9039,-3.8396,-3.6965,0.0,0.0,0.0,-3.6795,-3.6761,-3.6761,-3.7516,-3.7922,-3.7922,-3.9436,-4.0493,-4.1271,-4.1982,-4.3538,-4.5635,0.0,-4.5514,-4.655,0.0,-4.5117,-4.5896,0.0,0.0,0.0,-4.2389,-4.2193,0.0,-4.2299,0.0,0.0,0.0,0.0,0.0,0.0,0.0,0.0,0.0,0.0,0.0,0.0,0.0,0.0,0.0,0.0,0.0,0.0,0.0,0.0,0.0,0.0,0.0,0.0,0.0,0.0,0.0,0.0,0.0,0.0,0.0,0.0,0.0,0.0,0.0,0.0,-5.2711,-5.3167,-5.3167,-5.1874,-5.077,-5.0033,-5.0743,-5.1444,-5.2089,-5.3602,-5.4363,-5.4399,-5.5207,-5.5596,-5.5633,-5.6418,-5.6822,-5.6859,-5.7629,-5.796,-5.7997,-5.7997,-5.7997,-5.7997,-5.7997,-5.7997,-5.7997,-5.7997,-5.7997,-5.7997,0.0,0.0,0.0,0.0,0.0,0.0,0.0,0.0,0.0,0.0,0.0,0.0,-4.1737,-4.1677,-4.1474,-4.0933,-4.0899,-4.0561,-3.9842,-3.9708,-3.9463,-3.9059,-3.8216,-3.7643,-3.7441,-3.6455,-3.5926,-3.5926,-3.7246,-3.7922,-3.7922,-3.9436,-4.079,0.0,-4.2185,-4.3267,-4.4919,-4.4822,0.0,-4.602,-4.5118,-4.5082,0.0,0.0,0.0,0.0,0.0,-4.1882,-4.293,0.0,-4.2595,-4.2821,0.0,0.0,0.0,0.0,0.0,0.0,-4.1464,0.0,0.0,0.0,0.0,0.0,0.0,0.0,0.0,0.0,0.0,0.0,0.0,0.0,0.0,0.0,0.0,0.0,0.0,0.0,0.0,0.0,0.0,0.0,0.0,0.0,0.0,0.0,-5.1867,-5.2344,-5.2344,-5.1986,-5.1266,-5.0033,-5.1189,-5.1886,-5.2112,-5.3032,-5.3812,-5.4399,-5.5207,-5.5596,-5.5633,-5.6418,-5.6822,-5.6822,-5.7042,-5.7446,-5.7997,-5.7997,-5.7997,-5.7997,-5.7997,-5.7997,-5.7997,-5.7997,-5.7997,-5.7997,0.0,0.0,0.0,0.0,0.0,0.0,0.0,0.0,0.0,0.0,0.0,0.0,-4.232,-4.2557,-4.2455,-4.1711,-4.1644,-4.1339,-4.0595,-4.0484,-4.0137,-3.948,-3.8908,-3.847,-3.8167,-3.734,-3.6949,-3.6949,-3.7874,-3.8338,-3.8299,-3.9546,-4.0553,0.0,0.0,0.0,0.0,0.0,0.0,0.0,-4.4817,0.0,0.0,-4.3617,-4.3092,0.0,0.0,0.0,-4.3166,-4.227,-4.2407,0.0,0.0,0.0,0.0,0.0,0.0,0.0,0.0,0.0,0.0,0.0,0.0,0.0,-4.2232,-4.2284,0.0,0.0,0.0,0.0,0.0,0.0,0.0,0.0,0.0,0.0,0.0,0.0,0.0,0.0,0.0,0.0,0.0,-4.8959,-4.9658,-4.9419,-5.07,-5.1506,-5.1529,-5.1574,-5.1272,-5.05,-5.1544,-5.2112,-5.2112,-5.2813,-5.3445,-5.3922,-5.4693,-5.5097,-5.5133,-5.5941,-5.6308,-5.6308,-5.6638,-5.7079,-5.7519,-5.785,-5.7997,-5.7997,-5.7997,-5.7997,-5.7997,-5.7997,-5.7997,-5.7997,0.0,0.0,0.0,0.0,0.0,0.0,0.0,0.0,0.0,0.0,-4.3713,-4.3538,-4.2861,-4.3301,-4.3341,-4.2564,-4.2455,-4.2117,-4.1347,-4.1212,-4.0552,-3.911,-3.9488,-3.9455,-3.8791,-3.8715,-3.8681,-3.8656,-3.8873,-3.8906,-3.8816,-3.9674,-4.0121,-4.0282,0.0,0.0,0.0,0.0,0.0,-4.4633,-4.4431,-4.4353,0.0,0.0,-4.3187,0.0,-4.1681,-4.2184,-4.3163,-4.174,-4.173,0.0,0.0,0.0,0.0,0.0,-4.2731,0.0,0.0,0.0,0.0,0.0,0.0,0.0,-4.2941,-4.2504,-4.2265,0.0,0.0,0.0,0.0,0.0,0.0,0.0,0.0,0.0,0.0,0.0,0.0,0.0,0.0,0.0,-4.522,-4.692,-4.7875,-4.7487,-4.946,-5.0702,-5.0764,-5.0931,-5.1035,-5.1073,-5.1802,-5.2206,-5.2206,-5.2893,-5.3277,-5.3482,-5.4179,-5.4583,-5.4693,-5.539,-5.5684,-5.5647,-5.6345,-5.6712,-5.6859,-5.7556,-5.7923,-5.7997,-5.7997,-5.7997,-5.7997,-5.7997,-5.7997,-5.7997,0.0,0.0,0.0,0.0,0.0,0.0,0.0,0.0,0.0,0.0,-4.5771,-4.6075,-4.594,-4.5534,-4.4902,-4.3979,-4.3455,-4.2841,-4.1991,-4.1384,-4.0912,-4.0583,-3.9479,-3.8791,-3.8631,-3.8152,-3.7883,-3.7735,-3.8488,-3.8807,-3.8816,-3.9573,-4.0323,0.0,0.0,0.0,0.0,0.0,0.0,-4.3728,-4.4313,0.0,-4.4189,-4.3005,-4.2037,-4.1265,-4.0626,-4.0787,-4.1405,0.0,-4.2006,-4.2388,0.0,0.0,0.0,0.0,0.0,0.0,0.0,0.0,0.0,0.0,0.0,0.0,-4.2681,-4.221,-4.2159,0.0,0.0,0.0,0.0,0.0,0.0,0.0,0.0,0.0,0.0,0.0,0.0,0.0,0.0,0.0,-4.5754,-4.6122,-4.658,-4.7145,-4.8854,-4.9862,-4.9947,-5.1115,-5.1552,-5.0975,-5.2272,-5.298,-5.298,-5.3124,-5.3849,-5.5133,-5.528,-5.5721,-5.6345,-5.6492,-5.6198,-5.5633,-5.5757,-5.6198,-5.6822,-5.6969,-5.7409,-5.7997,-5.7997,-5.7997,-5.7997,-5.7997,-5.7997,-5.7997,0.0,0.0,0.0,0.0,0.0,0.0,0.0,0.0,0.0,-4.6143,-4.7192,-4.7736,-4.7241,-4.6532,-4.5732,-4.4817,-4.422,-4.3507,0.0,-4.2018,-4.1418,-4.0915,-3.9796,-3.9116,-3.9039,-3.8722,-3.8606,-3.8606,-3.9051,-3.9269,-3.9379,-3.9749,0.0,0.0,0.0,0.0,0.0,0.0,-4.4587,-4.4513,-4.4087,0.0,-4.2681,-4.1893,-4.1131,-4.049,-4.0204,-4.0254,-4.0656,-4.2134,-4.2464,0.0,0.0,-4.4248,-4.4553,0.0,-4.4609,-4.4523,0.0,0.0,0.0,-4.3945,0.0,0.0,0.0,-4.2593,-4.2283,0.0,0.0,0.0,0.0,0.0,0.0,0.0,0.0,0.0,0.0,0.0,0.0,0.0,0.0,0.0,-4.3927,-4.4728,-4.581,-4.7003,-4.7902,-4.8739,-4.9586,-5.0769,-5.1412,-5.1442,-5.2599,-5.3203,-5.3203,-5.3203,-5.3592,-5.4399,-5.4803,-5.5207,-5.5611,-5.5611,-5.539,-5.5023,-5.5449,-5.5831,-5.6271,-5.7079,-5.7629,-5.7997,-5.7997,-5.7997,-5.7997,-5.7997,-5.7997,-5.7997,0.0,0.0,0.0,0.0,0.0,0.0,0.0,0.0,0.0,-4.709,-4.8274,-4.8754,0.0,0.0,0.0,0.0,0.0,0.0,0.0,0.0,-4.1916,-4.1124,-4.0306,-3.9766,-3.9554,-3.9528,-3.9554,-3.9651,-3.9677,-3.9755,-3.9884,-3.9884,0.0,0.0,0.0,0.0,0.0,0.0,0.0,-4.5122,0.0,-4.2552,-4.1798,-4.1194,-4.0695,-4.0282,-4.0146,-4.0113,-4.0383,-4.232,0.0,-4.2523,-4.3938,-4.506,0.0,0.0,0.0,0.0,0.0,0.0,0.0,0.0,0.0,-4.3469,0.0,0.0,0.0,0.0,0.0,0.0,0.0,0.0,0.0,0.0,0.0,0.0,0.0,0.0,0.0,0.0,0.0,0.0,0.0,-4.3666,-4.5297,-4.6746,-4.6984,-4.7736,-4.928,-5.0105,-5.0949,-5.172,-5.2564,-5.3041,-5.3203,-5.3203,-5.3277,-5.3445,-5.4106,-5.4473,-5.462,-5.4803,-5.4693,-5.4436,-5.539,-5.5721,-5.5706,-5.7152,-5.785,-5.7997,-5.7997,-5.7997,-5.7997,-5.7997,-5.7997,-5.7997,-3.9729,-3.9703,0.0,0.0,0.0,0.0,0.0,0.0,0.0,-4.8477,-4.8917,0.0,0.0,0.0,0.0,0.0,0.0,0.0,-4.6982,0.0,0.0,-4.2132,-4.1077,-4.0248,-3.9711,-3.958,-3.9501,-3.9528,-3.9625,-3.9755,0.0,0.0,0.0,0.0,-4.1238,0.0,0.0,0.0,-4.3578,0.0,-4.2739,-4.3112,0.0,-4.1925,-4.112,-4.1001,-4.035,-4.0113,-4.0248,0.0,-4.1847,-4.2422,0.0,-4.4993,-4.6413,0.0,0.0,0.0,0.0,0.0,0.0,0.0,-4.4656,0.0,0.0,0.0,-4.3042,0.0,0.0,0.0,0.0,0.0,0.0,0.0,0.0,0.0,0.0,0.0,0.0,0.0,0.0,0.0,0.0,-4.4072,-4.5022,-4.5957,-4.6653,-4.7423,-4.8416,-4.926,-5.0105,-5.0912,-5.172,-5.2491,-5.3167,-5.3203,-5.3555,-5.4252,-5.4363,-5.4766,-5.5486,-5.6198,-5.5757,-5.4473,-5.6014,-5.6271,-5.5647,-5.6565,-5.7373,-5.7997,-5.7997,-5.7997,-5.7997,-5.7997,-5.7997,-5.7997,-3.9729,-3.9625,0.0,0.0,0.0,0.0,0.0,0.0,0.0,0.0,0.0,0.0,0.0,0.0,0.0,0.0,0.0,-4.5547,0.0,0.0,0.0,0.0,0.0,0.0,-4.0107,-3.9621,-3.9422,-3.9501,-3.958,-3.9677,0.0,0.0,0.0,0.0,-4.1644,0.0,-4.2828,0.0,-4.435,0.0,0.0,0.0,0.0,-4.1745,-4.0561,-4.0493,-4.0214,-4.0113,-4.0146,0.0,-4.1339,0.0,0.0,0.0,0.0,0.0,0.0,0.0,0.0,0.0,0.0,0.0,0.0,0.0,-4.3637,0.0,-4.2492,0.0,0.0,0.0,0.0,0.0,0.0,0.0,0.0,0.0,0.0,0.0,0.0,0.0,0.0,0.0,0.0,0.0,0.0,0.0,-4.592,-4.6727,-4.7553,-4.8857,-4.9757,-5.0068,-5.1316,-5.216,-5.2491,-5.2968,-5.335,-5.368,-5.328,-5.3231,-5.3595,-5.4418,-5.4418,-5.3872,-5.5894,-5.6602,-5.6345,-5.7152,-5.7703,-5.7997,-5.7997,-5.7997,-5.7997,-5.7997,-5.7997,-5.7997,-3.9703,0.0,0.0,0.0,0.0,0.0,0.0,0.0,0.0,0.0,0.0,0.0,-5.2469,-5.0727,0.0,0.0,-4.875,-4.7167,0.0,0.0,-4.3311,0.0,0.0,0.0,0.0,0.0,-3.9667,-3.9801,-3.9854,0.0,0.0,0.0,0.0,0.0,0.0,-4.2523,-4.2963,0.0,0.0,-4.5297,-4.435,-4.4073,-4.3876,-4.1339,-4.0282,-4.0113,-4.0113,-4.0113,-4.0146,-4.035,-4.1238,0.0,-4.3842,0.0,0.0,0.0,0.0,0.0,-4.5521,0.0,0.0,0.0,0.0,0.0,0.0,0.0,0.0,0.0,0.0,0.0,0.0,0.0,0.0,0.0,0.0,0.0,0.0,0.0,0.0,0.0,0.0,0.0,0.0,0.0,0.0,-4.4601,-4.5223,-4.5993,-4.7039,-4.8269,-4.9133,-4.961,-5.0969,-5.1756,-5.1977,-5.2599,-5.2915,-5.2893,-5.2196,-5.1814,-5.185,-5.3111,-5.3508,-5.3448,-5.6022,-5.7005,-5.6859,-5.7666,-5.7997,-5.7997,-5.7997,-5.7997,-5.7997,-5.7997,-5.7997,-5.7997,-3.9677,-3.9573,0.0,0.0,0.0,0.0,0.0,0.0,0.0,0.0,0.0,0.0,0.0,0.0,0.0,0.0,0.0,-4.8176,-4.8818,0.0,-4.3972,0.0,0.0,-4.192,0.0,0.0,0.0,0.0,0.0,0.0,0.0,0.0,0.0,0.0,0.0,-4.3132,-4.4479,-4.3741,-4.391,-4.4513,-4.2963,-4.1508,-4.035,0.0,-4.073,-4.0113,-4.0113,0.0,0.0,-4.0933,-4.1677,0.0,0.0,0.0,0.0,0.0,0.0,0.0,0.0,0.0,0.0,-4.4784,0.0,0.0,0.0,0.0,-4.3664,0.0,0.0,0.0,0.0,0.0,0.0,0.0,0.0,0.0,0.0,0.0,0.0,0.0,0.0,0.0,0.0,0.0,0.0,-4.451,-4.4638,-4.537,-4.7003,-4.7149,-4.7939,-4.9537,-5.0398,-5.1206,-5.1977,-5.2073,-5.2136,-5.2136,-5.1444,-5.1138,-5.1235,-5.3526,-5.4086,-5.3484,-5.6606,-5.7519,-5.6859,-5.7666,-5.7997,-5.7997,-5.7997,-5.7997,-5.7997,-5.7997,-5.7997,-5.7997,-4.0572,-4.0789,-4.0634,-3.9615,0.0,0.0,0.0,-4.6234,0.0,0.0,0.0,0.0,0.0,-5.5291,-5.4518,0.0,0.0,-5.109,-5.0381,-4.8006,0.0,0.0,0.0,-4.2887,0.0,0.0,0.0,0.0,0.0,0.0,0.0,0.0,0.0,0.0,0.0,-4.3335,0.0,0.0,0.0,0.0,0.0,-4.1711,-4.0798,0.0,0.0,-4.0113,-4.0113,-4.0113,0.0,-4.0383,-4.0967,-4.1779,-4.3003,-4.3747,-4.4384,-4.5399,-4.5872,0.0,0.0,0.0,-4.6887,-4.5635,0.0,0.0,0.0,0.0,0.0,0.0,0.0,0.0,0.0,0.0,0.0,0.0,0.0,0.0,0.0,0.0,0.0,0.0,0.0,0.0,0.0,0.0,0.0,-4.3797,-4.4326,-4.515,-4.625,-4.6819,-4.7865,-4.9537,-5.0362,-5.1206,-5.1977,-5.2556,-5.2576,-5.2089,-5.1419,-5.1131,-5.12,-5.2523,-5.3233,-5.357,-5.6171,-5.6808,-5.6159,-5.7461,-5.7726,-5.7327,-5.7797,-5.7997,-5.7997,-5.7997,-5.7997,-5.7997,-4.0915,-4.113,-4.1067,-4.04,0.0,0.0,0.0,0.0,0.0,0.0,-5.3376,0.0,-5.8115,0.0,-5.6368,0.0,-5.5233,-5.3382,-5.0755,-4.9649,0.0,-4.5693,-4.4923,0.0,0.0,0.0,0.0,0.0,0.0,-4.2155,0.0,0.0,0.0,0.0,0.0,0.0,-4.3842,0.0,-4.3673,0.0,0.0,-4.1474,0.0,0.0,-4.0282,-4.0485,0.0,-4.0113,-4.0113,-4.0113,-4.0595,-4.1407,-4.2625,-4.3172,-4.368,-4.5263,-4.5906,-4.6075,-4.6075,-4.6989,0.0,-4.6075,-4.6244,0.0,-4.4953,0.0,0.0,0.0,0.0,0.0,0.0,0.0,0.0,0.0,0.0,0.0,0.0,0.0,0.0,0.0,0.0,0.0,0.0,0.0,-4.3323,-4.3394,-4.3923,-4.471,0.0,0.0,-4.7572,-4.9537,-5.0362,-5.1206,-5.1977,-5.2302,-5.2219,-5.1716,-5.0796,-5.0506,-5.0832,-5.1919,-5.2795,-5.3589,-5.5601,-5.6204,-5.5808,-5.7054,-5.7327,-5.6964,-5.7726,-5.7997,-5.7997,-5.7997,-5.7997,-5.7997,-4.0822,-4.0809,-4.0967,-4.1666,-4.2754,0.0,0.0,0.0,-4.9926,0.0,-5.3273,-5.4747,-5.6292,-5.6539,-5.6614,-5.6612,-5.6691,0.0,-5.0485,-5.1394,0.0,0.0,-4.5794,-4.5429,-4.3424,0.0,0.0,0.0,0.0,0.0,0.0,0.0,0.0,0.0,-4.4615,0.0,-4.4615,-4.4581,-4.4045,-4.3172,-4.1779,-4.0764,-4.0146,-4.0113,-4.0561,-4.1102,-4.0383,-4.0113,-4.0113,-4.0113,-4.0561,-4.1271,-4.2049,-4.2794,-4.3646,-4.5196,-4.6177,-4.6752,-4.6786,-4.7327,-4.75,-4.6109,0.0,0.0,0.0,0.0,-4.55,0.0,0.0,0.0,0.0,0.0,0.0,0.0,0.0,0.0,0.0,0.0,0.0,0.0,0.0,0.0,0.0,0.0,-4.316,-4.3359,-4.3394,-4.4143,0.0,0.0,-4.7095,-4.9574,-5.0435,-5.1242,-5.205,-5.1431,-5.1138,-5.1086,-4.9762,-4.9455,-5.02,-5.1718,-5.2805,-5.3567,-5.5004,-5.5638,-5.5667,-5.651,-5.6861,-5.6912,-5.7679,-5.7973,-5.7997,-5.7997,-5.7997,-5.7997,-4.1619,-4.2383,-4.3069,0.0,-4.2932,-4.3691,0.0,0.0,0.0,0.0,-5.5763,-5.7554,-5.976,-5.8987,-5.8383,-5.8383,-5.6898,0.0,0.0,0.0,0.0,-4.9531,-4.8474,-4.7237,-4.5707,-4.4842,0.0,-4.3331,0.0,0.0,-4.3829,0.0,0.0,0.0,0.0,0.0,-4.4581,-4.3944,-4.2963,-4.1745,-4.1373,-4.1102,0.0,0.0,-4.0561,-4.1102,-4.0383,-4.0113,-4.0113,-4.0113,-4.0248,-4.062,-4.188,-4.2422,-4.2895,-4.4418,-4.5399,-4.6109,-4.665,-4.6921,-4.6989,-4.6616,-4.6244,-4.5872,0.0,0.0,0.0,0.0,0.0,0.0,0.0,0.0,0.0,0.0,0.0,0.0,0.0,0.0,0.0,0.0,0.0,0.0,0.0,-4.2257,-4.2825,-4.2882,-4.3232,-4.4177,0.0,0.0,0.0,-5.0398,-5.1279,-5.2087,-5.2894,-5.218,-5.1593,-5.1086,-5.0765,-5.0724,-5.0947,-5.1883,-5.276,-5.3577,-5.4506,-5.4575,-5.4171,-5.5466,-5.6004,-5.6087,-5.6876,-5.7498,-5.7997,-5.7997,-5.7997,-5.7997,-4.2362,-4.3389,0.0,-4.4522,0.0,0.0,-4.7268,0.0,0.0,-5.4245,-5.6096,0.0,-5.9017,-5.9059,-5.8761,-5.8084,-5.69,0.0,-5.4699,0.0,0.0,-5.1155,-4.9878,-4.8397,-4.6701,-4.5354,0.0,-4.3514,0.0,0.0,-4.4097,0.0,0.0,0.0,0.0,-4.5201,0.0,-4.4238,-4.3382,-4.2625,-4.1948,0.0,0.0,-4.073,-4.0629,-4.0663,-4.0248,-4.0113,-4.0113,-4.0113,-4.0316,-4.0764,-4.1914,-4.2523,-4.3031,-4.4242,-4.5128,-4.5805,-4.621,-4.6549,-4.6718,-4.638,-4.6244,-4.6109,-4.5771,-4.594,-4.638,0.0,0.0,0.0,0.0,0.0,0.0,0.0,0.0,0.0,0.0,0.0,0.0,0.0,0.0,0.0,0.0,-4.2077,-4.292,-4.292,-4.3269,0.0,0.0,0.0,0.0,-5.0729,-5.1903,-5.2584,-5.2725,-5.2378,-5.1851,-5.1134,-5.0857,-5.1049,-5.1691,-5.2131,-5.2739,-5.3517,-5.3946,-5.3881,-5.3584,-5.4726,-5.5203,-5.5291,-5.6095,-5.7029,-5.7973,-5.7655,-5.7726,-5.7997,0.0,0.0,0.0,0.0,0.0,0.0,0.0,-4.946,0.0,-5.3876,0.0,-5.6469,-5.6513,-5.7738,-5.8051,-5.6765,0.0,-5.5612,-5.3516,-5.4058,-5.345,-5.1292,-5.0578,-4.9221,-4.6989,-4.5322,0.0,0.0,0.0,0.0,0.0,0.0,0.0,0.0,0.0,0.0,0.0,-4.5,-4.4446,0.0,-4.2963,-4.2016,-4.1339,-4.1238,-4.0798,-4.0248,-4.0146,-4.0113,-4.0113,-4.0113,-4.0553,-4.117,-4.1914,-4.2658,-4.3436,-4.4215,-4.4959,-4.5568,-4.5669,-4.6109,-4.638,-4.5838,-4.6109,-4.638,-4.594,-4.6346,-4.7022,-4.7868,-4.753,-4.7259,0.0,0.0,0.0,0.0,0.0,0.0,0.0,0.0,0.0,0.0,0.0,0.0,0.0,0.0,0.0,0.0,0.0,0.0,0.0,0.0,0.0,-5.0729,-5.237,-5.2893,-5.2257,0.0,-5.1969,-5.1355,-5.0711,-5.1048,-5.23,-5.2401,-5.2841,-5.3518,-5.3518,-5.3518,-5.3551,-5.4168,-5.4513,-5.4665,-5.532,-5.6411,-5.7594,-5.685,-5.7213,-5.8027,0.0,0.0,0.0,0.0,0.0,-4.8958,-5.0961,-5.3041,-5.4555,-5.5095,-5.6586,-5.7369,-5.6831,-5.6459,-5.619,-5.5919,-5.5344,0.0,0.0,0.0,0.0,-5.2131,-5.1388,-4.9999,-4.7736,-4.6069,-4.4778,0.0,0.0,0.0,0.0,0.0,0.0,0.0,0.0,0.0,-4.5814,-4.5366,0.0,-4.3606,-4.3335,-4.276,-4.2049,-4.1441,-4.1136,-4.0933,-4.0316,-4.0113,-4.0113,-4.0113,-4.018,-4.0417,-4.117,-4.1914,-4.2625,-4.3403,-4.4181,-4.4925,-4.5534,-4.5331,-4.5122,-4.5568,-4.5331,-4.5292,-4.6346,-4.6718,-4.7192,-4.8545,-4.8714,-4.8477,-4.7973,0.0,0.0,0.0,0.0,0.0,0.0,0.0,0.0,0.0,0.0,0.0,0.0,0.0,0.0,0.0,0.0,0.0,0.0,0.0,0.0,0.0,-5.2358,0.0,0.0,0.0,-5.223,-5.2117,-5.1975,-5.2063,-5.2334,-5.2976,-5.3382,-5.3518,-5.3518,-5.3518,-5.3518,-5.3651,-5.4042,-5.4603,-5.4726,-5.532,-5.6031,-5.5262,-5.6319,-5.817,0.0,0.0,0.0,0.0,0.0,0.0,0.0,-5.4628,0.0,-5.493,-5.5203,-5.5306,-5.4968,-5.5376,-5.5547,-5.5175,-5.4803,-5.4431,-5.4059,-5.3687,-5.3145,-5.2334,-5.1589,0.0,-4.7939,-4.5988,-4.4697,-4.4097,0.0,0.0,0.0,0.0,0.0,0.0,0.0,-4.6731,0.0,0.0,0.0,-4.4587,-4.4181,-4.3572,-4.2794,-4.2049,-4.1542,-4.1102,-4.0383,-4.0113,-4.0113,-4.0113,-4.035,-4.073,-4.1102,-4.1982,-4.2963,-4.3301,-4.3978,-4.4682,-4.5026,-4.4886,-4.4682,-4.5026,-4.5128,-4.5466,-4.6549,-4.709,-4.7699,-4.8781,-4.9018,-4.8781,-4.8071,-4.7022,0.0,0.0,0.0,0.0,0.0,0.0,0.0,0.0,0.0,0.0,0.0,0.0,0.0,0.0,0.0,0.0,0.0,0.0,0.0,0.0,0.0,0.0,0.0,0.0,0.0,-5.2301,-5.2292,-5.2536,-5.2942,-5.3315,-5.3518,-5.3518,-5.3518,-5.3518,-5.3518,-5.3518,-5.3946,-5.4575,-5.4203,-5.4695,-5.5645,-5.5301,-5.6415,-5.8148,0.0,-4.7436,0.0,0.0,-5.1564,0.0,-5.3212,-5.5003,-5.5918,-5.4765,-5.3954,-5.3483,-5.3483,-5.453,-5.5006,-5.4397,-5.4363,-5.4126,-5.3551,-5.3518,-5.3078,-5.2131,-5.1522,-5.0137,-4.7939,-4.5872,-4.4676,0.0,0.0,0.0,0.0,0.0,0.0,0.0,0.0,0.0,0.0,0.0,-4.566,-4.5635,-4.4919,-4.4215,-4.3572,-4.2658,-4.1948,-4.1305,-4.0417,-4.0113,-4.0113,-4.0282,-4.0595,-4.1001,-4.117,-4.2117,-4.32,-4.3341,-4.3978,-4.4615,-4.4615,-4.4716,-4.4852,-4.4852,-4.5399,-4.6143,-4.6853,-4.7496,-4.8139,-4.8849,-4.9018,-4.8781,-4.8071,-4.7564,0.0,0.0,0.0,0.0,0.0,0.0,0.0,0.0,0.0,0.0,0.0,0.0,0.0,0.0,0.0,0.0,0.0,0.0,0.0,0.0,0.0,-5.2513,-5.2259,0.0,-5.2461,-5.257,-5.257,-5.2875,-5.3518,-5.3518,-5.3518,-5.3518,-5.3518,-5.3518,-5.3518,-5.3518,-5.3815,-5.4328,-5.3717,-5.4338,-5.5459,-5.5479,-5.6558,-5.8058,0.0,0.0,0.0,0.0,0.0,0.0,-5.328,-5.4125,-5.5006,-5.5512,-5.4904,-5.4499,-5.4499,-5.4025,-5.3687,-5.3619,-5.3619,-5.3585,-5.3518,-5.3518,-5.2841,-5.1386,-5.1251,-5.0137,-4.7939,-4.6413,-4.5481,0.0,0.0,0.0,0.0,0.0,0.0,0.0,0.0,0.0,0.0,-4.654,-4.6132,-4.5635,-4.4919,-4.4547,-4.4344,-4.2861,-4.2252,-4.2016,-4.062,-4.0113,-4.0214,-4.0865,-4.0696,-4.0316,-4.1001,-4.1745,-4.2523,-4.3172,-4.3978,-4.4615,-4.4615,-4.5094,-4.5602,-4.5602,-4.6143,-4.6887,-4.7631,-4.7838,-4.8139,-4.8849,-4.9018,-4.8781,-4.8071,-4.8409,-4.8545,0.0,0.0,0.0,0.0,0.0,0.0,0.0,0.0,0.0,0.0,0.0,0.0,0.0,0.0,0.0,0.0,0.0,0.0,-5.0003,0.0,-5.1172,-5.248,-5.2367,-5.267,-5.3382,-5.3382,-5.345,-5.3518,-5.3518,-5.3518,-5.3518,-5.3518,-5.3518,-5.3518,-5.3518,-5.3517,-5.3584,-5.3551,-5.3991,-5.4703,-5.4703,-5.6096,-5.7994,0.0,0.0,0.0,0.0,0.0,0.0,0.0,-5.4363,-5.4532,-5.4397,-5.4126,-5.3923,-5.3923,-5.3687,-5.3518,-5.3518,-5.3518,-5.3315,-5.2807,-5.2773,-5.2097,-5.0608,-5.0541,-4.9729,-4.7939,-4.6887,-4.6022,0.0,0.0,0.0,0.0,0.0,0.0,0.0,0.0,-4.7267,-4.7394,-4.6427,-4.5916,-4.5635,-4.4919,-4.4615,-4.4479,-4.3369,-4.2963,-4.2828,-4.1779,-4.1433,-4.1467,-4.1745,-4.1373,-4.0899,-4.161,-4.2692,-4.3639,-4.347,-4.4282,-4.5162,-4.4716,-4.4818,-4.5128,-4.5602,-4.6244,-4.6989,-4.7733,-4.821,-4.8646,-4.8951,-4.9018,-4.8917,-4.8612,-4.8443,-4.8409,0.0,0.0,0.0,0.0,0.0,0.0,0.0,0.0,0.0,0.0,0.0,0.0,0.0,0.0,0.0,0.0,0.0,0.0,-5.0299,0.0,-5.1919,-5.2944,-5.2532,-5.2706,-5.3518,-5.3518,-5.3518,-5.3518,-5.3518,-5.3518,-5.3518,-5.3518,-5.3518,-5.3518,-5.3518,-5.3518,-5.3518,-5.3518,-5.3957,-5.4634,-5.5108,-5.613,-5.7363,-5.1061,0.0,-5.1833,0.0,-5.3483,-5.3753,-5.4228,-5.4262,-5.4093,-5.3585,-5.3518,-5.3518,-5.3518,-5.3518,-5.3518,-5.3518,-5.3518,-5.3179,-5.2367,-5.23,-5.1623,-5.0135,-5.0101,0.0,-4.8274,-4.7496,-4.6794,-4.6136,-4.5757,0.0,0.0,0.0,0.0,0.0,-4.6625,-4.709,-4.7496,-4.6244,-4.5838,-4.594,-4.4959,-4.4615,-4.4513,-4.3707,-4.3375,-4.3274,-4.2557,-4.2286,-4.232,-4.2557,-4.2286,-4.1948,-4.2455,-4.3504,-4.4547,-4.4181,-4.4857,-4.5602,-4.506,-4.5089,-4.5393,-4.5872,-4.6752,-4.7564,-4.8105,-4.8815,-4.9323,-4.9323,-4.9154,-4.9018,-4.9018,-4.8578,-4.8477,-4.9187,0.0,0.0,0.0,0.0,0.0,0.0,0.0,-4.563,-4.4625,0.0,0.0,0.0,0.0,0.0,0.0,0.0,0.0,0.0,0.0,0.0,0.0,-5.2572,-5.2706,-5.3518,-5.3518,-5.3518,-5.3518,-5.3518,-5.3518,-5.3518,-5.3518,-5.3518,-5.3518,-5.3518,-5.3518,-5.3518,-5.3518,-5.4093,-5.5006,-5.5513,-5.6325,-5.7205,-5.19,-5.2674,-5.3247,-5.345,-5.4093,-5.4329,-5.3619,-5.3518,-5.3518,-5.3518,-5.3518,-5.3518,-5.3518,-5.3518,-5.3518,-5.3518,-5.3518,-5.3179,-5.2367,-5.23,-5.1623,0.0,0.0,-4.9729,-4.9018,-4.8244,-4.7872,-4.7872,0.0,0.0,-4.5408,0.0,-4.5404,-4.5442,-4.6389,-4.6786,-4.6752,-4.6007,-4.6109,-4.665,-4.519,-4.4615,-4.4513,-4.3707,-4.3375,-4.3274,-4.2557,-4.2286,-4.2388,-4.3139,-4.3375,-4.3375,-4.3375,-4.3944,-4.475,-4.5466,-4.5703,-4.5703,-4.5703,-4.621,-4.6786,-4.6786,-4.7902,-4.8984,-4.8984,-4.956,-5.0067,-5.0067,-4.9492,-4.9018,-4.9018,-4.8984,-4.9221,-4.9965,0.0,0.0,0.0,0.0,0.0,0.0,-4.7259,-4.6786,-4.6752,0.0,0.0,0.0,0.0,0.0,0.0,0.0,0.0,-5.0139,-5.027,0.0,-5.2595,-5.2398,-5.2706,-5.3518,-5.3518,-5.3518,-5.3518,-5.3518,-5.3518,-5.3518,-5.3518,-5.3518,-5.3518,-5.3518,-5.3518,-5.3518,-5.3518,-5.4397,-5.5716,-5.5681,-5.663,-5.7881,-5.2977,-5.3247,-5.3416,-5.3518,-5.3687,-5.3788,-5.3551,-5.3518,-5.3518,-5.3518,-5.3518,-5.3518,-5.3518,-5.3518,-5.3518,0.0,-5.3518,-5.2942,0.0,-5.1555,-5.0913,-4.9424,-4.9357,-4.9255,-4.9018,-4.8781,-4.8409,-4.7906,0.0,0.0,0.0,-4.638,-4.6203,-4.6389,-4.7196,-4.7259,-4.6786,-4.6549,-4.6278,-4.5974,-4.4987,-4.4615,-4.4581,-4.4316,-4.4215,-4.4181,-4.3972,-4.387,-4.3904,-4.4113,-4.4215,-4.4316,-4.4823,-4.55,-4.6041,-4.5771,-4.6075,-4.6346,-4.5838,-4.5872,-4.6177,-4.665,-4.753,-4.8511,-4.9526,-4.9932,-4.9965,-4.9458,-4.9154,-4.9018,-4.9018,-4.9018,-4.9086,-4.9323,-4.9357,0.0,0.0,0.0,0.0,0.0,-4.8139,-4.7902,0.0,-4.7259,0.0,0.0,0.0,0.0,0.0,0.0,0.0,0.0,-5.2048,0.0,-5.3163,-5.3138,-5.3247,-5.3518,-5.3518,-5.3518,-5.3518,-5.3518,-5.3518,-5.3518,-5.3518,-5.3518,-5.3518,-5.3518,-5.3518,-5.3518,-5.3518,-5.4397,-5.5681,-5.5681,-5.663,-5.7881,-5.3518,-5.3518,-5.3518,-5.3518,-5.3518,-5.3518,-5.3518,-5.3518,-5.3518,-5.3518,-5.3518,-5.3518,-5.3518,-5.3518,0.0,-5.3518,-5.3518,-5.2841,-5.1286,-5.1488,-5.0845,-4.9086,-4.9255,-4.9289,-4.9018,-4.9018,0.0,-4.8311,-4.8149,-4.7649,-4.6877,-4.6435,-4.6292,-4.6413,-4.7158,-4.709,-4.638,-4.638,-4.6278,-4.6007,-4.5021,-4.4784,-4.4959,-4.4716,-4.4615,-4.4615,-4.4615,-4.4615,-4.4615,-4.4615,-4.4784,-4.5094,-4.5568,-4.6413,-4.7056,-4.6346,-4.6447,-4.6616,-4.5906,-4.5906,-4.621,-4.6684,-4.7564,-4.8646,-4.983,-5.0101,-4.9965,-4.9492,-4.9187,-4.9018,-4.9018,-4.9018,-4.9086,-4.9357,-4.9424,-4.9424,-4.9424,0.0,0.0,0.0,0.0,0.0,0.0,-4.8612,-4.8612,0.0,0.0,0.0,0.0,0.0,0.0,-5.2003,-5.2953,0.0,-5.3452,-5.3479,-5.3518,-5.3518,-5.3518,-5.3518,-5.3518,-5.3518,-5.3518,-5.3518,-5.3518,-5.3518,-5.3518,-5.3518,-5.3518,-5.3518,-5.3518,-5.4397,-5.5681,-5.5681,-5.663,-5.7881,-5.3518,-5.3518,-5.3518,0.0,-5.3518,0.0,-5.3518,-5.3518,-5.3518,-5.3518,-5.3518,-5.3518,-5.3518,-5.3518,-5.3518,-5.3518,0.0,0.0,0.0,-5.186,-5.1251,-4.9086,-4.9661,-4.9695,-4.9018,-4.9018,-4.9018,-4.9018,-4.7564,-4.6549,-4.594,-4.5838,-4.5805,-4.5872,-4.6515,-4.638,-4.5703,-4.5703,-4.6109,-4.6583,-4.5258,-4.5094,-4.5635,-4.4953,-4.4649,-4.4615,-4.4615,-4.4615,-4.4615,-4.4682,-4.5128,-4.5737,-4.5838,-4.679,-4.7736,-4.7022,-4.6786,-4.665,-4.5974,-4.6278,-4.6819,-4.6853,-4.8003,-4.9255,-4.9932,-5.0135,-5.0135,-5.0101,-4.956,-4.9052,-4.9018,-4.9018,-4.9221,-4.9898,-4.9999,-4.9999,-4.9999,0.0,0.0,0.0,0.0,0.0,0.0,-5.0642,-4.9932,0.0,0.0,0.0,0.0,0.0,-5.0913,-5.2334,-5.3112,-5.3518,-5.3518,-5.3518,-5.3518,-5.3518,-5.3518,-5.3518,-5.3518,-5.3518,-5.3518,-5.3518,-5.3518,-5.3518,-5.3518,-5.3518,-5.3518,-5.3518,-5.3518,-5.4397,-5.5681,-5.5681,-5.663,-5.7881,0.0,0.0,-5.3518,-5.3518,-5.3518,-5.3518,-5.3518,-5.3518,-5.3518,-5.3518,-5.3518,-5.3518,-5.3518,-5.3518,-5.3518,-5.3518,-5.3518,-5.2841,-5.1286,-5.1386,-5.0744,-4.9086,-4.9187,-4.9187,-4.9018,-4.9018,-4.9018,-4.9018,-4.8105,-4.7834,-4.8206,-4.7056,-4.6853,-4.7331,-4.6955,-4.638,-4.5703,-4.5703,-4.5805,-4.594,-4.5568,-4.5534,-4.5703,-4.55,-4.5094,-4.4615,-4.4615,-4.4615,-4.4682,-4.5229,-4.5568,-4.5906,-4.7022,-4.7601,-4.7736,-4.7022,-4.6786,-4.6752,-4.6583,-4.665,-4.6921,-4.7496,-4.8748,-4.9864,-5.0067,-5.0541,-5.0777,-5.0202,-4.9965,-4.9661,-4.912,-4.9018,-4.9052,-4.9221,-4.9255,-4.9255,-4.9255,-4.9255,0.0,0.0,-5.0608,-5.1014,-5.1151,-5.1555,-5.1488,0.0,0.0,0.0,0.0,-5.1792,-5.2232,-5.3179,-5.3416,-5.3518,-5.3518,-5.3518,-5.3518,-5.3518,-5.3518,-5.3518,-5.3518,-5.3518,-5.3518,-5.3518,-5.3518,-5.3518,-5.3518,-5.3518,-5.3518,-5.3518,-5.3518,-5.4397,-5.5681,-5.5681,-5.663,-5.7881,-5.3518,-5.3518,-5.3518,-5.3518,-5.3518,-5.3518,-5.3518,-5.3518,-5.3518,-5.3518,-5.3518,-5.3518,-5.3518,-5.3518,-5.3518,-5.3518,-5.3179,-5.2469,-5.1285,-5.1185,-5.0541,-4.9052,-4.9323,-4.9357,-4.9018,-4.9018,-4.8849,-4.8511,-4.7767,-4.7597,-4.797,-4.6819,-4.6684,-4.7394,-4.7327,-4.6718,-4.5737,-4.6075,-4.6007,-4.5669,-4.5331,-4.5602,-4.6143,-4.5432,-4.5162,-4.506,-4.4716,-4.4818,-4.5162,-4.5568,-4.6143,-4.6853,-4.7635,-4.8108,-4.8274,-4.753,-4.7293,-4.7225,-4.6887,-4.7056,-4.7496,-4.824,-4.9526,-5.0507,-5.0168,-5.0947,-5.142,-5.0304,-5.0371,-5.027,-4.9187,-4.9289,-4.939,-4.9052,-4.9018,-4.9018,-4.9018,-4.9289,0.0,-5.0507,-5.1251,-5.186,-5.2232,-5.23,-5.2131,-5.1725,-5.1725,0.0,-5.2266,-5.2638,-5.3044,-5.3484,-5.3518,-5.3518,-5.3518,-5.3518,-5.3518,-5.3518,-5.3518,-5.3687,-5.3991,-5.3653,-5.389,-5.4465,-5.3788,-5.3687,-5.3991,-5.3653,-5.3518,-5.3551,-5.3856,-5.4702,-5.575,-5.6089,-5.6934,-5.7881,-5.3518,-5.3518,-5.3518,-5.3518,-5.3518,-5.3518,-5.3518,-5.3518,-5.3518,-5.3518,-5.3518,-5.3518,-5.3518,-5.3518,-5.3518,-5.3518,-5.2672,-5.186,-5.1251,-5.1116,-5.0439,-4.9052,-4.9593,-4.9627,-4.9018,-4.9018,-4.8714,-4.8041,-4.7327,-4.6955,-4.6955,-4.6109,-4.6075,-4.6819,-4.7225,-4.6786,-4.5737,-4.6244,-4.621,-4.5805,-4.5162,-4.5766,-4.6819,-4.5568,-4.5331,-4.5635,-4.4993,-4.5162,-4.5737,-4.5838,-4.6786,-4.7906,-4.8007,-4.8511,-4.8883,-4.8274,-4.8041,-4.7936,-4.7158,-4.7496,-4.824,-4.8849,-5.0033,-5.0913,-5.0371,-5.1319,-5.1894,-5.0541,-5.0777,-5.0777,-4.9289,-4.9593,-4.9864,-4.912,-4.9086,-4.912,-4.9018,0.0,-5.0371,-5.1116,-5.186,-5.2604,-5.3416,-5.2875,-5.2469,-5.2469,-5.2469,-5.2469,-5.2469,-5.3145,-5.3518,-5.3518,-5.3518,-5.3518,-5.3518,-5.3518,-5.3518,-5.3518,-5.3619,-5.3991,-5.4566,-5.4059,-5.4532,-5.5649,-5.4262,-5.4093,-5.4702,-5.3957,-5.3721,-5.389,-5.4532,-5.5209,-5.5953,-5.6562,-5.7273,-5.7881,-5.3518,-5.3518,-5.3518,-5.3518,-5.3518,-5.3518,-5.3518,-5.3518,-5.3518,-5.3518,-5.3518,-5.3518,-5.3518,-5.3518,-5.3518,-5.3518,-5.2198,-5.132,-5.1217,-5.0608,-4.9898,-4.9052,-4.912,-4.912,-4.9018,-4.9018,-4.8951,-4.8849,-4.8105,-4.7733,-4.7699,-4.6346,-4.6075,-4.6752,-4.5602,-4.5331,-4.5669,-4.519,-4.5568,-4.6616,-4.6481,-4.6955,-4.7703,-4.7496,-4.6684,-4.5703,-4.5568,-4.5602,-4.5805,-4.6413,-4.7192,-4.8007,-4.8646,-4.8917,-4.8984,-4.8883,-4.8849,-4.868,-4.7936,-4.8274,-4.8849,-4.8984,-4.9627,-5.0405,-5.0913,-5.1691,-5.2063,-5.1217,-5.115,-5.0777,-4.9289,-4.9593,-4.9864,-4.912,-4.9526,-4.9695,-4.9086,0.0,-5.0371,-5.1116,-5.186,-5.2604,-5.3416,-5.3382,-5.3315,-5.3315,-5.3315,-5.3315,-5.3315,-5.345,-5.3518,-5.3518,-5.3518,-5.3518,-5.3518,-5.3518,-5.3518,-5.3518,-5.4126,-5.4465,-5.46,-5.5141,-5.5513,-5.5683,-5.4803,-5.4837,-5.548,-5.4735,-5.4803,-5.5378,-5.5513,-5.5987,-5.663,-5.6765,-5.7273,-5.7881,-5.3518,-5.3518,-5.3518,-5.3518,-5.3518,-5.3518,-5.3518,-5.3518,-5.3518,-5.3518,-5.3518,-5.3518,-5.3518,-5.3518,-5.3518,-5.3518,-5.2469,-5.1623,-5.1251,-5.0135,-4.9357,-4.9018,-4.9018,-4.9018,-4.9018,-4.9018,-4.9018,-4.9018,-4.7868,-4.7327,-4.7293,-4.5805,-4.55,-4.6177,-4.55,-4.5365,-4.5703,-4.5331,-4.5602,-4.621,-4.621,-4.6887,-4.7838,-4.7462,-4.6887,-4.6244,-4.5838,-4.5974,-4.6346,-4.6684,-4.7564,-4.8578,-4.8883,-4.9018,-4.9018,-4.9018,-4.9018,-4.8951,-4.8578,-4.8748,-4.9018,-4.9018,-4.9864,-5.0777,-5.115,-5.2131,-5.2604,-5.1422,-5.186,-5.186,-4.9932,-5.0507,-5.1048,-5.0304,-5.0135,0.0,0.0,-5.0473,-5.098,-5.1725,-5.2469,-5.3078,-5.345,-5.3518,-5.3518,-5.3518,-5.3518,-5.3518,-5.3518,-5.3518,-5.3518,-5.3518,-5.3518,-5.3518,-5.3518,-5.3518,-5.3687,-5.4093,-5.4431,-5.5006,-5.5784,-5.575,-5.6156,-5.6833,-5.5683,-5.5615,-5.6258,-5.5513,-5.5412,-5.575,-5.6156,-5.6494,-5.6867,-5.7239,-5.7611,-5.7881,-5.3518,-5.3518,-5.3518,-5.3518,-5.3518,-5.3518,-5.3518,-5.3518,-5.3518,-5.3518,-5.3518,-5.3518,-5.3518,-5.3518,-5.3518,-5.3518,-5.2604,-5.1826,-5.1251,-4.983,-4.9018,-4.9018,-4.9018,-4.9018,-4.9018,-4.9018,-4.8917,-4.8748,-4.7428,-4.6718,-4.6515,-4.5224,-4.4919,-4.5432,-4.5432,-4.5432,-4.5432,-4.5432,-4.5534,-4.5703,-4.5906,-4.6752,-4.7838,-4.7462,-4.7192,-4.6955,-4.621,-4.6312,-4.6752,-4.6583,-4.753,-4.8748,-4.8748,-4.8849,-4.9018,-4.9018,-4.9018,-4.9018,-4.9018,-4.912,-4.9255,-4.9255,-5.0371,-5.1488,-5.1488,-5.2536,-5.3112,-5.1758,-5.2401,-5.2638,-5.071,-5.142,-5.2063,-5.132,0.0,0.0,0.0,-5.1352,-5.1691,-5.2232,-5.301,-5.3518,-5.3518,-5.3518,-5.3518,-5.3518,-5.3518,-5.3518,-5.3518,-5.3518,-5.3518,-5.3518,-5.3518,-5.3518,-5.3518,-5.3687,-5.4025,-5.46,-5.4938,-5.5683,-5.6799,-5.6393,-5.6833,-5.7814,-5.6528,-5.6393,-5.7002,-5.6258,-5.6055,-5.6292,-5.6833,-5.707,-5.7137,-5.7881,-5.8152,-5.8186,-5.3518,-5.3518,-5.3518,-5.3518,-5.3518,-5.3518,-5.3518,-5.3518,-5.3518,-5.3518,-5.3518,-5.3518,-5.3518,-5.3518,-5.3518,-5.3518,-5.2164,-5.1285,-5.1185,-4.983,-4.9018,-4.9018,-4.9018,-4.9018,-4.9018,-4.9018,-4.868,-4.7973,-4.7192,-4.6447,-4.5771,-4.4987,-4.4649,-4.4682,-4.4682,-4.4682,-4.4682,-4.4682,-4.506,-4.5771,-4.6447,-4.7192,-4.7973,-4.8612,-4.8409,-4.7703,-4.6989,-4.6752,-4.6684,-4.6007,-4.6786,-4.7973,-4.7973,-4.8477,-4.9018,-4.9018,-4.9018,-4.9018,-4.9018,-4.9492,-4.9999,-4.9999,-5.1116,-5.2232,-5.2232,-5.2875,-5.3281,-5.2401,-5.23,-5.2131,-5.1285,-5.1792,-5.2063,-5.132,0.0,0.0,-5.1286,-5.1792,-5.2232,-5.23,-5.301,-5.3518,-5.3518,-5.3518,-5.3518,-5.3518,-5.3518,-5.3518,-5.3518,-5.3518,-5.3518,-5.3518,-5.3518,-5.3518,-5.3518,-5.416,-5.4532,-5.46,-5.5987,-5.6697,-5.6833,-5.7442,-5.778,-5.7848,-5.707,-5.7137,-5.7746,-5.7036,-5.7137,-5.7712,-5.778,-5.7814,-5.7915,-5.866,-5.893,-5.9032,-5.3518,-5.3518,-5.3518,-5.3518,-5.3518,-5.3518,-5.3518,-5.3518,-5.3518,-5.3518,-5.3518,-5.3518,-5.3518,-5.3518,-5.3518,-5.3518,-5.2976,-5.2232,-5.1252,-5.071,-4.9965,-4.9052,-4.9018,-4.9018,-4.9018,-4.9018,-4.8883,-4.8578,-4.7834,-4.7124,-4.638,-4.5635,-4.5026,-4.4615,-4.4615,-4.4615,-4.4615,-4.4615,-4.5026,-4.5771,-4.6481,-4.6955,-4.7293,-4.8037,-4.7868,-4.7192,-4.6887,-4.709,-4.7462,-4.7158,-4.7767,-4.8578,-4.8578,-4.8781,-4.9018,-4.9018,-4.9018,-4.9086,-4.956,-4.9864,-5.0202,-5.0676,-5.1555,-5.23,-5.23,-5.2909,-5.3281,-5.2469,-5.2706,-5.2807,-5.2029,-5.2536,-5.2942,-5.2672,0.0,-5.2367,-5.2604,-5.2435,-5.2503,-5.2976,-5.3315,-5.3518,-5.3518,-5.3518,-5.3518,-5.3518,-5.3518,-5.3518,-5.3518,-5.3923,-5.416,-5.416,-5.4634,-5.4634,-5.4194,-5.4905,-5.5513,-5.5953,-5.6528,-5.7036,-5.7476,-5.7746,-5.7881,-5.7881,-5.7577,-5.7645,-5.7881,-5.7577,-5.7645,-5.7881,-5.7881,-5.7881,-5.7983,-5.8727,-5.9032,-5.9133,-5.3518,-5.3518,-5.3518,-5.3518,-5.3518,-5.3518,-5.3518,-5.3518,-5.3518,-5.3518,-5.3518,-5.3518,-5.3518,-5.3518,-5.3518,-5.3518,-5.3281,-5.257,-5.1252,-5.0777,-5.0067,-4.9052,-4.9018,-4.9018,-4.9018,-4.9018,-4.8883,-4.8646,-4.8142,-4.753,-4.6786,-4.6278,-4.5771,-4.5292,-4.5026,-4.4925,-4.4925,-4.4716,-4.4891,-4.5432,-4.6413,-4.6786,-4.6921,-4.7902,-4.7936,-4.7462,-4.7225,-4.7496,-4.7838,-4.7631,-4.8037,-4.8646,-4.8646,-4.8984,-4.9357,-4.9357,-4.9357,-4.9492,-5.0236,-5.0439,-5.0608,-5.1386,-5.2131,-5.2672,-5.2672,-5.3112,-5.3348,-5.2807,-5.3112,-5.3348,-5.2773,-5.3145,-5.3518,-5.3518,-5.3044,-5.2875,-5.3416,-5.301,-5.2875,-5.345,-5.3518,-5.3518,-5.3518,-5.3518,-5.3585,-5.3822,-5.3856,-5.3957,-5.4194,-5.4668,-5.4938,-5.4938,-5.5683,-5.5818,-5.5277,-5.5784,-5.6325,-5.6799,-5.7036,-5.7408,-5.7881,-5.7881,-5.7881,-5.7881,-5.7881,-5.7881,-5.7881,-5.7881,-5.7881,-5.7915,-5.8152,-5.8254,-5.8355,-5.937,-5.9742,-5.9844,-5.3518,-5.3518,-5.3518,-5.3518,-5.3518,-5.3518,-5.3518,-5.3518,-5.3518,-5.3518,-5.3518,-5.3518,-5.3518,-5.3518,-5.3518,-5.3518,-5.2773,-5.1995,-5.1219,-4.983,-4.9018,-4.9018,-4.9018,-4.9018,-4.9018,-4.9018,-4.8646,-4.7906,-4.7906,-4.753,-4.6819,-4.6819,-4.6786,-4.6752,-4.6041,-4.5703,-4.5669,-4.4925,-4.4615,-4.475,-4.621,-4.6786,-4.6955,-4.8443,-4.8984,-4.8917,-4.8173,-4.7906,-4.78,-4.7056,-4.7327,-4.7906,-4.7906,-4.8917,-5.0101,-5.0101,-5.0101,-5.027,-5.1014,-5.1217,-5.1386,-5.2131,-5.2909,-5.3518,-5.3518,-5.3518,-5.3518,-5.3518,-5.3518,-5.3518,-5.3518,-5.3518,-5.3518,-5.3518,-5.3518,-5.3518,-5.3518,-5.3518,-5.3518,-5.3518,-5.3518,-5.3518,-5.3518,-5.3518,-5.3822,-5.4532,-5.46,-5.4938,-5.5647,-5.5716,-5.5716,-5.5716,-5.6427,-5.6799,-5.6799,-5.6799,-5.6799,-5.6833,-5.7543,-5.7881,-5.7881,-5.7881,-5.7881,-5.7881,-5.7881,-5.7881,-5.7881,-5.7881,-5.7881,-5.7983,-5.8727,-5.9032,-5.9201,-6.0723,-6.1298,-6.14,-5.3518,-5.3518,-5.3518,-5.3518,-5.3518,-5.3518,-5.3518,-5.3518,-5.3518,-5.3518,-5.3518,-5.3518,-5.3518,-5.3518,-5.3518,-5.3518,-5.3281,-5.2604,-5.1286,-4.983,-4.9018,-4.9018,-4.9018,-4.9018,-4.9018,-4.9018,-4.8883,-4.868,-4.868,-4.8308,-4.7597,-4.7597,-4.7293,-4.6786,-4.6549,-4.6481,-4.6447,-4.6244,-4.6143,-4.621,-4.7192,-4.7259,-4.6887,-4.7868,-4.824,-4.8206,-4.7973,-4.824,-4.8646,-4.8409,-4.8815,-4.9424,-4.9424,-4.9729,-5.0101,-5.0101,-5.0473,-5.1048,-5.1792,-5.1961,-5.2164,-5.2942,-5.3315,-5.3518,-5.3518,-5.3518,-5.3518,-5.3518,-5.3518,-5.3518,-5.3518,-5.3518,-5.3518,-5.3518,-5.3518,-5.3518,-5.3518,-5.3518,-5.3518,-5.3518,-5.3518,-5.3518,-5.3518,-5.3957,-5.4363,-5.4566,-5.5074,-5.548,-5.5716,-5.619,-5.6461,-5.6461,-5.7171,-5.7577,-5.7577,-5.7577,-5.7577,-5.7577,-5.778,-5.7881,-5.7881,-5.7881,-5.7881,-5.7881,-5.7881,-5.7881,-5.7881,-5.7881,-5.8186,-5.8693,-5.893,-5.9336,-5.9911,-6.0926,-6.1298,-6.14,-5.3518,-5.3518,-5.3518,-5.3518,-5.3518,-5.3518,-5.3518,-5.3518,-5.3518,-5.3518,-5.3518,-5.3518,-5.3518,-5.3518,-5.3518,-5.3518,-5.3213,-5.2503,-5.1285,-5.0101,-4.9289,-4.9018,-4.9018,-4.9018,-4.9018,-4.9018,-4.9018,-4.9018,-4.9018,-4.8781,-4.8342,-4.8342,-4.8105,-4.7665,-4.7361,-4.7259,-4.7225,-4.6921,-4.6786,-4.6853,-4.7597,-4.7631,-4.7327,-4.8071,-4.8545,-4.8781,-4.8781,-4.9255,-4.9864,-4.9864,-5.0168,-5.0574,-5.0879,-5.0947,-5.0947,-5.0947,-5.1285,-5.1725,-5.2198,-5.23,-5.2503,-5.3315,-5.3518,-5.3518,-5.3518,-5.3518,-5.3518,-5.3518,-5.3518,-5.3518,-5.3518,-5.3518,-5.3518,-5.3518,-5.3518,-5.3518,-5.3518,-5.3518,-5.3518,-5.3518,-5.3518,-5.3619,-5.3923,-5.4329,-5.4837,-5.5412,-5.6156,-5.6562,-5.6562,-5.7002,-5.7374,-5.7679,-5.7814,-5.8186,-5.8761,-5.849,-5.8186,-5.7881,-5.7881,-5.7881,-5.7915,-5.8186,-5.8355,-5.8355,-5.8626,-5.8761,-5.8761,-5.8761,-5.9032,-5.9471,-5.981,-6.0182,-6.0655,-6.1434,-6.1738,-6.1806,-5.3518,-5.3518,-5.3518,-5.3518,-5.3518,-5.3518,-5.3518,-5.3518,-5.3518,-5.3518,-5.3518,-5.3518,-5.3518,-5.3518,-5.3518,-5.3518,-5.2773,-5.1995,-5.1219,-5.0507,-4.9763,-4.9052,-4.9018,-4.9018,-4.9018,-4.9018,-4.9018,-4.9018,-4.9018,-4.9018,-4.9018,-4.9018,-4.9018,-4.8984,-4.8308,-4.7973,-4.7939,-4.7293,-4.6989,-4.7056,-4.7733,-4.7973,-4.8075,-4.8815,-4.9526,-5.0101,-5.0168,-5.0642,-5.1185,-5.1285,-5.1219,-5.1352,-5.2063,-5.23,-5.23,-5.23,-5.2367,-5.2401,-5.2401,-5.2401,-5.257,-5.3315,-5.3518,-5.3518,-5.3518,-5.3518,-5.3518,-5.3585,-5.3551,-5.3551,-5.3687,-5.3653,-5.3619,-5.3687,-5.3721,-5.3721,-5.3721,-5.3653,-5.3619,-5.3687,-5.3585,-5.3822,-5.46,-5.4769,-5.5378,-5.6799,-5.7577,-5.7983,-5.7983,-5.8051,-5.8389,-5.9099,-5.8457,-5.8727,-6.008,-5.9438,-5.8727,-5.7983,-5.8051,-5.8051,-5.8017,-5.8761,-5.9099,-5.9167,-5.981,-6.0114,-6.0114,-6.0114,-6.0148,-6.0283,-6.1028,-6.1332,-6.1467,-6.2144,-6.2381,-6.2381,-5.3518,-5.3518,-5.3518,-5.3518,-5.3518,-5.3518,-5.3518,-5.3518,-5.3518,-5.3518,-5.3518,-5.3518,-5.3518,-5.3518,-5.3518,-5.3518,-5.2773,-5.1995,-5.1219,-5.0507,-4.9763,-4.9052,-4.9018,-4.9018,-4.9018,-4.9018,-4.9018,-4.9018,-4.9018,-4.9018,-4.9018,-4.9018,-4.9018,-4.8984,-4.8849,-4.8781,-4.8748,-4.8578,-4.8511,-4.8545,-4.8714,-4.8781,-4.8849,-4.9593,-4.9965,-5.0168,-5.0744,-5.1082,-5.1286,-5.186,-5.1691,-5.1352,-5.2063,-5.23,-5.23,-5.23,-5.2739,-5.3247,-5.3247,-5.3247,-5.3281,-5.345,-5.3518,-5.3518,-5.3518,-5.3518,-5.3653,-5.4228,-5.389,-5.3856,-5.5006,-5.4769,-5.4532,-5.5141,-5.5243,-5.5243,-5.5243,-5.4735,-5.4566,-5.5175,-5.4228,-5.4025,-5.5344,-5.5987,-5.6697,-5.7577,-5.8355,-5.8761,-5.8761,-5.9302,-5.9708,-5.9877,-5.9708,-5.9776,-6.0114,-5.9945,-5.9505,-5.8795,-5.9336,-5.9336,-5.8795,-5.9539,-5.9877,-5.9877,-6.0047,-6.0114,-6.0114,-6.0114,-6.0486,-6.1061,-6.1231,-6.1637,-6.2178,-6.2347,-6.2381,-6.2381,-5.3518,-5.3518,-5.3518,-5.3518,-5.3518,-5.3518,-5.3518,-5.3518,-5.3518,-5.3518,-5.3518,-5.3518,-5.3518,-5.3518,-5.3518,-5.3518,-5.3112,-5.257,-5.1792,-5.1048,-5.0304,-4.956,-4.9187,-4.9018,-4.9018,-4.9018,-4.9018,-4.9018,-4.9018,-4.9018,-4.9018,-4.9018,-4.9018,-4.9018,-4.9018,-4.9018,-4.9018,-4.9018,-4.9018,-4.9018,-4.9018,-4.9221,-4.956,-4.9932,-5.0541,-5.1183,-5.1589,-5.1995,-5.2367,-5.2739,-5.2638,-5.2367,-5.2739,-5.2875,-5.2875,-5.2875,-5.3179,-5.3518,-5.3518,-5.3518,-5.3585,-5.3923,-5.4025,-5.3923,-5.3585,-5.3788,-5.4126,-5.4499,-5.4566,-5.4803,-5.5546,-5.5378,-5.5243,-5.5649,-5.5681,-5.5681,-5.5681,-5.5378,-5.5277,-5.5683,-5.504,-5.5006,-5.6122,-5.69,-5.7645,-5.8355,-5.8795,-5.9167,-5.9505,-5.9911,-6.0283,-6.0655,-6.0317,-6.0452,-6.1197,-6.0858,-6.0486,-6.0114,-6.0114,-5.9911,-5.9573,-6.0317,-6.0655,-6.0689,-6.1028,-6.1197,-6.1197,-6.1197,-6.1434,-6.1806,-6.1806,-6.2042,-6.2381,-6.2381,-6.2381,-6.2381,-5.3518,-5.3518,-5.3518,-5.3518,-5.3518,-5.3518,-5.3518,-5.3518,-5.3518,-5.3518,-5.3518,-5.3518,-5.3518,-5.3518,-5.3518,-5.3518,-5.3518,-5.3179,-5.2367,-5.1725,-5.1082,-5.0304,-4.9695,-4.9323,-4.9187,-4.9187,-4.912,-4.9018,-4.9018,-4.9018,-4.9018,-4.9018,-4.9018,-4.9018,-4.9018,-4.9018,-4.9018,-4.9018,-4.9018,-4.9018,-4.9018,-4.9357,-4.9932,-5.0168,-5.1048,-5.2164,-5.2401,-5.2942,-5.3518,-5.3518,-5.3518,-5.3518,-5.3518,-5.3518,-5.3518,-5.3518,-5.3518,-5.3551,-5.3653,-5.3687,-5.3856,-5.46,-5.4769,-5.4634,-5.4025,-5.4363,-5.4803,-5.4938,-5.5378,-5.5784,-5.6055,-5.5987,-5.5953,-5.6055,-5.6089,-5.6089,-5.6089,-5.5987,-5.5953,-5.6089,-5.6089,-5.6292,-5.6765,-5.7577,-5.8355,-5.8964,-5.9268,-5.9674,-6.0283,-6.0419,-6.0791,-6.1467,-6.0858,-6.1095,-6.2381,-6.1772,-6.1501,-6.1467,-6.0825,-6.0419,-6.0317,-6.1129,-6.1501,-6.1535,-6.211,-6.2381,-6.2381,-6.2381,-6.2381,-6.2381,-6.2381,-6.2381,-6.2381,-6.2381,-6.2381,-6.2381,-5.3518,-5.3518,-5.3518,-5.3518,-5.3518,-5.3518,-5.3518,-5.3518,-5.3518,-5.3518,-5.3518,-5.3518,-5.3518,-5.3518,-5.3518,-5.3518,-5.3518,-5.3179,-5.2367,-5.2198,-5.1826,-5.1082,-5.098,-5.0608,-4.9965,-4.9932,-4.9627,-4.9018,-4.9018,-4.9018,-4.9018,-4.9018,-4.9018,-4.9018,-4.9018,-4.9018,-4.9018,-4.9018,-4.9018,-4.9018,-4.9018,-4.9052,-4.9289,-5.0574,-5.1183,-5.1522,-5.2875,-5.3416,-5.3518,-5.3518,-5.3518,-5.3518,-5.3518,-5.3518,-5.3518,-5.3518,-5.3518,-5.3653,-5.4262,-5.4431,-5.4634,-5.5378,-5.5581,-5.5547,-5.5446,-5.5513,-5.575,-5.6359,-5.6089,-5.6089,-5.7374,-5.707,-5.6867,-5.7476,-5.7577,-5.7577,-5.7577,-5.7036,-5.69,-5.7509,-5.7577,-5.7374,-5.6867,-5.8051,-5.8896,-5.8998,-6.025,-6.1028,-6.1129,-6.1738,-6.2144,-6.2245,-6.2144,-6.2178,-6.2381,-6.2279,-6.2245,-6.2245,-6.2144,-6.1738,-6.1163,-6.1907,-6.2245,-6.2245,-6.2347,-6.2381,-6.2381,-6.2381,-6.2381,-6.2381,-6.2381,-6.2381,-6.2381,-6.2381,-6.2381,-6.2381,-5.3518,-5.3518,-5.3518,-5.3518,-5.3518,-5.3518,-5.3518,-5.3518,-5.3518,-5.3518,-5.3518,-5.3518,-5.3518,-5.3518,-5.3518,-5.3518,-5.3518,-5.3348,-5.2976,-5.257,-5.2164,-5.1826,-5.142,-5.0845,-5.0101,-5.0101,-4.9729,-4.9018,-4.9018,-4.9018,-4.9018,-4.9018,-4.9018,-4.9018,-4.9018,-4.9018,-4.9018,-4.9018,-4.9018,-4.9018,-4.9018,-4.9255,-4.9729,-5.0811,-5.1488,-5.1961,-5.3112,-5.3518,-5.3518,-5.3518,-5.3518,-5.3518,-5.3518,-5.3518,-5.3518,-5.3518,-5.3518,-5.3653,-5.4397,-5.46,-5.4871,-5.6021,-5.6325,-5.6427,-5.6833,-5.6934,-5.69,-5.6833,-5.6867,-5.7137,-5.778,-5.7983,-5.8017,-5.7915,-5.8254,-5.8355,-5.7949,-5.7611,-5.7679,-5.8423,-5.8524,-5.8558,-5.8626,-5.9235,-5.981,-6.025,-6.0926,-6.167,-6.2482,-6.2448,-6.2584,-6.299,-6.2618,-6.2381,-6.2381,-6.2381,-6.2381,-6.2381,-6.2821,-6.2618,-6.1907,-6.2245,-6.2381,-6.2381,-6.2381,-6.2381,-6.2381,-6.2381,-6.2381,-6.2381,-6.2381,-6.2381,-6.2381,-6.2381,-6.2381,-6.2381]},{"header":{"parameterUnit":"m.s-1","parameterCategory":1,"la1":30.6,"la2":28.766,"lo1":-90.7593,"lo2":-88.6598,"dy":0.0162,"dx":0.0183,"nx":116,"ny":114,"refTime":"2023-03-22T18:00:00:Z","depth":0,"parameterNumber":3,"parameterNumberName":"V-component_of_WINDS"},"data":[0.0,0.0,0.0,0.0,0.0,0.0,0.0,0.0,0.0,0.0,0.0,0.0,0.0,0.0,0.0,0.0,0.0,0.0,0.0,0.0,0.0,0.0,0.0,0.0,0.0,0.0,0.0,0.0,0.0,0.0,0.0,0.0,0.0,0.0,0.0,0.0,0.0,0.0,0.0,0.0,0.0,0.0,0.0,0.0,0.0,0.0,0.0,0.0,0.0,0.0,0.0,0.0,0.0,0.0,0.0,0.0,0.0,0.0,0.0,0.0,0.0,0.0,0.0,0.0,0.0,0.0,0.0,0.0,0.0,0.0,0.0,0.0,0.0,0.0,0.0,0.0,0.0,0.0,0.0,0.0,0.0,0.0,0.0,0.0,0.0,0.0,0.0,0.0,0.0,0.0,0.0,0.0,0.0,0.0,0.0,0.0,0.0,0.0,0.0,0.0,0.0,0.0,0.0,0.0,0.0,0.0,0.0,0.0,0.0,0.0,0.0,0.0,0.0,0.0,0.0,0.0,0.0,0.0,0.0,0.0,0.0,0.0,0.0,0.0,0.0,0.0,0.0,0.0,0.0,0.0,0.0,0.0,0.0,0.0,0.0,0.0,0.0,0.0,0.0,0.0,0.0,0.0,0.0,0.0,0.0,0.0,0.0,0.0,0.0,0.0,0.0,0.0,0.0,0.0,0.0,0.0,0.0,0.0,0.0,0.0,0.0,0.0,0.0,0.0,0.0,0.0,0.0,0.0,0.0,0.0,0.0,0.0,0.0,0.0,0.0,0.0,0.0,0.0,0.0,0.0,0.0,0.0,0.0,0.0,0.0,0.0,0.0,0.0,0.0,0.0,0.0,0.0,0.0,0.0,0.0,0.0,0.0,0.0,0.0,0.0,0.0,0.0,0.0,0.0,0.0,0.0,0.0,0.0,0.0,0.0,0.0,0.0,0.0,0.0,0.0,0.0,0.0,0.0,0.0,0.0,0.0,0.0,0.0,0.0,0.0,0.0,0.0,0.0,0.0,0.0,0.0,0.0,0.0,0.0,0.0,0.0,0.0,0.0,0.0,0.0,0.0,0.0,0.0,0.0,0.0,0.0,0.0,0.0,0.0,0.0,0.0,0.0,0.0,0.0,0.0,0.0,0.0,0.0,0.0,0.0,0.0,0.0,0.0,0.0,0.0,0.0,0.0,0.0,0.0,0.0,0.0,0.0,0.0,0.0,0.0,0.0,0.0,0.0,0.0,0.0,0.0,0.0,0.0,0.0,0.0,0.0,0.0,0.0,0.0,0.0,0.0,0.0,0.0,0.0,0.0,0.0,0.0,0.0,0.0,0.0,0.0,0.0,0.0,0.0,0.0,0.0,0.0,0.0,0.0,0.0,0.0,0.0,0.0,0.0,0.0,0.0,0.0,0.0,0.0,0.0,0.0,0.0,0.0,0.0,0.0,0.0,0.0,0.0,0.0,0.0,0.0,0.0,0.0,0.0,0.0,0.0,0.0,0.0,0.0,0.0,0.0,0.0,0.0,0.0,0.0,0.0,0.0,0.0,0.0,0.0,0.0,0.0,0.0,0.0,0.0,0.0,0.0,0.0,0.0,0.0,0.0,0.0,0.0,0.0,0.0,0.0,0.0,0.0,0.0,0.0,0.0,0.0,0.0,0.0,0.0,0.0,0.0,0.0,0.0,0.0,0.0,0.0,0.0,0.0,0.0,0.0,0.0,0.0,0.0,0.0,0.0,0.0,0.0,0.0,0.0,0.0,0.0,0.0,0.0,0.0,0.0,0.0,0.0,0.0,0.0,0.0,0.0,0.0,0.0,0.0,0.0,0.0,0.0,0.0,0.0,0.0,0.0,0.0,0.0,0.0,0.0,0.0,0.0,0.0,0.0,0.0,0.0,0.0,0.0,0.0,0.0,0.0,0.0,0.0,0.0,0.0,0.0,0.0,0.0,0.0,0.0,0.0,0.0,0.0,0.0,0.0,0.0,0.0,0.0,0.0,0.0,0.0,0.0,0.0,0.0,0.0,0.0,0.0,0.0,0.0,0.0,0.0,0.0,0.0,0.0,0.0,0.0,0.0,0.0,0.0,0.0,0.0,0.0,0.0,0.0,0.0,0.0,0.0,0.0,0.0,0.0,0.0,0.0,0.0,0.0,0.0,0.0,0.0,0.0,0.0,0.0,0.0,0.0,0.0,0.0,0.0,0.0,0.0,0.0,0.0,0.0,0.0,0.0,0.0,0.0,0.0,0.0,0.0,0.0,0.0,0.0,0.0,0.0,0.0,0.0,0.0,0.0,0.0,0.0,0.0,0.0,0.0,0.0,0.0,0.0,0.0,0.0,0.0,0.0,0.0,0.0,0.0,0.0,0.0,0.0,0.0,0.0,0.0,0.0,0.0,0.0,0.0,0.0,0.0,0.0,0.0,0.0,0.0,0.0,0.0,0.0,0.0,0.0,0.0,0.0,0.0,0.0,0.0,0.0,0.0,0.0,0.0,0.0,0.0,0.0,0.0,0.0,0.0,0.0,0.0,0.0,0.0,0.0,0.0,0.0,0.0,0.0,0.0,0.0,0.0,0.0,0.0,0.0,0.0,0.0,0.0,0.0,0.0,0.0,0.0,0.0,0.0,0.0,0.0,0.0,0.0,0.0,0.0,0.0,0.0,0.0,0.0,0.0,0.0,0.0,0.0,0.0,0.0,0.0,0.0,0.0,0.0,0.0,0.0,0.0,0.0,0.0,0.0,0.0,0.0,0.0,0.0,0.0,0.0,0.0,0.0,0.0,0.0,0.0,0.0,0.0,0.0,0.0,0.0,0.0,0.0,0.0,0.0,0.0,0.0,0.0,0.0,0.0,0.0,0.0,0.0,0.0,0.0,0.0,0.0,0.0,0.0,0.0,0.0,0.0,0.0,0.0,0.0,0.0,0.0,0.0,0.0,0.0,0.0,0.0,0.0,0.0,0.0,0.0,0.0,0.0,0.0,0.0,0.0,0.0,0.0,0.0,0.0,0.0,0.0,0.0,0.0,0.0,0.0,0.0,0.0,0.0,0.0,0.0,0.0,0.0,0.0,0.0,0.0,0.0,0.0,0.0,0.0,0.0,0.0,0.0,0.0,0.0,0.0,0.0,0.0,0.0,0.0,0.0,0.0,0.0,0.0,0.0,0.0,0.0,0.0,0.0,0.0,0.0,0.0,0.0,0.0,0.0,0.0,0.0,0.0,0.0,0.0,0.0,0.0,0.0,0.0,0.0,0.0,0.0,0.0,0.0,0.0,0.0,0.0,0.0,0.0,0.0,0.0,0.0,0.0,0.0,0.0,0.0,0.0,0.0,0.0,0.0,0.0,0.0,0.0,0.0,0.0,0.0,0.0,0.0,0.0,0.0,0.0,0.0,0.0,0.0,0.0,0.0,0.0,0.0,0.0,0.0,0.0,0.0,0.0,0.0,0.0,0.0,0.0,0.0,0.0,0.0,0.0,0.0,0.0,0.0,0.0,0.0,0.0,0.0,0.0,0.0,0.0,0.0,0.0,0.0,0.0,0.0,0.0,0.0,0.0,0.0,0.0,0.0,0.0,0.0,0.0,0.0,0.0,0.0,0.0,0.0,0.0,0.0,0.0,0.0,0.0,0.0,0.0,0.0,0.0,0.0,0.0,0.0,0.0,0.0,0.0,0.0,0.0,0.0,0.0,0.0,0.0,0.0,0.0,0.0,0.0,0.0,0.0,0.0,0.0,0.0,0.0,0.0,0.0,0.0,0.0,0.0,0.0,0.0,0.0,0.0,0.0,0.0,0.0,0.0,0.0,0.0,0.0,0.0,0.0,0.0,0.0,0.0,0.0,0.0,0.0,0.0,0.0,0.0,0.0,0.0,0.0,0.0,0.0,0.0,0.0,0.0,0.0,0.0,0.0,0.0,0.0,0.0,0.0,0.0,0.0,0.0,0.0,0.0,0.0,0.0,0.0,0.0,0.0,0.0,0.0,0.0,0.0,0.0,0.0,0.0,0.0,0.0,0.0,0.0,0.0,0.0,0.0,0.0,0.0,0.0,0.0,0.0,0.0,0.0,0.0,0.0,0.0,0.0,0.0,0.0,0.0,0.0,0.0,0.0,0.0,0.0,0.0,0.0,0.0,0.0,0.0,0.0,0.0,0.0,0.0,0.0,0.0,0.0,0.0,0.0,0.0,0.0,0.0,0.0,0.0,0.0,0.0,0.0,0.0,0.0,0.0,0.0,0.0,0.0,0.0,0.0,0.0,0.0,0.0,0.0,0.0,0.0,0.0,0.0,0.0,0.0,0.0,0.0,0.0,0.0,0.0,0.0,0.0,0.0,0.0,0.0,0.0,0.0,0.0,0.0,0.0,0.0,0.0,0.0,0.0,0.0,0.0,0.0,0.0,0.0,0.0,0.0,0.0,0.0,0.0,0.0,0.0,0.0,0.0,0.0,0.0,0.0,0.0,0.0,0.0,0.0,0.0,0.0,0.0,0.0,0.0,0.0,0.0,0.0,0.0,0.0,0.0,0.0,0.0,0.0,0.0,0.0,0.0,0.0,0.0,0.0,0.0,0.0,0.0,0.0,0.0,0.0,0.0,0.0,0.0,0.0,0.0,0.0,0.0,0.0,0.0,0.0,0.0,0.0,0.0,0.0,0.0,0.0,0.0,0.0,0.0,0.0,0.0,0.0,0.0,0.0,0.0,0.0,0.0,0.0,0.0,0.0,0.0,0.0,0.0,0.0,0.0,0.0,0.0,0.0,0.0,0.0,0.0,0.0,0.0,0.0,0.0,0.0,0.0,0.0,0.0,0.0,0.0,0.0,0.0,0.0,0.0,0.0,0.0,0.0,0.0,0.0,0.0,0.0,0.0,0.0,0.0,0.0,0.0,0.0,0.0,0.0,0.0,0.0,0.0,0.0,0.0,0.0,0.0,0.0,0.0,0.0,0.0,0.0,0.0,0.0,0.0,0.0,0.0,0.0,0.0,0.0,0.0,0.0,0.0,0.0,0.0,0.0,0.0,0.0,0.0,0.0,0.0,0.0,0.0,0.0,0.0,0.0,0.0,0.0,0.0,0.0,0.0,0.0,0.0,0.0,0.0,0.0,0.0,0.0,0.0,0.0,0.0,0.0,0.0,0.0,0.0,0.0,0.0,0.0,0.0,0.0,0.0,0.0,0.0,0.0,0.0,0.0,0.0,0.0,0.0,0.0,0.0,0.0,0.0,0.0,0.0,0.0,0.0,0.0,0.0,0.0,0.0,0.0,0.0,0.0,0.0,0.0,0.0,0.0,0.0,0.0,0.0,0.0,0.0,0.0,0.0,0.0,0.0,0.0,0.0,0.0,0.0,0.0,0.0,0.0,0.0,0.0,0.0,0.0,0.0,0.0,0.0,0.0,0.0,0.0,0.0,0.0,0.0,0.0,0.0,0.0,0.0,0.0,0.0,0.0,0.0,0.0,0.0,0.0,0.0,0.0,0.0,0.0,0.0,0.0,0.0,0.0,0.0,0.0,0.0,0.0,0.0,0.0,0.0,0.0,0.0,0.0,0.0,0.0,0.0,0.0,0.0,0.0,0.0,0.0,0.0,0.0,0.0,0.0,0.0,0.0,0.0,0.0,0.0,0.0,0.0,0.0,0.0,0.0,0.0,0.0,0.0,0.0,0.0,0.0,0.0,0.0,0.0,0.0,0.0,0.0,0.0,0.0,0.0,0.0,0.0,0.0,0.0,0.0,0.0,0.0,0.0,0.0,0.0,0.0,0.0,0.0,0.0,0.0,0.0,0.0,0.0,0.0,0.0,0.0,0.0,0.0,0.0,0.0,0.0,0.0,0.0,0.0,0.0,0.0,0.0,0.0,0.0,0.0,0.0,0.0,0.0,0.0,0.0,0.0,0.0,0.0,0.0,0.0,0.0,0.0,0.0,0.0,0.0,0.0,0.0,0.0,0.0,0.0,0.0,0.0,0.0,0.0,0.0,0.0,0.0,0.0,0.0,0.0,0.0,0.0,0.0,0.0,0.0,0.0,0.0,0.0,0.0,0.0,0.0,0.0,0.0,0.0,0.0,0.0,0.0,0.0,0.0,0.0,0.0,0.0,0.0,0.0,0.0,0.0,0.0,1.4568,0.0,0.0,0.0,0.0,0.0,0.0,0.0,0.0,0.0,0.0,0.0,0.0,0.0,0.0,0.0,0.0,0.0,0.0,0.0,0.0,0.0,0.0,0.0,0.0,0.0,0.0,0.0,0.0,0.0,0.0,0.0,0.0,0.0,0.0,0.0,0.0,0.0,0.0,0.0,1.7694,1.7684,1.8942,1.9586,1.9268,1.8175,0.0,0.0,0.0,0.0,0.0,0.0,0.0,0.0,0.0,0.0,0.0,0.0,0.0,0.0,0.0,0.0,0.0,0.0,0.0,0.0,0.0,0.0,0.0,0.0,0.0,0.0,0.0,0.0,0.0,0.0,0.0,0.0,0.0,0.0,0.0,0.0,0.0,0.0,0.0,0.0,0.0,0.0,0.0,0.0,0.0,0.0,0.0,0.0,0.0,0.0,0.0,0.0,0.0,0.0,0.0,0.0,0.0,0.0,0.0,0.0,0.0,0.0,0.0,0.0,0.0,0.0,0.0,0.0,0.0,0.0,0.0,1.5016,0.0,0.0,0.0,0.0,0.0,0.0,0.0,0.0,0.0,0.0,0.0,0.0,0.0,0.0,0.0,0.0,0.0,0.0,0.0,0.0,0.0,0.0,0.0,0.0,0.0,0.0,0.0,0.0,0.0,0.0,0.0,0.0,0.0,0.0,0.0,0.0,0.0,0.0,1.8243,1.9158,2.1035,2.1836,2.117,1.9271,1.9366,0.0,0.0,0.0,0.0,0.0,0.0,0.0,0.0,0.0,0.0,0.0,0.0,0.0,0.0,0.0,0.0,0.0,0.0,0.0,0.0,0.0,0.0,0.0,0.0,0.0,0.0,0.0,0.0,0.0,0.0,0.0,0.0,0.0,0.0,0.0,0.0,0.0,0.0,0.0,0.0,0.0,0.0,0.0,0.0,0.0,0.0,0.0,0.0,0.0,0.0,0.0,0.0,0.0,0.0,0.0,0.0,0.0,0.0,0.0,0.0,0.0,0.0,0.0,1.7208,1.7525,1.8005,1.765,1.741,1.7204,1.6333,1.569,1.5229,1.5689,0.0,0.0,0.0,0.0,0.0,0.0,0.0,0.0,0.0,0.0,0.0,0.0,0.0,0.0,0.0,0.0,0.0,0.0,0.0,0.0,0.0,0.0,2.5968,2.6137,2.6068,2.5918,0.0,0.0,0.0,0.0,0.0,0.0,0.0,1.9111,1.8553,2.0081,2.0897,2.1823,2.2769,2.3301,2.3393,2.3027,2.1571,2.1765,2.3066,0.0,0.0,0.0,0.0,0.0,0.0,0.0,0.0,0.0,0.0,0.0,0.0,0.0,0.0,0.0,0.0,0.0,0.0,0.0,0.0,0.0,0.0,0.0,0.0,0.0,0.0,0.0,0.0,0.0,0.0,0.0,0.0,0.0,0.0,0.0,0.0,0.0,0.0,0.0,0.0,0.0,1.4072,1.3721,0.0,0.0,0.0,0.0,0.0,0.0,0.0,0.0,0.0,0.0,0.0,0.0,0.0,1.7176,1.7176,1.8314,1.8523,1.7787,1.836,1.8546,1.8413,1.8063,1.7929,1.7849,1.7526,0.0,1.6402,1.5915,0.0,0.0,0.0,0.0,0.0,0.0,0.0,0.0,0.0,0.0,0.0,0.0,0.0,0.0,0.0,0.0,0.0,0.0,0.0,0.0,0.0,2.6292,2.6634,2.6505,2.7641,2.7496,2.5554,0.0,0.0,0.0,0.0,0.0,2.1024,1.9665,1.9566,2.0875,2.1883,2.29,2.3822,2.4805,2.5117,2.4844,2.4056,2.3652,2.3359,2.2168,0.0,0.0,0.0,0.0,0.0,0.0,0.0,0.0,0.0,0.0,0.0,0.0,0.0,0.0,0.0,0.0,0.0,0.0,0.0,0.0,0.0,0.0,0.0,0.0,0.0,0.0,0.0,0.0,0.0,0.0,0.0,0.0,0.0,0.0,0.0,0.0,0.0,0.0,0.0,1.5172,1.5273,1.4768,1.5606,1.6063,0.0,0.0,0.0,0.0,0.0,0.0,0.0,0.0,0.0,1.7571,1.8011,1.8193,1.8034,1.8739,1.898,1.8764,1.9202,1.9439,1.9466,1.9274,1.9221,1.9208,1.9132,1.8626,1.7887,1.6799,1.6304,1.6176,0.0,0.0,0.0,0.0,1.6625,1.7251,0.0,0.0,0.0,0.0,0.0,0.0,0.0,0.0,0.0,0.0,0.0,0.0,2.5986,2.6807,2.7323,2.7342,2.8501,2.8267,2.5887,0.0,0.0,0.0,0.0,2.0421,2.0934,2.0801,2.1239,2.237,2.3459,2.4459,2.5273,2.6582,2.6914,2.6387,2.6454,2.5664,2.4127,2.3086,2.2383,2.1734,0.0,0.0,0.0,0.0,0.0,0.0,0.0,0.0,0.0,0.0,0.0,0.0,0.0,0.0,0.0,0.0,0.0,0.0,0.0,0.0,0.0,0.0,0.0,0.0,0.0,0.0,0.0,0.0,0.0,0.0,0.0,0.0,0.0,0.0,0.0,0.0,0.0,1.5807,1.6164,1.5476,1.6439,1.6902,0.0,0.0,0.0,0.0,0.0,0.0,1.7335,1.7964,1.8452,1.8632,1.8944,1.9077,1.8931,1.9305,1.9559,1.9765,2.0,2.0241,2.0454,2.0374,2.0347,2.0347,2.0267,1.9773,1.8918,1.78,1.7023,1.6513,1.6405,1.6507,1.6718,1.6672,1.7004,1.7553,0.0,0.0,0.0,0.0,0.0,0.0,0.0,0.0,0.0,0.0,0.0,2.5566,2.6816,2.7383,2.8144,2.9336,2.8437,2.7805,2.7776,2.4746,2.3214,2.3839,2.1507,2.0737,2.1898,2.2731,2.389,2.547,2.6793,2.7467,2.7591,2.8809,2.8965,2.8184,2.8574,2.8027,2.666,2.418,2.334,2.356,2.202,0.0,0.0,0.0,0.0,0.0,0.0,0.0,0.0,0.0,0.0,0.0,0.0,0.0,0.0,0.0,0.0,0.0,0.0,0.0,0.0,0.0,0.0,0.0,0.0,0.0,0.0,0.0,0.0,0.0,0.0,0.0,0.0,0.0,0.0,0.0,0.0,0.0,0.0,1.4965,1.6408,0.0,0.0,0.0,0.0,1.6849,1.7405,1.7912,1.8291,1.8359,1.8686,1.9336,1.9586,1.9867,2.0087,2.0708,2.0869,2.0615,2.0909,2.1056,2.1056,2.0775,2.0655,2.0641,2.0361,1.9893,1.935,1.8693,1.813,1.7696,1.7455,1.7577,1.7859,1.7492,1.8224,1.9425,0.0,0.0,0.0,0.0,0.0,0.0,0.0,0.0,0.0,2.5067,2.5615,2.6309,2.7324,2.8555,2.9473,2.9941,3.0332,3.0039,2.8606,2.6492,2.4849,2.3804,2.1649,2.1182,2.2585,2.3395,2.4715,2.6562,2.6861,2.7387,2.8086,2.8809,2.8848,2.832,2.873,2.8359,2.7324,2.5566,2.4414,2.3633,2.1955,2.0916,0.0,0.0,0.0,0.0,0.0,0.0,0.0,0.0,0.0,0.0,0.0,0.0,0.0,0.0,0.0,0.0,0.0,0.0,0.0,0.0,0.0,0.0,0.0,0.0,0.0,0.0,0.0,0.0,0.0,0.0,0.0,0.0,0.0,0.0,0.0,0.0,0.0,1.7079,1.8177,0.0,1.8304,1.8202,1.8165,1.8165,1.8578,1.8901,1.9047,1.9717,2.0187,2.0201,2.0743,2.0882,2.0802,2.1002,2.1056,2.0962,2.1056,2.1109,2.1109,2.1002,2.0855,2.0668,2.0561,2.0187,1.9626,1.9426,1.876,1.7914,1.7655,1.7637,1.7753,1.7764,1.8287,1.9031,0.0,0.0,0.0,0.0,0.0,0.0,0.0,0.0,0.0,2.457,2.5527,2.6602,2.7754,2.9258,3.0371,3.082,3.0996,3.0449,2.9004,2.7046,2.5308,2.3918,2.273,2.2647,2.388,2.5013,2.6291,2.7656,2.7786,2.8105,2.8516,2.8945,2.8828,2.832,2.873,2.8535,2.7812,2.6816,2.5547,2.4147,2.2742,2.2042,2.1794,0.0,0.0,0.0,0.0,0.0,0.0,0.0,0.0,0.0,0.0,0.0,0.0,0.0,0.0,0.0,0.0,0.0,0.0,0.0,0.0,0.0,0.0,0.0,0.0,0.0,0.0,0.0,0.0,0.0,0.0,0.0,0.0,0.0,0.0,0.0,1.8427,1.8598,1.9505,2.006,1.9747,1.956,1.9499,1.9499,1.9891,2.0207,2.0241,2.0989,2.1323,2.1122,2.1467,2.1521,2.1256,2.1162,2.1109,2.1109,2.1109,2.1109,2.1109,2.1109,2.1002,2.0815,2.0722,2.0401,1.9933,1.984,1.9279,1.8477,1.8263,1.8183,1.821,1.841,1.8611,1.9036,0.0,0.0,0.0,0.0,0.0,0.0,0.0,0.0,2.4238,2.3848,2.4941,2.6426,2.8125,2.9473,3.0762,3.207,3.0176,2.8926,2.8945,2.6064,2.4341,2.4295,2.4638,2.5098,2.5684,2.7597,2.8731,2.8945,2.9785,2.9766,2.8945,2.9355,2.9101,2.832,2.873,2.8672,2.8262,2.7851,2.6769,2.5145,2.4408,2.4244,2.4225,0.0,0.0,0.0,0.0,0.0,0.0,0.0,0.0,0.0,0.0,0.0,0.0,0.0,0.0,0.0,0.0,0.0,0.0,0.0,0.0,0.0,0.0,0.0,0.0,0.0,0.0,0.0,0.0,0.0,0.0,0.0,0.0,0.0,1.6995,1.833,1.9302,1.9265,2.0394,2.0743,1.9897,2.0335,2.0722,2.0722,2.132,2.1762,2.1977,2.1991,2.1991,2.1977,2.1762,2.1614,2.1601,2.1256,2.1109,2.1109,2.1109,2.1109,2.1109,2.1109,2.1109,2.1082,2.0788,2.0494,2.0201,1.9907,1.9626,1.943,1.943,1.943,1.943,1.943,1.943,1.9649,0.0,0.0,0.0,0.0,0.0,0.0,0.0,2.3569,2.3555,2.3769,2.5469,2.7187,2.8594,3.0195,3.1543,3.2539,3.0351,2.9062,2.9375,2.5838,2.3231,2.2104,2.3965,2.5179,2.5466,2.7684,2.9019,2.9394,2.9941,2.9922,2.9394,2.9199,2.8965,2.873,2.8555,2.8398,2.8281,2.8164,2.7851,2.7246,2.5526,2.4729,2.4467,0.0,0.0,0.0,0.0,0.0,0.0,0.0,0.0,0.0,0.0,0.0,0.0,0.0,0.0,0.0,0.0,0.0,0.0,0.0,0.0,0.0,0.0,0.0,0.0,0.0,0.0,0.0,0.0,0.0,0.0,0.0,0.0,1.8155,1.8564,1.9388,2.0201,2.0889,2.1451,2.1697,2.1641,2.1668,2.163,2.163,2.1964,2.2124,2.1991,2.2178,2.2111,2.1748,2.1655,2.1443,2.1229,2.1149,2.1109,2.1109,2.1109,2.1109,2.1109,2.1109,2.0989,2.0775,2.0481,2.0187,1.9893,1.9599,1.9497,1.943,1.943,1.943,1.943,1.943,2.0097,2.1031,0.0,0.0,0.0,0.0,0.0,0.0,0.0,2.3096,2.312,2.3242,2.5449,2.7363,2.8301,3.0098,3.1309,3.1445,2.9726,2.8457,2.7988,2.497,2.2886,2.2092,2.3459,2.4416,2.4864,2.7196,2.8691,2.9088,2.9814,3.0078,2.9824,2.9199,2.9004,2.918,2.875,2.8555,2.8555,2.8555,2.8457,2.8184,2.6914,2.6467,2.6291,2.4552,2.4286,2.4715,2.374,2.3716,2.3905,2.2718,0.0,0.0,0.0,0.0,0.0,0.0,0.0,0.0,0.0,0.0,0.0,0.0,0.0,0.0,0.0,0.0,0.0,0.0,0.0,0.0,0.0,0.0,0.0,0.0,1.851,1.9469,2.0321,2.0658,2.1069,2.183,2.2178,2.2418,2.2592,2.2458,2.2352,2.2352,2.2512,2.2525,2.2365,2.2512,2.2392,2.1937,2.1804,2.159,2.1296,2.1176,2.1109,2.1109,2.1109,2.1109,2.1109,2.1109,2.1015,2.0842,2.0548,2.0254,1.996,1.9666,1.9479,0.0,0.0,0.0,0.0,0.0,1.9924,2.0702,0.0,0.0,0.0,0.0,0.0,0.0,0.0,2.278,2.2964,2.2637,2.5078,2.7012,2.7402,2.9297,3.0234,2.9548,2.8516,2.7266,2.5635,2.3858,2.2983,2.3261,2.3185,2.3366,2.3965,2.6347,2.7771,2.811,2.937,2.9968,2.9948,2.9322,2.9277,2.9685,2.918,2.8965,2.8926,2.8926,2.8672,2.8301,2.8301,2.8496,2.8516,2.6389,2.6241,2.7041,2.565,2.4894,2.4394,2.3865,0.0,0.0,0.0,0.0,0.0,0.0,0.0,0.0,0.0,0.0,0.0,0.0,0.0,0.0,0.0,0.0,0.0,0.0,0.0,0.0,0.0,0.0,0.0,0.0,1.9676,2.0735,2.1871,2.1844,2.1897,2.2405,2.2699,2.2928,2.2928,2.2928,2.2928,2.2928,2.2928,2.2928,2.2928,0.0,0.0,0.0,0.0,2.1764,2.1574,2.1243,2.1109,2.1109,2.1109,2.1109,2.1109,2.1109,2.1109,2.1096,2.0802,2.0521,2.0254,1.9973,1.9679,1.9412,1.9386,1.943,1.943,1.943,1.943,1.943,0.0,0.0,0.0,0.0,0.0,0.0,0.0,2.3042,2.3062,2.2984,2.4699,2.5966,2.6094,2.7422,2.8359,2.8535,2.6797,2.541,2.4707,2.3754,2.3165,2.3054,2.3572,2.3709,2.3292,2.5294,2.6402,2.647,2.7979,2.8733,2.8773,2.9604,3.0,3.0059,2.9629,2.9258,2.8926,2.8926,2.8672,2.8301,2.8301,2.8144,2.7812,2.7024,2.6632,2.6476,2.5839,2.6212,2.678,2.5453,2.5399,2.5244,2.1479,0.0,0.0,0.0,0.0,0.0,0.0,0.0,0.0,0.0,0.0,0.0,0.0,0.0,0.0,0.0,0.0,0.0,0.0,0.0,0.0,1.9312,2.0281,2.1269,2.2205,2.2498,2.2713,2.2766,2.2832,2.2928,2.2928,2.2928,2.2928,2.2928,2.2928,2.2928,2.2928,2.2418,2.2124,2.2071,2.155,2.1256,2.1189,2.1136,2.1109,2.1109,0.0,0.0,2.1109,2.1109,2.1109,2.1096,2.0802,2.0641,2.0575,2.0267,1.9973,1.9693,1.9452,1.943,1.943,1.943,1.943,1.943,0.0,0.0,0.0,0.0,0.0,0.0,0.0,2.2964,2.3023,2.2808,2.4336,2.541,2.541,2.6191,2.6699,2.668,2.5098,2.4375,2.4992,2.4208,2.3652,2.355,2.3552,2.3111,2.21,2.3901,2.4778,2.4778,2.7211,2.8426,2.8408,2.9622,3.0312,3.0527,3.0078,2.9236,2.8164,2.9119,2.8737,2.7561,2.8555,2.8672,2.8242,2.7812,2.7519,2.7305,2.709,2.7305,2.7552,2.6526,2.6534,2.6295,2.2254,2.11,2.0588,0.0,0.0,0.0,0.0,0.0,0.0,0.0,0.0,0.0,0.0,0.0,0.0,0.0,0.0,1.7058,0.0,0.0,1.9323,2.0234,2.1159,2.1964,2.2552,2.2766,2.2928,2.2928,2.2928,2.2928,2.2928,2.2928,2.2928,2.2928,2.2928,2.2928,2.2928,2.2445,2.2138,2.1991,2.1563,2.1336,2.1336,2.1189,2.1189,2.1336,2.1176,2.1109,2.1109,2.1109,2.1109,2.1096,2.0962,2.0815,2.0655,2.0361,2.0067,1.9786,1.9639,1.9492,1.943,1.943,1.943,1.943,0.0,0.0,0.0,0.0,0.0,0.0,0.0,0.0,0.0,2.2493,2.3789,2.4715,2.457,2.4883,2.4961,2.4609,2.3769,2.3958,2.5693,2.4615,2.3975,2.4343,2.3262,2.221,2.1096,2.2404,2.3076,2.3076,2.6062,2.7452,2.7512,2.8806,2.9736,3.0372,2.9698,2.8667,2.7495,2.8687,2.8103,2.6465,2.8033,2.8388,2.7971,2.7649,2.7818,2.8164,2.8066,2.7656,2.718,2.6855,2.6497,2.5623,2.2311,2.126,2.0614,1.7394,1.6401,0.0,0.0,0.0,0.0,0.0,0.0,0.0,0.0,0.0,1.6718,1.6863,1.7388,1.797,1.8483,1.9499,2.0422,2.1069,2.1884,2.2539,2.2899,2.2899,2.2928,2.2928,2.2928,2.2928,2.2928,2.2928,2.2928,2.2928,2.2928,2.2928,2.2928,2.2579,2.2311,2.2071,2.179,2.1695,2.1695,2.1403,2.1376,2.1614,2.1309,2.1162,2.1109,2.1109,2.1109,2.1109,2.1109,2.0975,2.0735,2.0494,2.0227,1.996,1.9907,1.9706,1.9439,1.9444,1.943,1.943,0.0,0.0,0.0,0.0,0.0,0.0,0.0,0.0,0.0,2.2322,2.294,2.3223,2.2832,2.2852,2.2852,2.2793,2.3359,2.4453,2.6211,2.4175,2.3599,2.5081,2.269,2.1258,2.1109,2.1299,2.1362,2.1362,2.3201,2.4116,2.4178,2.5769,2.7279,2.8605,2.7159,2.6917,2.7661,2.6371,2.5503,2.4961,2.5169,2.51,2.4822,2.4771,2.5989,2.7695,2.7305,2.6387,2.5458,2.5762,2.476,2.3224,2.2029,2.1379,2.0492,1.7592,0.0,1.7016,1.627,1.6012,1.5966,1.6173,1.6316,1.6631,0.0,0.0,1.8102,1.8239,1.8776,1.9219,1.9256,2.002,2.0851,2.1467,2.2017,2.2619,2.3193,2.3033,2.2928,2.2928,2.2928,2.2928,2.2928,2.2928,2.2928,2.2928,2.2928,2.2928,2.2928,2.2579,2.2405,2.2378,2.2084,2.1937,2.1937,2.1911,2.1777,2.1614,2.1588,2.1363,2.1109,2.1109,2.1109,2.1109,2.1109,2.1096,2.1056,2.1029,2.0842,2.0548,2.0281,2.0,1.972,1.9466,1.943,1.943,0.0,0.0,0.0,0.0,0.0,0.0,0.0,0.0,0.0,0.0,0.0,2.2715,2.2539,2.2305,2.2148,2.2148,2.2695,2.4004,2.625,2.4819,2.4259,2.5238,2.3564,2.209,2.1109,2.1109,2.1109,2.1109,2.2779,2.3574,2.3636,2.5253,2.6349,2.6953,2.6288,2.5666,2.5115,2.5551,2.4956,2.3891,2.4979,2.5133,2.4631,2.4275,2.4213,2.4407,2.5076,2.4369,0.0,0.0,2.3389,2.2376,2.0847,2.0113,1.9462,1.7392,1.6553,0.0,1.5964,1.5965,0.0,0.0,1.6703,1.7357,1.7832,1.8372,1.8823,1.8991,1.9466,1.992,2.0094,2.0842,2.1523,0.0,2.2445,2.2966,2.3046,2.2939,2.2806,2.2619,2.2458,2.2418,2.2592,2.2766,2.2928,2.2928,2.2928,2.2928,2.2928,2.2579,2.2418,2.2418,2.2138,2.2071,2.2231,2.2071,2.1924,2.1804,2.1695,2.1403,2.1109,2.1109,2.1109,2.1109,2.1109,2.1109,2.1109,2.1109,2.0842,2.0401,2.0281,1.9947,1.9533,1.947,1.943,1.943,0.0,0.0,0.0,0.0,0.0,0.0,0.0,0.0,0.0,0.0,0.0,0.0,0.0,2.1699,2.1562,2.1699,2.2207,2.3324,2.5246,2.4476,2.4115,2.4413,2.3383,2.2256,2.1109,2.1109,2.1109,2.1109,2.2341,2.2889,2.2952,2.4101,2.4885,2.5314,2.4824,2.4147,2.3291,2.4239,2.3795,2.2562,2.3978,2.4042,2.3195,2.2654,2.1628,2.0664,2.2391,2.2,0.0,0.0,2.1098,2.0302,1.9082,1.8405,1.7839,1.688,1.6151,1.5691,1.562,0.0,0.0,1.6435,1.726,1.8044,1.8266,1.8863,1.9448,1.9685,2.0067,2.0441,2.0735,2.1309,2.183,2.2071,2.2726,2.318,2.3113,2.2966,2.2752,2.2458,2.2164,2.2031,2.2164,2.2525,2.2779,2.2928,2.2928,2.2928,2.2928,2.2659,2.2539,2.2539,2.2338,2.2325,2.2539,2.2338,2.2191,2.2098,2.1817,2.1523,2.1229,2.1149,2.1109,2.1109,2.1109,2.1109,2.1109,2.1109,2.0855,2.0468,2.0388,2.0094,1.9765,1.9546,1.9439,1.943,0.0,0.0,0.0,0.0,0.0,0.0,0.0,0.0,0.0,0.0,0.0,0.0,0.0,0.0,2.082,2.1171,2.2031,2.2585,2.2727,2.2485,2.237,2.2281,2.132,2.0877,2.1109,2.1109,2.1109,2.1109,2.1172,2.1172,2.1172,2.1235,2.209,2.3574,2.1964,2.2153,2.3497,2.1902,2.1061,2.0805,2.0867,2.0166,1.9045,1.8791,1.7859,1.7099,1.948,0.0,0.0,0.0,1.7242,1.5944,1.6718,1.6329,0.0,1.6023,1.6008,0.0,0.0,0.0,1.6522,1.7113,1.7898,1.8597,1.9243,1.976,2.0267,2.0575,2.0655,2.0748,2.1042,2.1122,2.1416,2.2271,2.2672,2.3086,2.3661,2.3303,2.2752,2.2458,2.2164,2.1884,0.0,2.2098,2.2552,2.2914,2.2928,2.2928,2.2928,2.2928,2.2846,2.2846,2.2914,2.2914,2.2846,2.2914,2.2699,2.2405,2.2111,2.1817,2.1601,2.1243,2.1109,2.1109,2.1109,2.1109,2.1109,2.1109,2.1096,2.1056,2.0775,2.0655,2.0561,2.0,1.9613,1.943,0.0,0.0,0.0,0.0,0.0,0.0,0.0,0.0,0.0,0.0,0.0,0.0,0.0,0.0,0.0,0.0,0.0,0.0,2.286,2.1907,2.1263,2.113,2.0284,1.9853,1.9947,2.0334,2.0521,2.0521,2.0521,2.0521,2.0521,2.0521,2.0828,2.1305,2.0767,2.0937,2.1596,2.0848,2.0468,2.0347,1.996,1.9332,1.8544,1.786,1.6946,1.6044,0.0,0.0,0.0,0.0,0.0,0.0,1.5061,0.0,0.0,1.4929,0.0,0.0,0.0,0.0,1.6967,1.7884,1.8601,1.9279,2.0054,2.0388,2.0548,2.0655,2.0322,2.005,2.0159,2.0334,2.0699,2.1416,2.2297,2.3008,2.314,2.334,2.314,2.2245,2.2044,0.0,0.0,0.0,0.0,2.2539,2.2565,2.2659,2.2914,2.2928,2.2928,2.2928,2.2928,2.2928,2.2928,2.2928,2.2712,2.2405,2.1924,2.155,2.1256,2.1149,2.1109,2.1109,2.1109,2.1109,2.1109,2.1109,2.1002,2.0815,2.0722,2.0548,2.0361,2.016,1.9907,1.9626,0.0,0.0,0.0,0.0,0.0,0.0,0.0,0.0,0.0,0.0,0.0,0.0,0.0,0.0,0.0,0.0,0.0,0.0,0.0,2.0849,2.023,1.9928,1.9328,1.9063,1.9209,1.9587,1.9618,1.9394,1.9559,1.9559,1.9394,1.9559,1.9613,1.9613,1.9613,1.9773,2.0027,1.9733,1.9546,1.9354,1.8918,1.8305,1.7605,1.6878,1.6189,0.0,0.0,0.0,0.0,0.0,0.0,0.0,0.0,0.0,0.0,0.0,0.0,0.0,0.0,1.6987,1.7674,1.88,1.9479,1.9987,2.0548,2.0681,2.0588,2.0267,1.9748,1.9367,1.9423,1.941,1.971,2.0772,2.1561,2.231,2.2849,2.3172,2.3117,2.2512,2.2271,2.2111,0.0,0.0,0.0,2.2405,2.2619,2.2832,2.302,2.3033,2.3033,2.3033,2.2926,2.2928,2.2928,2.2928,2.2712,2.2418,2.2044,2.1657,2.1269,2.1269,2.1203,2.1109,2.1109,2.1109,2.1109,2.1109,2.1002,2.0828,2.0828,2.0708,2.0535,2.0428,2.0267,2.0054,0.0,0.0,0.0,0.0,0.0,0.0,0.0,0.0,0.0,0.0,0.0,0.0,0.0,0.0,0.0,0.0,0.0,0.0,0.0,1.9546,1.9297,1.8667,1.8374,1.8434,1.8783,1.8851,1.8577,1.7969,1.829,1.8277,1.7955,1.8277,1.8397,1.8397,1.8397,1.8557,1.8811,1.8517,1.8237,1.7902,1.7622,1.6958,1.6095,1.5795,0.0,0.0,0.0,0.0,0.0,0.0,0.0,0.0,0.0,0.0,0.0,0.0,0.0,1.6538,1.7273,1.7913,1.8671,1.9893,2.0454,2.0655,2.0655,2.0615,2.0347,1.9537,1.9036,1.8755,0.0,0.0,1.8495,2.0278,2.0653,2.1238,2.2724,2.2738,2.2754,0.0,0.0,0.0,0.0,0.0,0.0,2.2485,0.0,2.3313,2.3354,2.3354,2.3354,2.3354,2.306,2.2968,2.2886,2.2941,2.2712,2.2418,2.2418,2.2124,2.1641,2.1628,2.1403,2.1136,2.1122,2.1109,2.1109,2.1109,2.1109,2.1109,2.1109,2.1109,2.1082,2.0802,2.0695,2.0601,0.0,0.0,0.0,0.0,0.0,0.0,0.0,0.0,0.0,0.0,0.0,0.0,0.0,0.0,0.0,0.0,0.0,0.0,0.0,1.9376,1.8567,0.0,0.0,0.0,0.0,0.0,0.0,1.7702,1.7608,1.7501,1.7382,1.7235,1.7154,1.7154,1.7154,1.7328,1.7635,1.7288,1.7114,1.7007,0.0,1.5927,1.5422,0.0,0.0,0.0,0.0,0.0,0.0,0.0,0.0,0.0,0.0,0.0,1.5092,0.0,0.0,1.731,1.8223,1.8942,1.9604,2.0361,2.0454,2.0347,2.0347,1.984,1.9243,1.8725,1.8206,1.7803,0.0,0.0,0.0,1.9722,2.0733,0.0,2.2741,2.3413,0.0,2.3354,0.0,2.3367,2.322,2.314,0.0,0.0,2.3153,2.318,2.3634,2.3661,2.3661,2.3661,2.3581,2.3434,2.3207,2.2979,2.2712,2.2418,2.2418,2.2231,2.1871,2.1722,2.1574,2.1494,2.1203,2.1109,2.1109,2.1109,2.1109,2.1109,2.1109,2.1109,2.1096,2.1029,2.0855,2.0655,0.0,0.0,0.0,0.0,0.0,0.0,0.0,0.0,0.0,0.0,0.0,0.0,0.0,0.0,0.0,0.0,0.0,0.0,0.0,0.0,1.8196,0.0,0.0,0.0,0.0,0.0,0.0,0.0,0.0,0.0,1.5992,1.5952,1.5939,1.5939,1.5939,1.6147,1.6513,1.6107,0.0,0.0,0.0,0.0,0.0,0.0,0.0,0.0,0.0,0.0,0.0,0.0,0.0,1.4429,1.4657,1.5281,1.5985,1.6636,0.0,1.8211,1.9128,1.9824,2.0294,2.0748,2.0641,2.0294,1.9891,1.9287,1.8631,1.7716,1.7371,0.0,0.0,0.0,0.0,0.0,0.0,0.0,2.2498,2.324,2.3695,0.0,2.4048,0.0,2.4102,2.3981,2.4022,0.0,2.3794,2.3594,2.3941,2.3968,2.3968,2.3968,2.3834,2.3621,2.3327,2.3153,2.2913,2.2619,2.2619,2.2458,2.2164,2.2004,2.179,2.1601,0.0,2.1229,2.1109,2.1109,2.1109,2.1109,2.1109,2.1109,2.1109,2.1109,2.1002,2.0869,0.0,0.0,0.0,0.0,0.0,0.0,0.0,0.0,0.0,0.0,0.0,0.0,0.0,0.0,0.0,0.0,0.0,0.0,0.0,0.0,0.0,0.0,0.0,0.0,0.0,0.0,0.0,0.0,0.0,0.0,0.0,0.0,0.0,0.0,0.0,0.0,0.0,0.0,0.0,0.0,0.0,0.0,0.0,0.0,0.0,0.0,0.0,0.0,0.0,0.0,1.4796,1.4962,1.5497,1.6353,1.7227,1.7843,1.8482,1.9158,2.0,2.0508,2.0802,2.1042,2.0828,2.0315,1.9448,1.8919,1.8181,1.6745,0.0,1.6718,1.6538,0.0,1.7422,1.8655,0.0,2.0387,2.213,2.2753,2.3349,2.4476,2.4636,2.477,2.5104,2.4836,2.477,2.5117,2.4596,2.4262,2.4262,2.4262,2.4262,2.4262,2.3981,2.3701,2.3447,2.3407,2.3247,2.3048,2.2939,2.2792,2.2539,2.2458,2.2151,2.1735,2.1695,0.0,2.1229,2.1189,2.1162,2.1162,2.1122,2.1109,2.1109,2.1109,2.1109,2.1109,0.0,0.0,0.0,0.0,0.0,0.0,0.0,0.0,0.0,0.0,2.084,2.0605,0.0,0.0,0.0,0.0,0.0,0.0,0.0,0.0,0.0,0.0,0.0,0.0,0.0,0.0,0.0,0.0,0.0,0.0,0.0,0.0,0.0,0.0,0.0,0.0,0.0,0.0,0.0,0.0,0.0,0.0,0.0,0.0,0.0,0.0,0.0,0.0,0.0,0.0,1.5414,1.5912,1.6365,1.7284,1.8292,1.8626,1.9336,2.0027,2.0481,2.0815,2.1042,2.1096,2.0521,1.9765,1.9038,1.8128,0.0,0.0,0.0,1.6222,1.6373,1.6729,0.0,1.8914,0.0,0.0,0.0,0.0,2.3541,0.0,0.0,0.0,0.0,0.0,0.0,0.0,0.0,2.4556,2.4556,2.4556,2.4556,2.4556,2.4275,2.4102,2.4048,2.3808,2.3674,2.3607,2.3367,2.322,2.3153,2.2645,2.2365,2.2258,2.2017,0.0,2.1817,2.1577,2.1534,2.1521,2.1203,2.1109,2.1109,2.1109,2.1109,2.1109,0.0,0.0,0.0,0.0,0.0,0.0,0.0,2.1055,2.1074,2.1523,2.1191,2.0918,2.0918,2.0742,0.0,0.0,0.0,0.0,0.0,0.0,0.0,0.0,0.0,0.0,0.0,0.0,0.0,0.0,0.0,0.0,0.0,0.0,0.0,0.0,0.0,0.0,0.0,0.0,0.0,0.0,0.0,0.0,0.0,0.0,0.0,0.0,0.0,0.0,0.0,0.0,1.5625,1.6435,1.6978,1.7876,1.8798,1.9252,1.9786,2.0273,2.0775,2.1002,2.1109,2.1109,2.0334,1.9421,1.8687,0.0,0.0,0.0,1.598,1.6197,1.6197,0.0,0.0,0.0,0.0,0.0,0.0,0.0,0.0,0.0,0.0,0.0,0.0,0.0,0.0,0.0,0.0,2.4863,2.4863,2.4716,2.4636,2.4636,2.4502,2.4356,2.4209,2.4062,2.3915,2.3768,2.3474,2.3327,2.3313,2.2859,2.2565,2.2405,2.2271,0.0,2.1977,2.183,2.1842,2.1764,2.1617,2.147,2.1336,2.1336,2.1243,2.1109,0.0,0.0,0.0,0.0,0.0,0.0,0.0,2.1465,2.1385,2.1953,2.1641,2.1327,2.1327,2.0977,2.0703,0.0,0.0,0.0,0.0,0.0,0.0,0.0,0.0,0.0,0.0,0.0,0.0,0.0,0.0,0.0,0.0,0.0,0.0,0.0,0.0,0.0,0.0,0.0,0.0,0.0,0.0,0.0,0.0,0.0,0.0,0.0,0.0,0.0,0.0,0.0,1.552,1.6286,1.6985,1.7916,1.8881,1.9336,1.9819,2.0328,2.0855,2.1069,2.1109,2.1109,2.0187,1.9085,1.845,1.728,0.0,0.0,1.5834,1.6155,1.602,0.0,0.0,0.0,0.0,0.0,0.0,0.0,0.0,0.0,0.0,0.0,0.0,0.0,0.0,0.0,0.0,0.0,2.5077,2.4863,2.4703,2.4562,2.4636,2.4529,2.4302,2.4302,2.4182,2.3955,2.3661,2.3487,2.3407,2.31,2.2792,2.2512,2.2512,0.0,0.0,2.2111,2.2084,2.2071,2.2004,2.1804,2.1614,2.1614,2.1363,2.1109,0.0,0.0,0.0,0.0,0.0,0.0,0.0,2.121,2.1483,2.2344,2.209,2.1836,2.1836,2.1445,2.1016,0.0,0.0,0.0,0.0,0.0,0.0,0.0,0.0,0.0,0.0,0.0,0.0,0.0,0.0,0.0,0.0,0.0,0.0,0.0,0.0,0.0,0.0,0.0,0.0,0.0,0.0,0.0,0.0,0.0,0.0,0.0,0.0,0.0,0.0,0.0,0.0,1.4976,1.5645,1.7055,1.8442,1.8442,0.0,0.0,2.0609,2.0909,2.1109,2.1109,2.0027,1.8843,1.8395,0.0,0.0,1.5459,1.5532,1.5734,1.5977,1.6123,1.6536,0.0,0.0,0.0,0.0,0.0,0.0,0.0,0.0,0.0,0.0,0.0,0.0,0.0,0.0,0.0,2.509,2.505,2.4917,2.4649,2.4636,2.4623,2.4596,2.4596,2.4583,2.4556,2.4262,2.3981,2.3714,2.342,2.3113,2.2819,2.2819,0.0,0.0,2.2485,2.2378,2.2352,2.2084,2.1804,2.1614,2.1614,2.1363,2.1109,0.0,0.0,0.0,0.0,0.0,0.0,2.1582,2.1366,2.1405,2.2051,2.1992,2.1894,2.1894,2.1738,2.1348,0.0,0.0,0.0,0.0,0.0,0.0,0.0,0.0,0.0,0.0,0.0,0.0,0.0,0.0,0.0,0.0,0.0,0.0,0.0,0.0,0.0,0.0,0.0,0.0,0.0,0.0,0.0,0.0,0.0,0.0,0.0,0.0,0.0,0.0,0.0,0.0,0.0,1.4307,1.5329,0.0,0.0,1.8646,1.9703,2.0261,2.0748,2.1109,2.1109,1.9986,1.8795,1.8406,0.0,0.0,1.5705,1.5677,1.5758,1.6024,1.6104,1.6299,0.0,0.0,0.0,0.0,0.0,0.0,0.0,0.0,0.0,0.0,0.0,0.0,0.0,0.0,0.0,2.5611,2.5104,2.4836,2.4903,2.473,2.4636,2.4636,2.4636,2.4636,2.4549,2.4168,2.3968,2.4022,2.3541,2.326,2.314,2.314,0.0,0.0,2.2739,2.2686,2.2672,2.2552,2.2231,2.1817,2.1817,2.151,2.1109,0.0,0.0,0.0,0.0,0.0,2.1307,2.1641,2.1385,2.1387,2.1836,2.1894,2.1934,2.2051,2.1953,2.168,2.1231,0.0,0.0,0.0,0.0,0.0,0.0,0.0,0.0,0.0,0.0,0.0,1.6152,0.0,0.0,0.0,0.0,0.0,0.0,0.0,0.0,0.0,0.0,0.0,0.0,0.0,0.0,0.0,0.0,0.0,0.0,0.0,0.0,0.0,0.0,0.0,0.0,0.0,0.0,0.0,0.0,1.7798,1.9096,1.9775,2.0462,2.0989,2.0989,1.9888,1.8632,0.0,0.0,1.5572,1.5705,1.5792,1.5824,1.5945,1.6137,1.6279,0.0,0.0,0.0,0.0,0.0,0.0,0.0,0.0,0.0,0.0,0.0,0.0,0.0,0.0,0.0,2.6079,2.5251,2.4863,2.5077,2.4796,2.4636,2.4636,2.4636,2.4636,2.4636,2.4222,2.4088,2.4182,2.3688,2.3407,2.3327,2.3233,0.0,0.0,2.2928,2.2928,2.2928,2.2766,2.2472,2.2098,2.1924,2.159,2.1229,0.0,0.0,0.0,0.0,0.0,0.0,2.121,2.119,2.1387,2.1836,2.1894,2.2051,2.2461,2.2129,2.2051,2.2461,0.0,0.0,0.0,0.0,0.0,0.0,0.0,0.0,0.0,0.0,1.7602,1.6502,1.6155,1.5643,0.0,0.0,0.0,0.0,0.0,0.0,0.0,0.0,0.0,0.0,0.0,0.0,0.0,0.0,0.0,0.0,0.0,0.0,0.0,0.0,0.0,0.0,0.0,0.0,0.0,0.0,1.6804,1.8448,1.9138,2.0023,2.0681,2.0681,1.9577,1.8304,0.0,0.0,1.5247,1.5371,1.572,1.5931,1.5665,1.6169,1.64,1.5879,0.0,0.0,0.0,0.0,0.0,0.0,0.0,0.0,0.0,0.0,0.0,0.0,0.0,0.0,2.6373,2.5558,2.5077,2.5077,2.4796,2.4636,2.4636,2.4636,2.4636,2.4636,2.4549,2.4476,2.4195,2.3901,2.3607,0.0,0.0,0.0,0.0,2.2928,2.2928,2.2901,2.2539,2.2418,2.2338,2.1764,2.1614,2.1574,0.0,0.0,0.0,0.0,0.0,0.0,0.0,2.0781,2.082,2.0997,2.125,2.1602,2.2031,2.1699,2.1738,2.2441,0.0,0.0,0.0,0.0,0.0,0.0,0.0,0.0,0.0,0.0,1.8911,1.8337,1.8202,1.7472,1.6253,1.6387,0.0,0.0,0.0,0.0,0.0,0.0,0.0,0.0,0.0,0.0,0.0,0.0,0.0,0.0,0.0,0.0,0.0,0.0,0.0,0.0,0.0,0.0,0.0,0.0,0.0,0.0,1.7633,1.8185,1.8613,1.8724,1.8263,1.7677,1.7211,0.0,1.576,1.5792,1.5671,1.5625,1.5948,1.6041,1.6089,1.6147,0.0,0.0,0.0,0.0,0.0,0.0,0.0,0.0,0.0,0.0,0.0,0.0,0.0,0.0,2.5798,2.5344,2.517,2.5371,2.489,2.4636,2.4636,2.4636,2.4636,2.4636,2.4436,2.4289,2.4195,2.3901,2.3607,0.0,0.0,0.0,0.0,2.2928,2.2739,2.2552,2.2458,2.2178,2.1804,2.1681,2.143,2.1229,0.0,0.0,0.0,0.0,0.0,0.0,0.0,2.0605,2.0605,2.0605,2.082,2.1269,2.2031,2.1541,2.16,2.2676,0.0,0.0,0.0,0.0,0.0,0.0,0.0,0.0,2.0313,1.9817,1.959,1.9625,1.9387,1.8749,1.7827,1.7918,1.7161,1.5658,1.533,0.0,0.0,0.0,0.0,0.0,0.0,0.0,1.495,0.0,0.0,0.0,0.0,0.0,0.0,0.0,0.0,0.0,0.0,0.0,0.0,0.0,0.0,0.0,0.0,1.7424,1.7898,1.8016,1.7724,0.0,0.0,0.0,1.5936,1.5848,1.5782,1.5791,1.5978,1.6001,1.5994,1.6072,0.0,0.0,0.0,0.0,0.0,0.0,0.0,0.0,0.0,0.0,0.0,0.0,0.0,0.0,2.5678,2.5304,2.5157,2.5344,2.489,2.4636,2.4636,2.4636,2.4636,2.4636,2.4449,2.4302,2.4195,2.3901,2.3607,0.0,0.0,0.0,0.0,2.2928,2.2752,2.2579,2.2458,2.2205,2.1857,2.1695,2.1494,2.1256,0.0,0.0,0.0,0.0,0.0,0.0,0.0,0.0,2.0605,2.0605,2.0605,2.1075,2.2285,2.1639,2.168,2.2953,0.0,0.0,0.0,0.0,0.0,0.0,0.0,0.0,2.0352,1.9857,1.9865,2.0359,1.9889,1.9592,1.9396,1.9458,1.8393,1.645,1.6395,1.5647,1.4432,1.4447,1.4517,1.4699,1.4992,1.5215,0.0,0.0,0.0,0.0,0.0,0.0,0.0,0.0,0.0,0.0,0.0,0.0,0.0,0.0,0.0,0.0,0.0,0.0,0.0,0.0,0.0,0.0,0.0,0.0,0.0,1.5591,1.6033,1.6384,1.5874,1.6013,1.6171,1.596,0.0,0.0,0.0,0.0,0.0,0.0,0.0,0.0,0.0,0.0,0.0,0.0,0.0,0.0,2.5929,2.5344,2.505,2.505,2.4783,2.4636,2.4636,2.4636,2.4636,2.4636,2.4636,2.4476,2.4168,2.3888,2.3594,0.0,0.0,0.0,0.0,2.2928,2.2914,2.2806,2.2525,2.2392,2.2298,2.175,2.1601,2.1547,0.0,0.0,0.0,0.0,0.0,0.0,0.0,0.0,0.0,0.0,2.0605,2.082,2.1424,2.1055,2.0977,0.0,0.0,0.0,0.0,0.0,0.0,0.0,0.0,0.0,2.0527,2.0398,2.0525,2.0983,2.1119,2.0975,2.0517,2.0853,1.9962,1.8093,1.7508,1.6312,1.479,1.467,1.4559,1.4517,1.509,1.5131,0.0,0.0,0.0,0.0,1.4866,1.5061,0.0,0.0,0.0,0.0,0.0,0.0,0.0,0.0,1.5092,0.0,1.5966,0.0,1.5973,1.6199,1.6444,0.0,0.0,0.0,0.0,0.0,0.0,0.0,0.0,0.0,0.0,0.0,0.0,0.0,0.0,0.0,0.0,0.0,0.0,0.0,0.0,0.0,0.0,0.0,0.0,2.5344,2.497,2.481,2.4743,2.4743,2.4676,2.4636,2.4636,2.4636,2.4636,2.4636,2.4636,2.4369,2.3875,2.3808,2.3474,0.0,0.0,0.0,2.2928,2.2928,2.2726,2.2512,2.2445,2.2151,2.1737,2.1668,2.1403,2.1203,0.0,0.0,0.0,0.0,0.0,0.0,0.0,0.0,0.0,0.0,0.0,0.0,0.0,0.0,0.0,0.0,0.0,0.0,0.0,0.0,0.0,0.0,0.0,2.045,2.045,2.0248,2.0611,2.1607,2.1662,2.1816,2.2085,2.177,2.0704,1.8917,1.7507,1.6064,1.4726,1.5162,1.4977,1.4475,1.5131,0.0,0.0,0.0,0.0,0.0,1.4894,1.5019,0.0,1.5298,1.5298,1.5352,0.0,0.0,0.0,0.0,1.525,1.5455,1.5833,1.5836,1.5835,1.6125,1.6429,1.659,0.0,0.0,0.0,0.0,0.0,0.0,0.0,0.0,0.0,0.0,0.0,0.0,0.0,0.0,0.0,0.0,0.0,0.0,0.0,0.0,0.0,0.0,0.0,2.5037,2.485,2.4716,2.4636,2.4636,2.4502,2.4502,2.4636,2.4502,2.4502,2.4636,2.4502,2.4209,2.3768,2.3768,2.3434,0.0,0.0,0.0,2.2928,2.2928,2.2766,2.2619,2.2619,2.2271,2.175,2.175,2.1483,2.1109,0.0,0.0,0.0,0.0,0.0,0.0,0.0,0.0,0.0,0.0,0.0,0.0,0.0,0.0,0.0,0.0,0.0,0.0,0.0,0.0,0.0,0.0,2.045,2.0371,2.0449,1.992,2.0451,2.2057,2.1902,2.2346,2.3407,2.2547,2.1178,1.9304,1.736,1.5864,1.4805,1.5644,1.5385,1.4516,1.5119,0.0,0.0,0.0,0.0,0.0,0.0,0.0,0.0,1.509,1.5257,1.5382,1.5382,0.0,0.0,0.0,0.0,0.0,1.5877,1.617,1.6461,1.6829,1.6932,1.6888,1.6565,0.0,0.0,0.0,0.0,0.0,0.0,0.0,0.0,0.0,0.0,0.0,0.0,0.0,0.0,0.0,0.0,0.0,0.0,0.0,0.0,0.0,0.0,2.4796,2.4997,2.477,2.4609,2.4569,2.4329,2.4302,2.4502,2.4262,2.4262,2.4502,2.4249,2.3981,2.3701,2.3701,2.3394,2.2928,0.0,0.0,2.2928,2.2928,2.2928,2.2859,2.2806,2.2458,2.1977,2.1937,2.1577,2.1109,0.0,0.0,0.0,0.0,0.0,0.0,0.0,0.0,0.0,0.0,0.0,0.0,0.0,0.0,0.0,0.0,0.0,0.0,0.0,0.0,0.0,2.0605,2.0566,2.0703,2.1053,2.0289,2.0504,2.1844,2.2094,2.2474,2.3004,2.3578,2.2364,1.9678,1.8491,1.7176,1.5822,1.5575,1.5166,1.4845,1.5133,0.0,0.0,0.0,0.0,0.0,0.0,0.0,0.0,1.5465,1.5382,1.5382,1.5382,0.0,0.0,0.0,0.0,0.0,1.614,1.6357,1.6481,1.6797,1.7062,1.7179,1.6903,0.0,0.0,0.0,0.0,0.0,0.0,0.0,0.0,0.0,0.0,0.0,0.0,0.0,0.0,0.0,0.0,0.0,0.0,0.0,0.0,0.0,0.0,2.4917,2.4716,2.4663,2.4529,2.4275,2.4222,2.4102,2.3901,2.3861,2.3861,2.3901,2.3861,2.3688,2.3394,2.3394,2.3193,2.2928,0.0,2.2928,2.2928,2.2928,2.2928,2.2832,2.2579,2.2285,2.1951,2.1775,2.1403,2.1109,0.0,0.0,0.0,0.0,0.0,0.0,0.0,0.0,0.0,0.0,0.0,0.0,0.0,0.0,0.0,0.0,0.0,0.0,0.0,0.0,2.082,2.129,2.086,2.0722,2.105,2.0832,2.1315,2.2614,2.3111,2.3529,2.3883,2.325,2.147,1.8894,1.8691,1.7597,1.5929,1.6149,1.5713,1.4984,0.0,0.0,0.0,0.0,0.0,0.0,0.0,0.0,0.0,0.0,1.5298,1.5382,1.5257,0.0,0.0,0.0,0.0,0.0,1.6082,1.6429,1.6718,1.6892,1.7026,1.7032,0.0,0.0,0.0,0.0,0.0,0.0,0.0,0.0,0.0,0.0,0.0,0.0,0.0,0.0,0.0,0.0,0.0,0.0,0.0,0.0,0.0,0.0,0.0,0.0,2.4409,2.4249,2.4102,2.3968,2.3808,2.3661,2.3527,2.3367,2.3517,2.3768,2.3607,2.346,2.3327,2.3327,2.3153,2.2928,0.0,2.2928,2.2914,2.2686,2.2712,2.2819,2.2365,2.2111,2.1937,2.1483,2.1229,2.1109,0.0,0.0,0.0,0.0,0.0,0.0,0.0,0.0,0.0,0.0,0.0,0.0,0.0,0.0,0.0,0.0,0.0,0.0,0.0,0.0,2.0918,2.1584,2.1075,2.0975,2.1591,2.1494,2.2164,2.3608,2.4047,2.4417,2.4611,2.2876,2.0853,1.8719,1.9069,1.8143,1.6271,1.6831,1.6326,1.5115,0.0,0.0,0.0,0.0,0.0,0.0,0.0,0.0,0.0,0.0,0.0,0.0,0.0,0.0,0.0,1.4908,1.5262,1.572,1.6037,1.6487,1.6941,1.6969,0.0,0.0,0.0,0.0,0.0,0.0,0.0,0.0,0.0,0.0,0.0,0.0,0.0,0.0,0.0,0.0,0.0,0.0,0.0,0.0,0.0,0.0,0.0,0.0,0.0,0.0,2.4102,2.3888,2.3741,2.3674,2.3447,2.3287,2.322,2.2979,2.3169,2.3554,2.3327,2.322,2.322,2.322,2.3086,2.2928,2.2928,2.2887,2.2752,2.2592,2.2579,2.2619,2.2231,2.2004,2.183,2.1376,2.1216,2.1216,0.0,0.0,0.0,0.0,0.0,0.0,0.0,0.0,0.0,0.0,0.0,0.0,0.0,0.0,0.0,0.0,0.0,0.0,0.0,0.0,2.0625,2.0703,2.0996,2.1892,2.3574,2.2225,2.2519,2.4593,2.4519,2.4399,2.422,2.3249,2.1946,2.0411,2.0268,1.9206,1.7561,1.736,1.6536,1.5364,1.541,0.0,0.0,0.0,0.0,0.0,0.0,0.0,0.0,0.0,0.0,0.0,0.0,0.0,1.5382,1.534,1.5615,1.5936,1.6287,1.6646,1.6936,1.6965,1.712,0.0,1.7688,1.8,0.0,1.8928,0.0,0.0,0.0,0.0,0.0,0.0,0.0,0.0,0.0,0.0,0.0,0.0,0.0,0.0,0.0,0.0,0.0,0.0,0.0,0.0,2.3821,2.3781,2.3647,2.3367,2.334,2.3193,2.2899,2.2941,2.2954,2.2926,2.2968,2.2968,2.2968,2.2968,2.2954,2.2928,2.2928,2.2712,2.2472,2.2726,2.2525,2.2071,2.2298,2.2058,2.1641,2.1601,2.1588,2.1588,0.0,0.0,0.0,0.0,0.0,0.0,0.0,0.0,0.0,0.0,0.0,0.0,0.0,0.0,0.0,0.0,0.0,0.0,0.0,2.0605,2.086,2.1367,2.1016,2.1621,2.3403,2.3171,2.371,2.5083,2.47,2.43,2.401,2.2989,2.1851,2.0591,2.0546,1.9803,1.8611,1.787,1.7159,1.6546,1.5892,1.5651,0.0,0.0,0.0,0.0,0.0,0.0,0.0,0.0,1.509,1.5382,1.5257,1.5215,1.5173,1.4992,1.5447,1.6009,1.6124,1.6682,1.7175,1.7022,1.717,0.0,0.0,1.7908,1.8321,1.9152,1.9403,0.0,0.0,0.0,0.0,0.0,0.0,0.0,0.0,0.0,0.0,0.0,0.0,0.0,0.0,0.0,0.0,0.0,0.0,0.0,2.35,2.3313,2.3153,2.3046,2.3033,2.2979,2.2928,2.2928,2.2928,2.2928,2.2928,2.2928,2.2928,2.2928,2.2928,2.2928,2.2928,2.2806,2.2686,2.2619,2.2565,2.2525,2.2445,2.2071,2.1641,2.1815,2.1817,2.1817,0.0,0.0,0.0,0.0,0.0,0.0,0.0,0.0,0.0,0.0,0.0,0.0,0.0,0.0,0.0,0.0,0.0,0.0,2.0605,2.0605,2.0879,2.1445,2.1035,2.1447,2.2777,2.3415,2.4129,2.5025,2.4857,2.4339,2.3522,2.2871,2.208,2.1265,2.1016,2.0546,1.9982,1.8968,1.8117,1.7392,1.6728,1.6307,0.0,0.0,0.0,0.0,0.0,0.0,0.0,0.0,1.4992,1.5382,0.0,1.5173,1.5173,1.495,1.5376,1.5877,1.5877,1.6507,1.7046,1.6832,0.0,0.0,1.7863,1.8153,1.8713,1.9858,2.0072,0.0,0.0,0.0,0.0,0.0,0.0,0.0,0.0,0.0,0.0,0.0,0.0,0.0,0.0,0.0,0.0,0.0,0.0,0.0,0.0,2.2846,2.2726,2.2726,2.2632,2.2632,2.2726,2.2632,2.2646,2.2646,2.2646,2.2753,2.2928,2.2766,2.2726,2.2712,2.2619,2.2646,2.2565,2.2365,2.2405,2.2552,2.2258,2.1951,2.1789,2.2017,2.2124,2.2124,0.0,0.0,0.0,0.0,0.0,0.0,0.0,0.0,0.0,0.0,0.0,0.0,0.0,0.0,0.0,0.0,0.0,0.0,2.0605,2.0605,2.0605,2.0605,2.0996,2.1385,2.1855,2.2652,2.3491,2.4414,2.4986,2.4374,2.2684,2.2975,2.2975,2.2775,2.1889,2.1652,2.186,2.075,1.9311,1.7808,1.7808,1.7365,1.6673,0.0,0.0,0.0,0.0,0.0,0.0,0.0,1.4992,0.0,0.0,0.0,1.5382,1.5382,1.5488,1.5605,1.5619,1.6079,1.6461,0.0,0.0,0.0,1.8755,1.903,1.9635,2.1249,0.0,0.0,0.0,0.0,0.0,0.0,0.0,0.0,0.0,0.0,0.0,0.0,0.0,0.0,0.0,0.0,0.0,0.0,0.0,0.0,0.0,2.2418,2.2418,2.2418,2.2138,2.2124,2.2405,2.2124,2.1991,2.1991,2.1991,2.2285,2.2914,2.2552,2.2418,2.2392,2.2111,2.1991,2.1991,2.1991,2.1991,2.1951,2.1735,2.1802,2.2017,2.2311,2.2418,2.2418,0.0,0.0,0.0,0.0,0.0,0.0,0.0,0.0,0.0,0.0,0.0,0.0,0.0,0.0,0.0,0.0,0.0,0.0,2.0605,2.0605,2.0605,2.0605,2.0684,2.082,2.0997,2.1504,2.2477,2.3984,2.3963,2.3549,2.2764,2.3024,2.2915,2.2516,2.2745,2.2555,2.1971,2.0814,1.9579,1.8442,1.7755,1.7133,1.6647,0.0,0.0,0.0,0.0,0.0,0.0,0.0,0.0,0.0,0.0,0.0,1.5382,1.5382,1.6022,1.6649,1.6257,1.746,0.0,0.0,0.0,0.0,0.0,1.9478,0.0,0.0,0.0,0.0,0.0,0.0,0.0,0.0,0.0,0.0,0.0,0.0,0.0,0.0,0.0,0.0,0.0,0.0,0.0,0.0,0.0,0.0,0.0,2.2218,2.2111,2.2111,2.2031,2.2031,2.2111,2.2031,2.1991,2.1991,2.1991,2.2071,2.2245,2.2151,2.2111,2.2124,2.2231,2.2178,2.1991,2.1991,2.1871,2.1762,2.1817,2.1911,2.2017,2.2311,2.2552,2.2726,0.0,0.0,0.0,0.0,0.0,0.0,0.0,0.0,0.0,0.0,2.0605,0.0,0.0,0.0,0.0,0.0,0.0,0.0,0.0,2.0605,2.0605,2.0605,2.0605,2.0683,2.082,2.1426,2.2048,2.2773,2.2931,2.2708,2.2063,2.2942,2.3204,2.2859,2.3605,2.356,2.2906,2.1511,2.0386,1.9404,1.8067,1.7437,1.7194,0.0,0.0,0.0,0.0,0.0,0.0,0.0,0.0,0.0,0.0,0.0,1.5906,1.5906,1.6609,1.734,1.7016,0.0,0.0,0.0,0.0,0.0,0.0,0.0,0.0,0.0,0.0,0.0,0.0,0.0,0.0,0.0,0.0,0.0,0.0,0.0,0.0,0.0,0.0,0.0,0.0,0.0,0.0,0.0,0.0,0.0,0.0,2.1911,2.1817,2.1817,2.1697,2.1697,2.1817,2.1697,2.1643,2.1643,2.1643,2.1643,2.1643,2.1764,2.1817,2.1817,2.2004,2.1911,2.1643,2.1764,2.1643,2.1403,2.1697,2.1817,2.1844,2.2138,2.2365,2.2525,0.0,0.0,0.0,0.0,0.0,0.0,0.0,0.0,0.0,0.0,2.0605,2.0605,0.0,0.0,0.0,0.0,0.0,0.0,0.0,0.0,2.0605,2.0605,2.0644,2.084,2.1132,2.1973,2.1992,2.1132,2.2031,2.1967,2.1026,2.2921,2.3719,2.3615,2.4379,2.4564,2.4221,2.2618,2.1362,2.0382,1.8609,1.7955,1.7923,1.6731,0.0,0.0,0.0,0.0,0.0,0.0,0.0,0.0,1.5104,1.5767,1.6576,1.6698,1.7172,1.7755,1.7823,0.0,0.0,0.0,0.0,0.0,0.0,0.0,0.0,0.0,0.0,0.0,0.0,0.0,0.0,0.0,0.0,0.0,0.0,0.0,0.0,0.0,0.0,0.0,0.0,0.0,0.0,0.0,0.0,0.0,0.0,2.1588,2.1574,2.1574,2.1256,2.1243,2.1574,2.1243,2.1109,2.1109,2.1109,2.1109,2.1122,2.139,2.1588,2.1614,2.1588,2.1376,2.1162,2.1416,2.1349,2.1136,2.1403,2.1601,2.1655,2.1844,2.1964,2.2017,0.0,0.0,0.0,0.0,0.0,0.0,0.0,0.0,0.0,0.0,0.0,0.0,0.0,0.0,0.0,0.0,0.0,0.0,0.0,0.0,2.0605,2.0605,2.1076,2.1194,2.0742,2.1411,2.1431,2.0742,2.1582,2.1914,2.1736,2.3144,2.3965,2.4205,2.4542,2.4392,2.3767,2.2574,2.0965,1.9184,1.8768,1.7856,1.6668,1.6128,1.6072,0.0,0.0,0.0,0.0,0.0,0.0,0.0,1.5119,1.5382,1.5824,1.6494,1.731,1.8036,0.0,1.9453,0.0,0.0,0.0,0.0,0.0,0.0,0.0,0.0,0.0,0.0,0.0,0.0,0.0,0.0,0.0,0.0,0.0,0.0,0.0,0.0,0.0,0.0,0.0,0.0,0.0,0.0,0.0,0.0,2.1614,2.1336,2.1203,2.1203,2.1149,2.1136,2.1203,2.1149,2.1109,0.0,2.1109,2.1109,2.1109,2.1176,2.1336,2.1601,2.1309,2.1296,2.1507,2.1269,2.1162,2.1122,2.1176,2.1349,2.1628,2.1681,2.179,2.1991,0.0,0.0,0.0,0.0,0.0,0.0,0.0,0.0,0.0,0.0,0.0,0.0,0.0,0.0,0.0,0.0,0.0,0.0,0.0,0.0,2.0781,2.0625,2.1095,2.1135,2.0625,2.1115,2.1115,2.0605,2.1075,2.1367,2.1602,2.2676,2.3516,2.4141,2.4531,2.4421,2.3909,2.2384,2.095,1.9701,1.8347,1.737,1.6703,1.6028,1.5925,1.6005,1.5551,0.0,0.0,0.0,0.0,0.0,0.0,0.0,1.6343,1.6786,1.7442,1.8164,0.0,0.0,0.0,0.0,0.0,0.0,0.0,0.0,0.0,0.0,0.0,0.0,0.0,0.0,0.0,0.0,0.0,0.0,0.0,0.0,0.0,0.0,0.0,0.0,0.0,0.0,0.0,0.0,0.0,2.1336,2.1336,2.1189,2.1109,2.1109,2.1109,2.1109,2.1109,2.1109,2.1109,2.1109,2.1109,2.1109,2.1109,2.1109,2.1189,2.1336,2.1176,2.1203,2.1323,2.1176,2.1109,2.1109,2.1109,2.1203,2.1336,2.1336,2.143,2.159,0.0,0.0,0.0,0.0,0.0,0.0,0.0,0.0,0.0,0.0,0.0,0.0,0.0,0.0,0.0,0.0,0.0,0.0,0.0,0.0,0.0,2.0625,2.1036,2.1055,2.0625,2.1036,2.1055,2.0605,2.0605,2.0859,2.1424,2.2187,2.3008,2.3926,2.4365,2.4449,2.4172,2.2351,2.1295,2.055,1.8171,1.7227,1.7084,1.6232,1.5872,1.5792,1.5611,1.5517,1.5523,1.5228,0.0,0.0,0.0,0.0,1.7027,1.7217,1.7639,1.8193,0.0,0.0,0.0,0.0,0.0,0.0,0.0,0.0,0.0,0.0,0.0,0.0,0.0,0.0,0.0,0.0,0.0,0.0,0.0,0.0,0.0,0.0,0.0,0.0,0.0,0.0,0.0,0.0,0.0,2.1109,2.1109,2.1109,2.1235,2.1538,2.1235,2.1235,2.1538,2.1235,2.1109,2.1109,2.1109,2.1109,2.1109,2.1109,2.1109,2.1109,2.1109,2.1109,2.1109,2.1109,2.1109,2.1109,2.1109,2.1109,2.1109,2.1109,2.1109,2.1149,0.0,0.0,0.0,0.0,0.0,0.0,0.0,0.0,0.0,0.0,0.0,0.0,0.0,0.0,0.0,0.0,0.0,0.0,0.0,0.0,0.0,2.0625,2.1214,2.1253,2.0605,2.1234,2.1234,2.0605,2.0605,2.1172,2.2344,2.2461,2.3164,2.4316,2.4017,2.4052,2.4231,2.3196,2.1801,2.0248,1.9604,1.8353,1.6767,1.6365,1.6059,1.5832,1.6028,1.6109,1.6068,1.5768,1.5993,0.0,0.0,0.0,0.0,1.7345,1.7795,1.8175,0.0,0.0,0.0,0.0,0.0,0.0,0.0,0.0,0.0,0.0,0.0,0.0,0.0,0.0,0.0,0.0,0.0,0.0,0.0,0.0,0.0,0.0,0.0,0.0,0.0,0.0,0.0,0.0,2.1109,2.1109,2.1109,2.1109,2.179,2.3201,2.1853,2.179,2.3263,2.1853,2.1109,2.1109,2.1109,2.1109,2.1109,2.1109,2.1109,2.1109,2.1109,2.1109,2.1109,2.1109,2.1109,2.1109,2.1109,2.1109,2.1109,2.1109,2.1109,2.1122,0.0,0.0,0.0,0.0,0.0,0.0,0.0,0.0,0.0,0.0,0.0,0.0,0.0,0.0,0.0,0.0,0.0,0.0,0.0,0.0,0.0,2.0625,2.086,2.0918,2.0605,2.0899,2.0918,2.0605,2.082,2.1484,2.2519,2.2711,2.3555,2.4766,2.4198,2.4302,2.4764,2.3426,2.2309,2.1404,2.0164,1.8788,1.7327,1.6759,1.634,1.6035,1.5974,1.6163,1.6386,1.6121,1.6625,1.7291,1.6653,0.0,0.0,0.0,0.0,0.0,0.0,0.0,0.0,0.0,0.0,0.0,0.0,0.0,0.0,0.0,0.0,0.0,0.0,0.0,0.0,0.0,0.0,0.0,0.0,0.0,0.0,0.0,0.0,0.0,0.0,0.0,0.0,0.0,2.0615,2.0615,2.0615,2.0615,2.141,2.329,2.1714,2.1735,2.3574,2.1915,2.1109,2.1109,2.1109,2.1109,2.1109,2.1109,2.1109,2.1109,2.1109,2.1109,2.1109,2.1109,2.1109,2.1109,2.1109,2.1109,2.1109,2.1109,2.1109,2.1109,0.0,0.0,0.0,0.0,0.0,0.0,0.0,0.0,0.0,0.0,0.0,0.0,0.0,0.0,0.0,0.0,0.0,0.0,0.0,0.0,0.0,2.0644,2.0605,2.0605,2.0605,2.0605,2.0605,2.0605,2.1016,2.1639,2.2519,2.2949,2.3828,2.5039,2.4423,2.4572,2.5197,2.3742,2.289,2.2408,2.0532,1.9018,1.778,1.7272,1.6677,1.6163,1.6574,0.0,0.0,0.0,0.0,0.0,0.0,0.0,0.0,0.0,0.0,0.0,0.0,0.0,0.0,0.0,0.0,0.0,0.0,0.0,0.0,0.0,0.0,0.0,0.0,0.0,0.0,0.0,0.0,0.0,0.0,0.0,0.0,0.0,0.0,0.0,0.0,0.0,0.0,0.0,2.0167,2.0167,2.0167,2.0591,2.164,2.3473,2.2004,2.2058,2.3917,2.1998,2.1002,2.1002,2.1069,2.1109,2.1109,2.1109,2.1109,2.1109,2.1109,2.1109,2.1109,2.1109,2.1109,2.1109,2.1109,2.1109,2.1109,2.1109,2.1109,2.1109,0.0,0.0,0.0,0.0,0.0,0.0,0.0,0.0,0.0,0.0,0.0,0.0,0.0,2.2734,2.2676,2.3023,0.0,0.0,0.0,0.0,0.0,2.0644,2.0605,0.0,2.0605,2.0605,2.0605,2.0605,2.1016,2.1639,2.2519,2.2993,2.3893,2.5106,2.4609,2.4714,2.5265,2.4506,2.3624,2.2551,2.0976,0.0,0.0,0.0,0.0,0.0,0.0,0.0,0.0,0.0,0.0,0.0,0.0,0.0,0.0,0.0,0.0,0.0,0.0,0.0,0.0,0.0,0.0,0.0,0.0,0.0,0.0,0.0,0.0,0.0,0.0,0.0,0.0,0.0,0.0,0.0,0.0,0.0,0.0,0.0,0.0,0.0,0.0,0.0,0.0,0.0,2.0167,2.0167,2.0167,2.1601,2.3121,2.4753,2.3255,2.3211,2.4844,2.2097,2.0695,2.0695,2.0975,2.1109,2.1109,2.1109,2.1109,2.1109,2.1109,2.1109,2.1109,2.1109,2.1109,2.1109,2.1109,2.1109,2.1109,2.1109,2.1109,2.1109,0.0,0.0,0.0,0.0,0.0,0.0,0.0,0.0,0.0,0.0,0.0,0.0,0.0,2.2964,2.2925,2.3081,2.2964,0.0,0.0,0.0,0.0,2.1486,2.1152,2.0996,2.0996,2.0742,2.0605,2.0605,2.1289,2.1953,2.2539,2.3242,2.4147,2.5106,2.4902,2.5128,2.5528,2.4917,0.0,0.0,0.0,0.0,0.0,0.0,0.0,0.0,0.0,0.0,0.0,0.0,0.0,0.0,0.0,0.0,0.0,0.0,0.0,0.0,0.0,0.0,0.0,0.0,0.0,0.0,0.0,0.0,0.0,0.0,0.0,0.0,0.0,0.0,0.0,0.0,0.0,0.0,0.0,0.0,0.0,0.0,0.0,0.0,0.0,0.0,0.0,0.0,0.0,1.9679,1.9679,2.1103,2.2786,2.4606,2.3989,2.3594,2.3343,2.1399,2.0388,2.0401,2.0695,2.0828,2.0842,2.1029,2.1109,2.1109,2.1109,2.1109,2.1109,2.1109,2.1109,2.1109,2.1109,2.1109,2.1109,2.1109,2.1109,2.1109,0.0,0.0,0.0,0.0,0.0,0.0,0.0,0.0,0.0,0.0,0.0,0.0,0.0,0.0,2.3101,2.3101,2.3101,2.2925,2.2539,2.2519,2.2266,2.1699,2.1523,2.1346,2.119,2.0937,2.0781,2.0781,2.1523,2.2031,2.2324,2.3164,2.3965,2.4695,2.4785,2.5254,0.0,0.0,0.0,2.4647,0.0,0.0,1.9889,0.0,0.0,0.0,0.0,0.0,0.0,0.0,0.0,0.0,0.0,0.0,0.0,0.0,0.0,0.0,0.0,0.0,0.0,0.0,0.0,0.0,0.0,0.0,0.0,0.0,0.0,0.0,0.0,0.0,0.0,0.0,0.0,0.0,0.0,0.0,0.0,0.0,0.0,0.0,0.0,0.0,0.0,0.0,0.0,0.0,1.943,2.1259,2.3151,2.4974,2.4467,2.3518,2.22,2.0791,2.0094,2.0094,2.0388,2.0535,2.0535,2.0828,2.0962,2.0962,2.1069,2.1109,2.1109,2.1109,2.1109,2.1109,2.1109,2.1109,2.1109,2.1109,2.1109,2.1109,0.0,0.0,0.0,0.0,0.0,0.0,0.0,0.0,0.0,2.3926,0.0,0.0,0.0,0.0,0.0,2.312,2.312,2.2945,2.2559,2.2539,2.2168,2.1288,0.0,0.0,0.0,2.119,2.1171,2.1171,2.166,2.1894,2.1894,2.2711,2.3379,2.3828,2.4238,2.5137,2.6348,0.0,2.497,2.4361,0.0,2.1641,1.9837,0.0,0.0,0.0,2.1949,2.1731,0.0,2.1611,0.0,0.0,0.0,0.0,0.0,0.0,0.0,0.0,0.0,0.0,0.0,0.0,0.0,0.0,0.0,0.0,0.0,0.0,0.0,0.0,0.0,0.0,0.0,0.0,0.0,0.0,0.0,0.0,0.0,0.0,0.0,0.0,0.0,0.0,0.0,0.0,1.9185,1.9417,1.9417,2.2153,2.4488,2.6045,2.4544,2.3039,2.1643,2.0375,1.9786,1.98,2.0094,2.0167,2.018,2.0535,2.0681,2.0695,2.0975,2.1096,2.1109,2.1109,2.1109,2.1109,2.1109,2.1109,2.1109,2.1109,2.1109,2.1109,0.0,0.0,0.0,0.0,0.0,0.0,0.0,0.0,0.0,0.0,0.0,0.0,2.4036,2.4062,2.3945,2.3633,2.3613,2.3418,2.2945,2.3099,2.313,2.2893,2.2399,2.2063,2.1945,2.1154,2.0742,2.0742,2.1504,2.1894,2.1894,2.2711,2.3491,0.0,2.4355,2.498,2.5869,2.5488,0.0,2.5509,2.4881,2.3032,0.0,0.0,0.0,0.0,0.0,2.1225,2.0419,0.0,2.2648,2.1877,0.0,0.0,0.0,0.0,0.0,0.0,1.95,0.0,0.0,0.0,0.0,0.0,0.0,0.0,0.0,0.0,0.0,0.0,0.0,0.0,0.0,0.0,0.0,0.0,0.0,0.0,0.0,0.0,0.0,0.0,0.0,0.0,0.0,0.0,1.8878,1.9052,1.9052,2.107,2.3431,2.6045,2.3599,2.2024,2.1586,2.0224,1.9586,1.98,2.0094,2.0167,2.018,2.0535,2.0681,2.0681,2.0762,2.0909,2.1109,2.1109,2.1109,2.1109,2.1109,2.1109,2.1109,2.1109,2.1109,2.1109,0.0,0.0,0.0,0.0,0.0,0.0,0.0,0.0,0.0,0.0,0.0,0.0,2.4434,2.457,2.4512,2.4082,2.4043,2.3867,2.3437,2.3551,2.3525,2.3256,2.2918,2.2661,2.2482,2.1885,2.1548,2.1548,2.1977,2.219,2.2335,2.2832,2.3354,0.0,0.0,0.0,0.0,0.0,0.0,0.0,2.4779,0.0,0.0,2.2464,2.1426,0.0,0.0,0.0,2.2232,2.3491,2.3567,0.0,0.0,0.0,0.0,0.0,0.0,0.0,0.0,0.0,0.0,0.0,0.0,0.0,1.6529,1.6178,0.0,0.0,0.0,0.0,0.0,0.0,0.0,0.0,0.0,0.0,0.0,0.0,0.0,0.0,0.0,0.0,0.0,1.8183,1.832,1.8846,1.8767,1.9066,1.978,2.0837,2.256,2.5041,2.2814,2.1586,2.1586,2.0141,1.9452,1.9626,1.9907,2.0054,2.0067,2.0361,2.0494,2.0494,2.0615,2.0775,2.0935,2.1056,2.1109,2.1109,2.1109,2.1109,2.1109,2.1109,2.1109,2.1109,0.0,0.0,0.0,0.0,0.0,0.0,0.0,0.0,0.0,0.0,2.5302,2.5137,2.4746,2.5,2.5086,2.4636,2.4512,2.4316,2.3932,2.3854,2.359,2.3037,2.3318,2.3299,2.2964,2.2862,2.2842,2.2884,2.267,2.2689,2.2921,2.3079,2.3164,2.3198,0.0,0.0,0.0,0.0,0.0,2.5188,2.3936,2.3335,0.0,0.0,2.2362,0.0,2.3104,2.3806,2.4296,2.3796,2.3971,0.0,0.0,0.0,0.0,0.0,2.3869,0.0,0.0,0.0,0.0,0.0,0.0,0.0,1.6861,1.6476,1.6118,0.0,0.0,0.0,0.0,0.0,0.0,0.0,0.0,0.0,0.0,0.0,0.0,0.0,0.0,0.0,1.8213,1.7835,1.7959,1.9066,1.8739,1.9209,2.0962,2.0966,2.1729,2.3478,2.2122,2.1358,2.1358,2.004,1.9457,1.9466,1.972,1.9867,1.9907,2.016,2.0267,2.0254,2.0508,2.0641,2.0695,2.0949,2.1082,2.1109,2.1109,2.1109,2.1109,2.1109,2.1109,2.1109,0.0,0.0,0.0,0.0,0.0,0.0,0.0,0.0,0.0,0.0,2.6426,2.6602,2.6523,2.6289,2.6055,2.5777,2.5279,2.4859,2.4611,2.4256,2.3979,2.3846,2.3487,2.3193,2.3155,2.2585,2.2426,2.2674,2.2784,2.2859,2.2921,2.3252,2.3516,0.0,0.0,0.0,0.0,0.0,0.0,2.5119,2.5199,0.0,2.3311,2.3777,2.2943,2.1653,2.2751,2.2783,2.2306,0.0,2.3404,2.4473,0.0,0.0,0.0,0.0,0.0,0.0,0.0,0.0,0.0,0.0,0.0,0.0,1.8117,1.7215,1.6501,0.0,0.0,0.0,0.0,0.0,0.0,0.0,0.0,0.0,0.0,0.0,0.0,0.0,0.0,0.0,1.705,1.6958,1.7069,1.7568,1.7902,1.8891,2.0689,1.9877,2.0047,2.1572,2.0459,1.9809,1.9809,1.9533,1.9599,2.0067,2.012,2.0281,2.0508,2.0561,2.0454,2.018,2.0294,2.0454,2.0681,2.0735,2.0895,2.1109,2.1109,2.1109,2.1109,2.1109,2.1109,2.1109,0.0,0.0,0.0,0.0,0.0,0.0,0.0,0.0,0.0,2.6641,2.7246,2.763,2.755,2.7137,2.6804,2.6663,2.5983,2.55,0.0,2.4565,2.4275,2.4282,2.3794,2.3561,2.3689,2.3382,2.3197,2.3197,2.329,2.3305,2.3196,2.3414,0.0,0.0,0.0,0.0,0.0,0.0,2.5742,2.5635,2.4564,0.0,2.3476,2.3043,2.2565,2.2271,2.2862,2.2775,2.2536,2.3415,2.4025,0.0,0.0,2.5547,2.5723,0.0,2.5625,2.5382,0.0,0.0,0.0,2.1374,0.0,0.0,0.0,1.8025,1.7244,0.0,0.0,0.0,0.0,0.0,0.0,0.0,0.0,0.0,0.0,0.0,0.0,0.0,0.0,0.0,1.7971,1.7114,1.6673,1.7166,1.7435,1.8102,1.9283,1.8919,1.9095,2.0005,1.9601,1.943,1.943,1.943,1.9506,1.98,1.9947,2.0094,2.0241,2.0241,2.016,2.0027,2.0113,2.0321,2.0481,2.0775,2.0975,2.1109,2.1109,2.1109,2.1109,2.1109,2.1109,2.1109,0.0,0.0,0.0,0.0,0.0,0.0,0.0,0.0,0.0,2.7187,2.7871,2.829,0.0,0.0,0.0,0.0,0.0,0.0,0.0,0.0,2.4506,2.4466,2.4159,2.4071,2.412,2.4163,2.412,2.3884,2.3841,2.3711,2.3493,2.3493,0.0,0.0,0.0,0.0,0.0,0.0,0.0,2.5986,0.0,2.3466,2.401,2.2367,2.2384,2.3198,2.312,2.3101,2.3257,2.4434,0.0,2.4551,2.5304,2.6016,0.0,0.0,0.0,0.0,0.0,0.0,0.0,0.0,0.0,2.0559,0.0,0.0,0.0,0.0,0.0,0.0,0.0,0.0,0.0,0.0,0.0,0.0,0.0,0.0,0.0,0.0,0.0,0.0,0.0,1.7366,1.6599,1.7072,1.7217,1.7434,1.7876,1.8237,1.8544,1.8824,1.9132,1.9305,1.943,1.943,1.9457,1.9452,1.9693,1.9826,1.988,1.9947,1.9907,1.9813,2.016,2.0281,2.0207,2.0802,2.1056,2.1109,2.1109,2.1109,2.1109,2.1109,2.1109,2.1109,2.3754,2.3797,0.0,0.0,0.0,0.0,0.0,0.0,0.0,2.7988,2.8242,0.0,0.0,0.0,0.0,0.0,0.0,0.0,2.7606,0.0,0.0,2.4447,2.4621,2.4483,2.3861,2.4077,2.4206,2.4163,2.3927,2.3711,0.0,0.0,0.0,0.0,2.3809,0.0,0.0,0.0,2.5223,0.0,2.4489,2.4703,0.0,2.4023,2.3621,2.3672,2.3237,2.3101,2.3179,0.0,2.416,2.4492,0.0,2.5977,2.6797,0.0,0.0,0.0,0.0,0.0,0.0,0.0,2.3682,0.0,0.0,0.0,1.9051,0.0,0.0,0.0,0.0,0.0,0.0,0.0,0.0,0.0,0.0,0.0,0.0,0.0,0.0,0.0,0.0,1.6642,1.6665,1.6727,1.7211,1.7495,1.7622,1.7929,1.8237,1.8531,1.8824,1.9105,1.9417,1.943,1.9492,1.9746,1.9786,1.9933,2.0127,2.0454,2.0294,1.9826,2.0388,2.0481,2.0254,2.0588,2.0882,2.1109,2.1109,2.1109,2.1109,2.1109,2.1109,2.1109,2.3754,2.3927,0.0,0.0,0.0,0.0,0.0,0.0,0.0,0.0,0.0,0.0,0.0,0.0,0.0,0.0,0.0,2.6963,0.0,0.0,0.0,0.0,0.0,0.0,2.4638,2.4459,2.4335,2.4206,2.4077,2.3841,0.0,0.0,0.0,0.0,2.4043,0.0,2.4727,0.0,2.5605,0.0,0.0,0.0,0.0,2.4102,2.3418,2.3379,2.3159,2.3101,2.312,0.0,2.3867,0.0,0.0,0.0,0.0,0.0,0.0,0.0,0.0,0.0,0.0,0.0,0.0,0.0,2.3019,0.0,2.061,0.0,0.0,0.0,0.0,0.0,0.0,0.0,0.0,0.0,0.0,0.0,0.0,0.0,0.0,0.0,0.0,0.0,0.0,0.0,1.6827,1.7123,1.7367,1.7782,1.8049,1.8223,1.8677,1.8985,1.9105,1.9279,1.9484,1.9604,2.0452,2.0901,2.1044,2.1299,2.1299,2.1085,2.0828,2.0601,2.0508,2.0802,2.1002,2.1109,2.1109,2.1109,2.1109,2.1109,2.1109,2.1109,2.3797,0.0,0.0,0.0,0.0,0.0,0.0,0.0,0.0,0.0,0.0,0.0,3.1449,3.0631,0.0,0.0,2.9219,2.8061,0.0,0.0,2.5832,0.0,0.0,0.0,0.0,0.0,2.4607,2.439,2.4303,0.0,0.0,0.0,0.0,0.0,0.0,2.4551,2.4805,0.0,0.0,2.6152,2.5605,2.5382,2.5332,2.3867,2.3198,2.3101,2.3101,2.3101,2.312,2.3237,2.3809,0.0,2.5312,0.0,0.0,0.0,0.0,0.0,2.5038,0.0,0.0,0.0,0.0,0.0,0.0,0.0,0.0,0.0,0.0,0.0,0.0,0.0,0.0,0.0,0.0,0.0,0.0,0.0,0.0,0.0,0.0,0.0,0.0,0.0,0.0,1.6454,1.6572,1.6854,1.7179,1.7569,1.7822,1.7995,1.8488,1.8838,1.8918,1.9601,1.9982,2.004,2.1487,2.2194,2.2209,2.2135,2.2095,2.1934,2.1155,2.0748,2.0695,2.0989,2.1109,2.1109,2.1109,2.1109,2.1109,2.1109,2.1109,2.1109,2.3841,2.4013,0.0,0.0,0.0,0.0,0.0,0.0,0.0,0.0,0.0,0.0,0.0,0.0,0.0,0.0,0.0,2.7885,2.8256,0.0,2.6096,0.0,0.0,2.5941,0.0,0.0,0.0,0.0,0.0,0.0,0.0,0.0,0.0,0.0,0.0,2.4902,2.5615,2.5254,2.5352,2.5635,2.4805,2.3965,2.3237,0.0,2.3516,2.3101,2.3101,0.0,0.0,2.3633,2.4062,0.0,0.0,0.0,0.0,0.0,0.0,0.0,0.0,0.0,0.0,2.5791,0.0,0.0,0.0,0.0,2.3217,0.0,0.0,0.0,0.0,0.0,0.0,0.0,0.0,0.0,0.0,0.0,0.0,0.0,0.0,0.0,0.0,0.0,0.0,1.6697,1.669,1.6851,1.7166,1.7219,1.7448,1.7969,1.8343,1.8637,1.8918,2.0643,2.1529,2.1529,2.3039,2.371,2.3687,2.2859,2.2334,2.1949,2.1376,2.0935,2.0695,2.0989,2.1109,2.1109,2.1109,2.1109,2.1109,2.1109,2.1109,2.1109,2.4018,2.4569,2.49,2.4395,0.0,0.0,0.0,2.7643,0.0,0.0,0.0,0.0,0.0,3.2894,3.2435,0.0,0.0,2.9944,2.9455,2.856,0.0,0.0,0.0,2.6604,0.0,0.0,0.0,0.0,0.0,0.0,0.0,0.0,0.0,0.0,0.0,2.5019,0.0,0.0,0.0,0.0,0.0,2.4082,2.3555,0.0,0.0,2.3101,2.3101,2.3101,0.0,2.3257,2.3652,2.4121,2.4891,2.5321,2.5625,2.6211,2.6484,0.0,0.0,0.0,2.707,2.6348,0.0,0.0,0.0,0.0,0.0,0.0,0.0,0.0,0.0,0.0,0.0,0.0,0.0,0.0,0.0,0.0,0.0,0.0,0.0,0.0,0.0,0.0,0.0,1.6375,1.6408,1.6545,1.6834,1.7099,1.7422,1.7969,1.833,1.8637,1.8918,1.9715,2.0644,2.1643,2.3095,2.4457,2.5737,2.5617,2.5676,2.5695,2.3626,2.3313,2.4055,2.1985,2.1727,2.2654,2.1538,2.1109,2.1109,2.1109,2.1109,2.1109,2.4282,2.4836,2.5166,2.4757,0.0,0.0,0.0,0.0,0.0,0.0,3.1834,0.0,3.4489,0.0,3.3452,0.0,3.2454,3.1287,2.9897,2.9465,0.0,2.7252,2.7394,0.0,0.0,0.0,0.0,0.0,0.0,2.5706,0.0,0.0,0.0,0.0,0.0,0.0,2.5312,0.0,2.5215,0.0,0.0,2.3945,0.0,0.0,2.3198,2.3315,0.0,2.3101,2.3101,2.3101,2.3437,2.3906,2.4609,2.4988,2.5282,2.6133,2.6504,2.6602,2.6602,2.7129,0.0,2.6602,2.6699,0.0,2.5888,0.0,0.0,0.0,0.0,0.0,0.0,0.0,0.0,0.0,0.0,0.0,0.0,0.0,0.0,0.0,0.0,0.0,0.0,0.0,1.6414,1.6224,1.6259,1.6384,0.0,0.0,1.7315,1.7969,1.833,1.8637,1.8918,2.0273,2.143,2.242,2.4433,2.6152,2.7456,2.7244,2.7337,2.7674,2.5412,2.5024,2.5802,2.3124,2.2654,2.345,2.1727,2.1109,2.1109,2.1109,2.1109,2.1109,2.4589,2.4763,2.5104,2.5533,2.6522,0.0,0.0,0.0,3.0445,0.0,3.1931,3.2814,3.3656,3.347,3.3265,3.3347,3.2979,0.0,2.9664,3.0198,0.0,0.0,2.7312,2.7162,2.5642,0.0,0.0,0.0,0.0,0.0,0.0,0.0,0.0,0.0,2.5693,0.0,2.5693,2.5674,2.543,2.4988,2.4121,2.3535,2.312,2.3101,2.3418,2.373,2.3257,2.3101,2.3101,2.3101,2.3418,2.3828,2.4277,2.4707,2.5262,2.6094,2.666,2.6992,2.7012,2.7324,2.7493,2.6621,0.0,0.0,0.0,0.0,2.6269,0.0,0.0,0.0,0.0,0.0,0.0,0.0,0.0,0.0,0.0,0.0,0.0,0.0,0.0,0.0,0.0,0.0,1.6838,1.6319,1.6224,1.634,0.0,0.0,1.7141,1.7982,1.8357,1.8651,1.8945,2.2096,2.371,2.3822,2.6808,2.8481,2.891,2.7789,2.7488,2.7885,2.6679,2.6167,2.6106,2.4425,2.3698,2.3574,2.1853,2.1172,2.1109,2.1109,2.1109,2.1109,2.5007,2.5782,2.6458,0.0,2.6827,2.7235,0.0,0.0,0.0,0.0,3.3093,3.3902,3.4851,3.4314,3.3877,3.3877,3.2933,0.0,0.0,0.0,0.0,2.8741,2.8767,2.8173,2.6923,2.7077,0.0,2.6553,0.0,0.0,2.6335,0.0,0.0,0.0,0.0,0.0,2.5674,2.5371,2.4805,2.4102,2.3887,2.373,0.0,0.0,2.3418,2.373,2.3257,2.3101,2.3101,2.3101,2.3179,2.3393,2.418,2.4492,2.4766,2.5644,2.6211,2.6621,2.6934,2.709,2.7129,2.6914,2.6699,2.6484,0.0,0.0,0.0,0.0,0.0,0.0,0.0,0.0,0.0,0.0,0.0,0.0,0.0,0.0,0.0,0.0,0.0,0.0,0.0,1.8703,1.7466,1.7326,1.6433,1.6134,0.0,0.0,0.0,1.8343,1.8664,1.8958,1.9252,2.1215,2.2702,2.3822,2.6076,2.79,2.9414,2.9429,2.9623,3.0004,2.845,2.8486,2.9412,2.653,2.5375,2.5192,2.3559,2.2215,2.1109,2.1109,2.1109,2.1109,2.5516,2.6459,0.0,2.7821,0.0,0.0,2.925,0.0,0.0,3.2513,3.3374,0.0,3.4418,3.4269,3.3926,3.3535,3.2851,0.0,3.182,0.0,0.0,2.9833,2.9307,2.8437,2.7235,2.6983,0.0,2.6405,0.0,0.0,2.6496,0.0,0.0,0.0,0.0,2.6163,0.0,2.5799,2.5173,2.4609,2.4219,0.0,0.0,2.3516,2.3457,2.3477,2.3179,2.3101,2.3101,2.3101,2.3218,2.3535,2.4199,2.4551,2.4844,2.5479,2.6055,2.6445,2.668,2.6875,2.6973,2.6777,2.6699,2.6621,2.6426,2.6523,2.6777,0.0,0.0,0.0,0.0,0.0,0.0,0.0,0.0,0.0,0.0,0.0,0.0,0.0,0.0,0.0,0.0,1.901,1.7232,1.7232,1.6447,0.0,0.0,0.0,0.0,1.8464,1.8891,1.953,2.0371,2.1964,2.3561,2.5078,2.6828,2.8442,2.9844,3.0098,3.0449,3.082,2.9903,3.002,3.0704,2.811,2.7073,2.6893,2.5269,2.3186,2.1172,2.1915,2.1727,2.1109,0.0,0.0,0.0,0.0,0.0,0.0,0.0,3.0383,0.0,3.2292,0.0,3.3512,3.3206,3.3587,3.3516,3.2773,0.0,3.227,3.1366,3.1368,3.1015,3.0063,2.9349,2.8418,2.7129,2.6498,0.0,0.0,0.0,0.0,0.0,0.0,0.0,0.0,0.0,0.0,0.0,2.6507,2.5985,0.0,2.4805,2.4258,2.3867,2.3809,2.3555,2.3179,2.312,2.3101,2.3101,2.3101,2.3354,2.3769,2.4199,2.4629,2.5078,2.5527,2.5957,2.6309,2.6367,2.6621,2.6777,2.6465,2.6621,2.6777,2.6523,2.6758,2.7148,2.7637,2.7441,2.7285,0.0,0.0,0.0,0.0,0.0,0.0,0.0,0.0,0.0,0.0,0.0,0.0,0.0,0.0,0.0,0.0,0.0,0.0,0.0,0.0,0.0,1.8464,1.932,2.037,2.1645,0.0,2.5417,2.6805,2.8327,2.9473,3.0195,3.0254,3.0508,3.0898,3.0898,3.0898,3.0762,2.9335,2.8605,2.823,2.6832,2.4455,2.1964,2.3621,2.3043,2.1479,0.0,0.0,0.0,0.0,0.0,2.9781,3.0621,3.1556,3.2296,3.2535,3.3082,3.3289,3.2894,3.2679,3.2441,3.2285,3.1953,0.0,0.0,0.0,0.0,3.0174,2.9744,2.8867,2.763,2.7001,2.6574,0.0,0.0,0.0,0.0,0.0,0.0,0.0,0.0,0.0,2.6584,2.6656,0.0,2.5176,2.5019,2.4687,2.4277,2.3926,2.375,2.3633,2.3218,2.3101,2.3101,2.3101,2.314,2.3276,2.3769,2.4199,2.4609,2.5059,2.5508,2.5937,2.6289,2.6172,2.5986,2.6309,2.6172,2.6083,2.6758,2.6973,2.7246,2.8027,2.8125,2.7988,2.7767,0.0,0.0,0.0,0.0,0.0,0.0,0.0,0.0,0.0,0.0,0.0,0.0,0.0,0.0,0.0,0.0,0.0,0.0,0.0,0.0,0.0,2.0559,0.0,0.0,0.0,2.69,2.7203,2.9107,3.0059,3.0215,3.0586,3.082,3.0898,3.0898,3.0898,3.0898,3.0587,2.9648,2.8349,2.811,2.6832,2.5314,2.6953,2.5814,2.3281,0.0,0.0,0.0,0.0,0.0,0.0,0.0,3.2018,0.0,3.2276,3.2274,3.2253,3.2056,3.2133,3.207,3.1855,3.1641,3.1426,3.1211,3.0996,3.0684,3.0215,2.9785,0.0,2.7748,2.6752,2.6328,2.6496,0.0,0.0,0.0,0.0,0.0,0.0,0.0,2.7184,0.0,0.0,0.0,2.5742,2.5508,2.5156,2.4707,2.4277,2.3984,2.373,2.3257,2.3101,2.3101,2.3101,2.3237,2.3516,2.373,2.4238,2.4805,2.5,2.5391,2.5732,2.5996,2.5849,2.5732,2.5996,2.6055,2.625,2.6875,2.7187,2.7539,2.8164,2.8301,2.8164,2.7754,2.7148,0.0,0.0,0.0,0.0,0.0,0.0,0.0,0.0,0.0,0.0,0.0,0.0,0.0,0.0,0.0,0.0,0.0,0.0,0.0,0.0,0.0,0.0,0.0,0.0,0.0,2.8842,2.9736,3.0332,3.0566,3.0781,3.0898,3.0898,3.0898,3.0898,3.0898,3.0898,2.9903,2.8486,2.9353,2.817,2.6244,2.8101,2.7439,2.5359,0.0,2.9497,0.0,0.0,3.0983,0.0,3.1344,3.1997,3.2366,3.2018,3.1623,3.1347,3.1347,3.1722,3.1758,3.1406,3.1387,3.125,3.0918,3.0898,3.0644,3.0098,2.9746,2.9019,2.7748,2.6484,2.6054,0.0,0.0,0.0,0.0,0.0,0.0,0.0,0.0,0.0,0.0,0.0,2.6695,2.6348,2.5869,2.5527,2.5156,2.4629,2.4219,2.3848,2.3276,2.3101,2.3101,2.3198,2.3437,2.3672,2.3769,2.4316,2.4941,2.5086,2.5391,2.5693,2.5693,2.5752,2.583,2.583,2.6211,2.6641,2.7051,2.7422,2.7793,2.8203,2.8301,2.8164,2.7754,2.7461,0.0,0.0,0.0,0.0,0.0,0.0,0.0,0.0,0.0,0.0,0.0,0.0,0.0,0.0,0.0,0.0,0.0,0.0,0.0,0.0,0.0,2.3518,2.4996,0.0,2.8632,3.0351,3.0351,3.0527,3.0898,3.0898,3.0898,3.0898,3.0898,3.0898,3.0898,3.0898,3.0138,2.9039,3.0392,2.935,2.7349,2.9034,2.8818,2.7537,0.0,0.0,0.0,0.0,0.0,0.0,3.1384,3.1486,3.1758,3.2131,3.1779,3.1465,3.1465,3.1191,3.0996,3.0957,3.0957,3.0937,3.0898,3.0898,3.0508,2.9668,2.959,2.9019,2.7748,2.6797,2.6458,0.0,0.0,0.0,0.0,0.0,0.0,0.0,0.0,0.0,0.0,2.7278,2.6971,2.6348,2.5869,2.5654,2.5538,2.4746,2.4394,2.4258,2.3393,2.3101,2.3159,2.3594,2.3496,2.3218,2.3672,2.4102,2.4551,2.4988,2.5391,2.5693,2.5693,2.6035,2.6328,2.6328,2.6641,2.707,2.75,2.7689,2.7793,2.8203,2.8301,2.8164,2.7754,2.7949,2.8027,0.0,0.0,0.0,0.0,0.0,0.0,0.0,0.0,0.0,0.0,0.0,0.0,0.0,0.0,0.0,0.0,0.0,0.0,2.0139,0.0,2.5793,2.6668,2.8804,3.0256,3.082,3.082,3.0859,3.0898,3.0898,3.0898,3.0898,3.0898,3.0898,3.0898,3.0898,3.082,3.0704,3.084,3.0937,3.1028,3.1186,3.0696,2.9869,0.0,0.0,0.0,0.0,0.0,0.0,0.0,3.1465,3.1484,3.1406,3.125,3.1133,3.1133,3.0996,3.0898,3.0898,3.0898,3.0781,3.0488,3.0469,3.0078,2.9219,2.918,2.8711,2.7748,2.707,2.6772,0.0,0.0,0.0,0.0,0.0,0.0,0.0,0.0,2.7427,2.7363,2.7007,2.6643,2.6348,2.5869,2.5693,2.5615,2.5039,2.4805,2.4727,2.4121,2.3861,2.3881,2.4102,2.3887,2.3613,2.4023,2.4648,2.5195,2.5098,2.5566,2.6074,2.5752,2.581,2.6055,2.6328,2.6699,2.7129,2.7559,2.7904,2.8086,2.8262,2.8301,2.8242,2.8066,2.7969,2.7949,0.0,0.0,0.0,0.0,0.0,0.0,0.0,0.0,0.0,0.0,0.0,0.0,0.0,0.0,0.0,0.0,0.0,0.0,1.9497,0.0,2.5252,2.5823,2.8746,3.043,3.0898,3.0898,3.0898,3.0898,3.0898,3.0898,3.0898,3.0898,3.0898,3.0898,3.0898,3.0898,3.0898,3.0898,3.1152,3.1543,3.1816,3.1838,3.1797,3.0454,0.0,3.0761,0.0,3.1269,3.1348,3.1309,3.1328,3.123,3.0937,3.0898,3.0898,3.0898,3.0898,3.0898,3.0898,3.0898,3.0703,3.0234,3.0195,2.9805,2.8945,2.8926,0.0,2.7871,2.7422,2.7153,2.7041,2.7222,0.0,0.0,0.0,0.0,0.0,2.7055,2.7187,2.7422,2.6699,2.6465,2.6523,2.5957,2.5693,2.5635,2.5234,2.5106,2.5047,2.457,2.4414,2.4434,2.457,2.4414,2.4219,2.4512,2.5117,2.5654,2.5508,2.5898,2.6328,2.6016,2.5966,2.6142,2.6484,2.6992,2.7461,2.7773,2.8184,2.8476,2.8476,2.8379,2.8301,2.8301,2.8047,2.7988,2.8398,0.0,0.0,0.0,0.0,0.0,0.0,0.0,2.6278,2.5441,0.0,0.0,0.0,0.0,0.0,0.0,0.0,0.0,0.0,0.0,0.0,0.0,2.8917,3.043,3.0898,3.0898,3.0898,3.0898,3.0898,3.0898,3.0898,3.0898,3.0898,3.0898,3.0898,3.0898,3.0898,3.0898,3.123,3.1758,3.2051,3.2519,3.3027,3.0571,3.095,3.1208,3.0937,3.123,3.1367,3.0957,3.0898,3.0898,3.0898,3.0898,3.0898,3.0898,3.0898,3.0898,3.0898,3.0898,3.0703,3.0234,3.0195,2.9805,0.0,0.0,2.8711,2.8301,2.7924,2.7708,2.7708,0.0,0.0,2.6814,0.0,2.6745,2.6834,2.6918,2.7012,2.6992,2.6562,2.6621,2.6934,2.6025,2.5693,2.5635,2.5234,2.5106,2.5047,2.457,2.4414,2.4473,2.4969,2.5106,2.5106,2.5106,2.5371,2.5771,2.625,2.6387,2.6387,2.6387,2.668,2.7012,2.7012,2.7656,2.8281,2.8281,2.8613,2.8906,2.8906,2.8574,2.8301,2.8301,2.8281,2.8418,2.8848,0.0,0.0,0.0,0.0,0.0,0.0,2.7285,2.7012,2.6992,0.0,0.0,0.0,0.0,0.0,0.0,0.0,0.0,2.5754,2.7508,0.0,2.9757,3.0024,3.043,3.0898,3.0898,3.0898,3.0898,3.0898,3.0898,3.0898,3.0898,3.0898,3.0898,3.0898,3.0898,3.0898,3.0898,3.1406,3.2168,3.2229,3.2695,3.3418,3.0818,3.0897,3.0995,3.0898,3.0996,3.1055,3.0918,3.0898,3.0898,3.0898,3.0898,3.0898,3.0898,3.0898,3.0898,0.0,3.0898,3.0566,0.0,2.9766,2.9394,2.8535,2.8496,2.8437,2.8301,2.8164,2.7949,2.7728,0.0,0.0,0.0,2.732,2.708,2.6918,2.7317,2.7285,2.7012,2.6875,2.6719,2.6543,2.5908,2.5693,2.5674,2.5586,2.5527,2.5508,2.5323,2.5265,2.5284,2.5469,2.5527,2.5586,2.5879,2.6269,2.6582,2.6426,2.6602,2.6758,2.6465,2.6484,2.666,2.6934,2.7441,2.8008,2.8594,2.8828,2.8848,2.8555,2.8379,2.8301,2.8301,2.8301,2.834,2.8476,2.8496,0.0,0.0,0.0,0.0,0.0,2.7793,2.7656,0.0,2.7285,0.0,0.0,0.0,0.0,0.0,0.0,0.0,0.0,2.7166,0.0,2.8566,2.9988,3.0742,3.0898,3.0898,3.0898,3.0898,3.0898,3.0898,3.0898,3.0898,3.0898,3.0898,3.0898,3.0898,3.0898,3.0898,3.1406,3.2229,3.2229,3.2695,3.3418,3.0898,3.0898,3.0898,3.0898,3.0898,3.0898,3.0898,3.0898,3.0898,3.0898,3.0898,3.0898,3.0898,3.0898,0.0,3.0898,3.0898,3.0508,2.9685,2.9726,2.9355,2.834,2.8437,2.8457,2.8301,2.8301,0.0,2.7963,2.8009,2.7858,2.7475,2.7148,2.6929,2.6797,2.7226,2.7187,2.6777,2.6777,2.6719,2.6562,2.5927,2.5791,2.5957,2.5752,2.5693,2.5693,2.5693,2.5693,2.5693,2.5693,2.5791,2.6035,2.6309,2.6797,2.7168,2.6758,2.6816,2.6914,2.6504,2.6504,2.668,2.6953,2.7461,2.8086,2.8769,2.8926,2.8848,2.8574,2.8398,2.8301,2.8301,2.8301,2.834,2.8496,2.8535,2.8535,2.8535,0.0,0.0,0.0,0.0,0.0,0.0,2.8066,2.8066,0.0,0.0,0.0,0.0,0.0,0.0,2.6999,2.8378,0.0,2.9098,3.0257,3.0898,3.0898,3.0898,3.0898,3.0898,3.0898,3.0898,3.0898,3.0898,3.0898,3.0898,3.0898,3.0898,3.0898,3.0898,3.1406,3.2229,3.2229,3.2695,3.3418,3.0898,3.0898,3.0898,0.0,3.0898,0.0,3.0898,3.0898,3.0898,3.0898,3.0898,3.0898,3.0898,3.0898,3.0898,3.0898,0.0,0.0,0.0,2.9941,2.959,2.834,2.8672,2.8691,2.8301,2.8301,2.8301,2.8301,2.7461,2.6875,2.6523,2.6465,2.6445,2.6484,2.6855,2.6777,2.6387,2.6387,2.6621,2.6894,2.6064,2.6035,2.6348,2.5888,2.5713,2.5693,2.5693,2.5693,2.5693,2.5732,2.6055,2.6406,2.6465,2.7082,2.763,2.7148,2.7012,2.6934,2.6543,2.6719,2.7031,2.7051,2.7715,2.8437,2.8828,2.8945,2.8945,2.8926,2.8613,2.832,2.8301,2.8301,2.8418,2.8809,2.8867,2.8867,2.8867,0.0,0.0,0.0,0.0,0.0,0.0,2.9238,2.8828,0.0,0.0,0.0,0.0,0.0,2.9394,3.0215,3.0664,3.0898,3.0898,3.0898,3.0898,3.0898,3.0898,3.0898,3.0898,3.0898,3.0898,3.0898,3.0898,3.0898,3.0898,3.0898,3.0898,3.0898,3.0898,3.1406,3.2229,3.2229,3.2695,3.3418,0.0,0.0,3.0898,3.0898,3.0898,3.0898,3.0898,3.0898,3.0898,3.0898,3.0898,3.0898,3.0898,3.0898,3.0898,3.0898,3.0898,3.0508,2.9685,2.9668,2.9297,2.834,2.8398,2.8398,2.8301,2.8301,2.8301,2.8301,2.7773,2.7617,2.7832,2.7168,2.7051,2.7395,2.7109,2.6777,2.6387,2.6387,2.6445,2.6523,2.6309,2.6289,2.6387,2.6269,2.6035,2.5693,2.5693,2.5693,2.5732,2.6113,2.6309,2.6504,2.7148,2.7552,2.763,2.7148,2.7012,2.6992,2.6894,2.6934,2.709,2.7422,2.8144,2.8789,2.8906,2.918,2.9316,2.8984,2.8848,2.8672,2.8359,2.8301,2.832,2.8418,2.8437,2.8437,2.8437,2.8437,0.0,0.0,2.9219,2.9453,2.9607,2.9766,2.9726,0.0,0.0,0.0,0.0,2.9902,3.0156,3.0703,3.084,3.0898,3.0898,3.0898,3.0898,3.0898,3.0898,3.0898,3.0898,3.0898,3.0898,3.0898,3.0898,3.0898,3.0898,3.0898,3.0898,3.0898,3.0898,3.1406,3.2229,3.2229,3.2695,3.3418,3.0898,3.0898,3.0898,3.0898,3.0898,3.0898,3.0898,3.0898,3.0898,3.0898,3.0898,3.0898,3.0898,3.0898,3.0898,3.0898,3.0703,3.0293,2.9609,2.9626,2.918,2.832,2.8476,2.8496,2.8301,2.8301,2.8203,2.8008,2.7578,2.748,2.7695,2.7031,2.6953,2.7363,2.7324,2.6973,2.6406,2.6602,2.6562,2.6367,2.6172,2.6328,2.6641,2.623,2.6074,2.6016,2.5752,2.581,2.6074,2.6309,2.6641,2.7051,2.7571,2.7845,2.7871,2.7441,2.7305,2.7266,2.707,2.7168,2.7422,2.7851,2.8594,2.916,2.8965,2.9414,2.9687,2.9043,2.9082,2.9023,2.8398,2.8457,2.8516,2.832,2.8301,2.8301,2.8301,2.8457,0.0,2.916,2.959,2.9941,3.0156,3.0195,3.0098,2.9863,2.9863,0.0,3.0176,3.0391,3.0625,3.0879,3.0898,3.0898,3.0898,3.0898,3.0898,3.0898,3.0898,3.0996,3.1172,3.0976,3.1113,3.1445,3.1055,3.0996,3.1172,3.0976,3.0898,3.0918,3.1094,3.1582,3.2187,3.2383,3.2871,3.3418,3.0898,3.0898,3.0898,3.0898,3.0898,3.0898,3.0898,3.0898,3.0898,3.0898,3.0898,3.0898,3.0898,3.0898,3.0898,3.0898,3.041,2.9941,2.959,2.9512,2.9121,2.832,2.8633,2.8652,2.8301,2.8301,2.8125,2.7806,2.7324,2.7109,2.7109,2.6621,2.6602,2.7031,2.7266,2.7012,2.6406,2.6699,2.668,2.6445,2.6074,2.6356,2.7031,2.6309,2.6172,2.6348,2.5977,2.6074,2.6406,2.6465,2.7012,2.7728,2.7787,2.8008,2.8223,2.7871,2.7806,2.7676,2.7226,2.7422,2.7851,2.8203,2.8887,2.9394,2.9082,2.9629,2.9961,2.918,2.9316,2.9316,2.8457,2.8633,2.8789,2.8359,2.834,2.8359,2.8301,0.0,2.9082,2.9512,2.9941,3.0371,3.084,3.0527,3.0293,3.0293,3.0293,3.0293,3.0293,3.0684,3.0898,3.0898,3.0898,3.0898,3.0898,3.0898,3.0898,3.0898,3.0957,3.1172,3.1504,3.1211,3.1484,3.2129,3.1328,3.123,3.1582,3.1152,3.1016,3.1113,3.1484,3.1875,3.2305,3.2656,3.3066,3.3418,3.0898,3.0898,3.0898,3.0898,3.0898,3.0898,3.0898,3.0898,3.0898,3.0898,3.0898,3.0898,3.0898,3.0898,3.0898,3.0898,3.0137,2.9704,2.957,2.9219,2.8809,2.832,2.8359,2.8359,2.8301,2.8301,2.8262,2.8203,2.7773,2.7559,2.7539,2.6758,2.6602,2.6992,2.6328,2.6172,2.6367,2.6025,2.6309,2.6914,2.6836,2.7109,2.7611,2.7422,2.6953,2.6387,2.6309,2.6328,2.6445,2.6797,2.7246,2.7787,2.8086,2.8242,2.8281,2.8223,2.8203,2.8105,2.7676,2.7871,2.8203,2.8281,2.8652,2.9101,2.9394,2.9844,3.0059,2.957,2.9531,2.9316,2.8457,2.8633,2.8789,2.8359,2.8594,2.8691,2.834,0.0,2.9082,2.9512,2.9941,3.0371,3.084,3.082,3.0781,3.0781,3.0781,3.0781,3.0781,3.0859,3.0898,3.0898,3.0898,3.0898,3.0898,3.0898,3.0898,3.0898,3.125,3.1445,3.1523,3.1836,3.2051,3.2148,3.1641,3.166,3.2031,3.1601,3.1641,3.1973,3.2051,3.2324,3.2695,3.2773,3.3066,3.3418,3.0898,3.0898,3.0898,3.0898,3.0898,3.0898,3.0898,3.0898,3.0898,3.0898,3.0898,3.0898,3.0898,3.0898,3.0898,3.0898,3.0293,2.9805,2.959,2.8945,2.8496,2.8301,2.8301,2.8301,2.8301,2.8301,2.8301,2.8301,2.7637,2.7324,2.7305,2.6445,2.6269,2.666,2.6269,2.6191,2.6387,2.6172,2.6328,2.668,2.668,2.707,2.7689,2.7402,2.707,2.6699,2.6465,2.6543,2.6758,2.6953,2.7461,2.8047,2.8223,2.8301,2.8301,2.8301,2.8301,2.8262,2.8047,2.8144,2.8301,2.8301,2.8789,2.9316,2.9531,3.0098,3.0371,2.9763,2.9941,2.9941,2.8828,2.916,2.9473,2.9043,2.8945,0.0,0.0,2.9141,2.9434,2.9863,3.0293,3.0644,3.0859,3.0898,3.0898,3.0898,3.0898,3.0898,3.0898,3.0898,3.0898,3.0898,3.0898,3.0898,3.0898,3.0898,3.0996,3.123,3.1426,3.1758,3.2207,3.2187,3.2422,3.2812,3.2148,3.2109,3.248,3.2051,3.1992,3.2187,3.2422,3.2617,3.2832,3.3047,3.3262,3.3418,3.0898,3.0898,3.0898,3.0898,3.0898,3.0898,3.0898,3.0898,3.0898,3.0898,3.0898,3.0898,3.0898,3.0898,3.0898,3.0898,3.0371,2.9922,2.959,2.8769,2.8301,2.8301,2.8301,2.8301,2.8301,2.8301,2.8242,2.8144,2.7383,2.6973,2.6855,2.6044,2.5869,2.623,2.623,2.623,2.623,2.623,2.6289,2.6387,2.6504,2.6992,2.7689,2.7402,2.7246,2.7109,2.668,2.6738,2.6992,2.6894,2.7441,2.8144,2.8144,2.8203,2.8301,2.8301,2.8301,2.8301,2.8301,2.8359,2.8437,2.8437,2.9082,2.9726,2.9726,3.0332,3.0664,2.9883,3.0254,3.0391,2.9277,2.9687,3.0059,2.9704,0.0,0.0,0.0,2.9648,2.9844,3.0156,3.0605,3.0898,3.0898,3.0898,3.0898,3.0898,3.0898,3.0898,3.0898,3.0898,3.0898,3.0898,3.0898,3.0898,3.0898,3.0996,3.1191,3.1523,3.1719,3.2148,3.2793,3.2559,3.2812,3.3379,3.2637,3.2559,3.291,3.248,3.2363,3.25,3.2812,3.2949,3.2988,3.3418,3.3574,3.3594,3.0898,3.0898,3.0898,3.0898,3.0898,3.0898,3.0898,3.0898,3.0898,3.0898,3.0898,3.0898,3.0898,3.0898,3.0898,3.0898,3.0117,2.9609,2.9626,2.8769,2.8301,2.8301,2.8301,2.8301,2.8301,2.8301,2.8105,2.7767,2.7246,2.6816,2.6426,2.5908,2.5713,2.5732,2.5732,2.5732,2.5732,2.5732,2.6016,2.6426,2.6816,2.7246,2.7767,2.8066,2.7949,2.7611,2.7129,2.6992,2.6953,2.6562,2.7012,2.7767,2.7767,2.7988,2.8301,2.8301,2.8301,2.8301,2.8301,2.8574,2.8867,2.8867,2.9512,3.0156,3.0156,3.0527,3.0762,3.0254,3.0195,3.0098,2.9609,2.9902,3.0059,2.9704,0.0,0.0,2.9685,2.9902,3.0156,3.0195,3.0605,3.0898,3.0898,3.0898,3.0898,3.0898,3.0898,3.0898,3.0898,3.0898,3.0898,3.0898,3.0898,3.0898,3.0898,3.1269,3.1484,3.1523,3.2324,3.2734,3.2812,3.3164,3.3359,3.3398,3.2949,3.2988,3.334,3.293,3.2988,3.332,3.3359,3.3379,3.3437,3.3867,3.4023,3.4082,3.0898,3.0898,3.0898,3.0898,3.0898,3.0898,3.0898,3.0898,3.0898,3.0898,3.0898,3.0898,3.0898,3.0898,3.0898,3.0898,3.0586,3.0156,2.9665,2.9277,2.8848,2.832,2.8301,2.8301,2.8301,2.8301,2.8223,2.8047,2.7617,2.7207,2.6777,2.6348,2.5996,2.5693,2.5693,2.5693,2.5693,2.5693,2.5996,2.6426,2.6836,2.7109,2.7305,2.7734,2.7637,2.7246,2.707,2.7187,2.7402,2.7226,2.7578,2.8047,2.8047,2.8164,2.8301,2.8301,2.8301,2.834,2.8613,2.8789,2.8984,2.9258,2.9766,3.0195,3.0195,3.0547,3.0762,3.0293,3.043,3.0488,3.0039,3.0332,3.0566,3.041,0.0,3.0234,3.0371,3.0273,3.0312,3.0586,3.0781,3.0898,3.0898,3.0898,3.0898,3.0898,3.0898,3.0898,3.0898,3.1133,3.1269,3.1269,3.1543,3.1543,3.1289,3.1699,3.2051,3.2305,3.2637,3.293,3.3184,3.334,3.3418,3.3418,3.3242,3.3281,3.3418,3.3242,3.3281,3.3418,3.3418,3.3418,3.3476,3.3906,3.4082,3.4141,3.0898,3.0898,3.0898,3.0898,3.0898,3.0898,3.0898,3.0898,3.0898,3.0898,3.0898,3.0898,3.0898,3.0898,3.0898,3.0898,3.0762,3.0351,2.9665,2.9316,2.8906,2.832,2.8301,2.8301,2.8301,2.8301,2.8223,2.8086,2.7865,2.7441,2.7012,2.6719,2.6426,2.6083,2.5996,2.5937,2.5937,2.5752,2.5918,2.623,2.6797,2.7012,2.709,2.7656,2.7676,2.7402,2.7266,2.7422,2.7689,2.75,2.7734,2.8086,2.8086,2.8281,2.8496,2.8496,2.8496,2.8574,2.9004,2.9121,2.9219,2.9668,3.0098,3.041,3.041,3.0664,3.0801,3.0488,3.0664,3.0801,3.0469,3.0684,3.0898,3.0898,3.0625,3.0527,3.084,3.0605,3.0527,3.0859,3.0898,3.0898,3.0898,3.0898,3.0937,3.1074,3.1094,3.1152,3.1289,3.1562,3.1719,3.1719,3.2148,3.2226,3.1914,3.2207,3.2519,3.2793,3.293,3.3144,3.3418,3.3418,3.3418,3.3418,3.3418,3.3418,3.3418,3.3418,3.3418,3.3437,3.3574,3.3633,3.3691,3.4277,3.4492,3.4551,3.0898,3.0898,3.0898,3.0898,3.0898,3.0898,3.0898,3.0898,3.0898,3.0898,3.0898,3.0898,3.0898,3.0898,3.0898,3.0898,3.0469,3.0019,2.9646,2.8769,2.8301,2.8301,2.8301,2.8301,2.8301,2.8301,2.8086,2.7728,2.7728,2.7441,2.7031,2.7031,2.7012,2.6992,2.6582,2.6387,2.6367,2.5937,2.5693,2.5771,2.668,2.7012,2.7109,2.7969,2.8281,2.8242,2.7812,2.7728,2.7598,2.7168,2.7324,2.7728,2.7728,2.8242,2.8926,2.8926,2.8926,2.9023,2.9453,2.957,2.9668,3.0098,3.0547,3.0898,3.0898,3.0898,3.0898,3.0898,3.0898,3.0898,3.0898,3.0898,3.0898,3.0898,3.0898,3.0898,3.0898,3.0898,3.0898,3.0898,3.0898,3.0898,3.0898,3.0898,3.1074,3.1484,3.1523,3.1719,3.2209,3.2168,3.2168,3.2168,3.2578,3.2793,3.2793,3.2793,3.2793,3.2812,3.3223,3.3418,3.3418,3.3418,3.3418,3.3418,3.3418,3.3418,3.3418,3.3418,3.3418,3.3476,3.3906,3.4082,3.418,3.5059,3.5391,3.5449,3.0898,3.0898,3.0898,3.0898,3.0898,3.0898,3.0898,3.0898,3.0898,3.0898,3.0898,3.0898,3.0898,3.0898,3.0898,3.0898,3.0762,3.0371,2.9685,2.8769,2.8301,2.8301,2.8301,2.8301,2.8301,2.8301,2.8223,2.8105,2.8105,2.7891,2.748,2.748,2.7305,2.7012,2.6875,2.6836,2.6816,2.6699,2.6641,2.668,2.7246,2.7285,2.707,2.7637,2.7851,2.7832,2.7767,2.7851,2.8086,2.7949,2.8184,2.8535,2.8535,2.8711,2.8926,2.8926,2.9141,2.9473,2.9902,3.0,3.0117,3.0566,3.0781,3.0898,3.0898,3.0898,3.0898,3.0898,3.0898,3.0898,3.0898,3.0898,3.0898,3.0898,3.0898,3.0898,3.0898,3.0898,3.0898,3.0898,3.0898,3.0898,3.0898,3.1152,3.1387,3.1504,3.1797,3.2031,3.2168,3.2441,3.2598,3.2598,3.3008,3.3242,3.3242,3.3242,3.3242,3.3242,3.3359,3.3418,3.3418,3.3418,3.3418,3.3418,3.3418,3.3418,3.3418,3.3418,3.3594,3.3887,3.4023,3.4258,3.459,3.5176,3.5391,3.5449,3.0898,3.0898,3.0898,3.0898,3.0898,3.0898,3.0898,3.0898,3.0898,3.0898,3.0898,3.0898,3.0898,3.0898,3.0898,3.0898,3.0723,3.0312,2.9609,2.8926,2.8457,2.8301,2.8301,2.8301,2.8301,2.8301,2.8301,2.8301,2.8301,2.8164,2.791,2.791,2.7773,2.7519,2.7344,2.7285,2.7266,2.709,2.7012,2.7051,2.748,2.75,2.7324,2.7754,2.8027,2.8164,2.8164,2.8437,2.8789,2.8789,2.8965,2.9199,2.9375,2.9414,2.9414,2.9414,2.9609,2.9863,3.0137,3.0195,3.0312,3.0781,3.0898,3.0898,3.0898,3.0898,3.0898,3.0898,3.0898,3.0898,3.0898,3.0898,3.0898,3.0898,3.0898,3.0898,3.0898,3.0898,3.0898,3.0898,3.0898,3.0957,3.1133,3.1367,3.166,3.1992,3.2422,3.2656,3.2656,3.291,3.3125,3.3301,3.3379,3.3594,3.3926,3.3769,3.3594,3.3418,3.3418,3.3418,3.3437,3.3594,3.3691,3.3691,3.3848,3.3926,3.3926,3.3926,3.4082,3.4336,3.4531,3.4746,3.5019,3.5469,3.5644,3.5684,3.0898,3.0898,3.0898,3.0898,3.0898,3.0898,3.0898,3.0898,3.0898,3.0898,3.0898,3.0898,3.0898,3.0898,3.0898,3.0898,3.0469,3.0019,2.9646,2.916,2.873,2.832,2.8301,2.8301,2.8301,2.8301,2.8301,2.8301,2.8301,2.8301,2.8301,2.8301,2.8301,2.8281,2.7891,2.7767,2.7748,2.7305,2.7129,2.7168,2.7559,2.7767,2.7826,2.8184,2.8594,2.8926,2.8965,2.9238,2.9626,2.9609,2.9646,2.9648,3.0059,3.0195,3.0195,3.0195,3.0234,3.0254,3.0254,3.0254,3.0351,3.0781,3.0898,3.0898,3.0898,3.0898,3.0898,3.0937,3.0918,3.0918,3.0996,3.0976,3.0957,3.0996,3.1016,3.1016,3.1016,3.0976,3.0957,3.0996,3.0937,3.1074,3.1523,3.1621,3.1973,3.2793,3.3242,3.3476,3.3476,3.3516,3.3711,3.4121,3.375,3.3906,3.4687,3.4316,3.3906,3.3476,3.3516,3.3516,3.3496,3.3926,3.4121,3.416,3.4531,3.4707,3.4707,3.4707,3.4726,3.4805,3.5234,3.541,3.5488,3.5879,3.6016,3.6016,3.0898,3.0898,3.0898,3.0898,3.0898,3.0898,3.0898,3.0898,3.0898,3.0898,3.0898,3.0898,3.0898,3.0898,3.0898,3.0898,3.0469,3.0019,2.9646,2.916,2.873,2.832,2.8301,2.8301,2.8301,2.8301,2.8301,2.8301,2.8301,2.8301,2.8301,2.8301,2.8301,2.8281,2.8203,2.8164,2.8144,2.8047,2.8008,2.8027,2.8125,2.8164,2.8203,2.8633,2.8848,2.8965,2.9297,2.9492,2.9685,2.9941,2.9844,2.9648,3.0059,3.0195,3.0195,3.0195,3.0449,3.0742,3.0742,3.0742,3.0762,3.0859,3.0898,3.0898,3.0898,3.0898,3.0976,3.1309,3.1113,3.1094,3.1758,3.1621,3.1484,3.1836,3.1894,3.1894,3.1894,3.1601,3.1504,3.1855,3.1309,3.1191,3.1953,3.2324,3.2734,3.3242,3.3691,3.3926,3.3926,3.4238,3.4473,3.457,3.4473,3.4512,3.4707,3.4609,3.4355,3.3945,3.4258,3.4258,3.3945,3.4375,3.457,3.457,3.4668,3.4707,3.4707,3.4707,3.4922,3.5254,3.5351,3.5586,3.5898,3.5996,3.6016,3.6016,3.0898,3.0898,3.0898,3.0898,3.0898,3.0898,3.0898,3.0898,3.0898,3.0898,3.0898,3.0898,3.0898,3.0898,3.0898,3.0898,3.0664,3.0351,2.9902,2.9473,2.9043,2.8613,2.8398,2.8301,2.8301,2.8301,2.8301,2.8301,2.8301,2.8301,2.8301,2.8301,2.8301,2.8301,2.8301,2.8301,2.8301,2.8301,2.8301,2.8301,2.8301,2.8418,2.8613,2.8828,2.918,2.9551,2.9785,3.0019,3.0234,3.0449,3.0391,3.0234,3.0449,3.0527,3.0527,3.0527,3.0703,3.0898,3.0898,3.0898,3.0937,3.1133,3.1191,3.1133,3.0937,3.1055,3.125,3.1465,3.1504,3.1641,3.215,3.1973,3.1894,3.2129,3.2229,3.2229,3.2229,3.1973,3.1914,3.2148,3.1777,3.1758,3.2402,3.2851,3.3281,3.3691,3.3945,3.416,3.4355,3.459,3.4805,3.5019,3.4824,3.4902,3.5332,3.5137,3.4922,3.4707,3.4707,3.459,3.4394,3.4824,3.5019,3.5039,3.5234,3.5332,3.5332,3.5332,3.5469,3.5684,3.5684,3.582,3.6016,3.6016,3.6016,3.6016,3.0898,3.0898,3.0898,3.0898,3.0898,3.0898,3.0898,3.0898,3.0898,3.0898,3.0898,3.0898,3.0898,3.0898,3.0898,3.0898,3.0898,3.0703,3.0234,2.9863,2.9492,2.9043,2.8691,2.8476,2.8398,2.8398,2.8359,2.8301,2.8301,2.8301,2.8301,2.8301,2.8301,2.8301,2.8301,2.8301,2.8301,2.8301,2.8301,2.8301,2.8301,2.8496,2.8828,2.8965,2.9473,3.0117,3.0254,3.0566,3.0898,3.0898,3.0898,3.0898,3.0898,3.0898,3.0898,3.0898,3.0898,3.0918,3.0976,3.0996,3.1094,3.1523,3.1621,3.1543,3.1191,3.1387,3.1641,3.1719,3.1973,3.2207,3.2363,3.2324,3.2305,3.2363,3.2383,3.2383,3.2383,3.2324,3.2305,3.2383,3.2383,3.25,3.2773,3.3242,3.3691,3.4043,3.4219,3.4453,3.4805,3.4883,3.5098,3.5488,3.5137,3.5273,3.6016,3.5664,3.5508,3.5488,3.5117,3.4883,3.4824,3.5293,3.5508,3.5527,3.5859,3.6016,3.6016,3.6016,3.6016,3.6016,3.6016,3.6016,3.6016,3.6016,3.6016,3.6016,3.0898,3.0898,3.0898,3.0898,3.0898,3.0898,3.0898,3.0898,3.0898,3.0898,3.0898,3.0898,3.0898,3.0898,3.0898,3.0898,3.0898,3.0703,3.0234,3.0137,2.9922,2.9492,2.9434,2.9219,2.8848,2.8828,2.8652,2.8301,2.8301,2.8301,2.8301,2.8301,2.8301,2.8301,2.8301,2.8301,2.8301,2.8301,2.8301,2.8301,2.8301,2.832,2.8457,2.9199,2.9551,2.9746,3.0527,3.084,3.0898,3.0898,3.0898,3.0898,3.0898,3.0898,3.0898,3.0898,3.0898,3.0976,3.1328,3.1426,3.1543,3.1973,3.209,3.207,3.2012,3.2051,3.2187,3.2539,3.2383,3.2383,3.3125,3.2949,3.2832,3.3184,3.3242,3.3242,3.3242,3.293,3.2851,3.3203,3.3242,3.3125,3.2832,3.3516,3.4004,3.4062,3.4785,3.5234,3.5293,3.5644,3.5879,3.5937,3.5879,3.5898,3.6016,3.5957,3.5937,3.5937,3.5879,3.5644,3.5312,3.5742,3.5937,3.5937,3.5996,3.6016,3.6016,3.6016,3.6016,3.6016,3.6016,3.6016,3.6016,3.6016,3.6016,3.6016,3.0898,3.0898,3.0898,3.0898,3.0898,3.0898,3.0898,3.0898,3.0898,3.0898,3.0898,3.0898,3.0898,3.0898,3.0898,3.0898,3.0898,3.0801,3.0586,3.0351,3.0117,2.9922,2.9687,2.9355,2.8926,2.8926,2.8711,2.8301,2.8301,2.8301,2.8301,2.8301,2.8301,2.8301,2.8301,2.8301,2.8301,2.8301,2.8301,2.8301,2.8301,2.8437,2.8711,2.9336,2.9726,3.0,3.0664,3.0898,3.0898,3.0898,3.0898,3.0898,3.0898,3.0898,3.0898,3.0898,3.0898,3.0976,3.1406,3.1523,3.168,3.2344,3.2519,3.2578,3.2812,3.2871,3.2851,3.2812,3.2832,3.2988,3.3359,3.3476,3.3496,3.3437,3.3633,3.3691,3.3457,3.3262,3.3301,3.373,3.3789,3.3809,3.3848,3.4199,3.4531,3.4785,3.5176,3.5605,3.6074,3.6055,3.6133,3.6367,3.6152,3.6016,3.6016,3.6016,3.6016,3.6016,3.6269,3.6152,3.5742,3.5937,3.6016,3.6016,3.6016,3.6016,3.6016,3.6016,3.6016,3.6016,3.6016,3.6016,3.6016,3.6016,3.6016,3.6016]}]]